<?xml version="1.0" encoding="UTF-8" standalone="no" ?>
<gpx xmlns="http://www.topografix.com/GPX/1/1" xmlns:xsi="http://www.w3.org/2001/XMLSchema-instance" xsi:schemaLocation="http://www.topografix.com/GPX/1/1 http://www.topografix.com/GPX/1/1/gpx.xsd" version="1.1" creator="VisuGPX - https://www.visugpx.com">
  <metadata>
    <name>Trail du Pastel 2015 sur TraceDeTrail.fr</name>
  </metadata>
  <trk>
    <name><![CDATA[Trail du Pastel 2015 sur TraceDeTrail.fr]]></name>
    <trkseg>
      <trkpt lat="43.61126" lon="1.48863">
        <ele>120</ele>
        <time>2000-01-01T01:54:26.000Z</time>
      </trkpt>
      <trkpt lat="43.61126" lon="1.48863">
        <ele>138</ele>
        <time>2000-01-01T01:54:36.000Z</time>
      </trkpt>
      <trkpt lat="43.61131" lon="1.48872">
        <ele>138</ele>
        <time>2000-01-01T01:54:46.000Z</time>
      </trkpt>
      <trkpt lat="43.61135" lon="1.48883">
        <ele>138</ele>
        <time>2000-01-01T01:54:56.000Z</time>
      </trkpt>
      <trkpt lat="43.61138" lon="1.48893">
        <ele>121</ele>
        <time>2000-01-01T01:55:06.000Z</time>
      </trkpt>
      <trkpt lat="43.61145" lon="1.48904">
        <ele>138</ele>
        <time>2000-01-01T01:55:16.000Z</time>
      </trkpt>
      <trkpt lat="43.61149" lon="1.48915">
        <ele>138</ele>
        <time>2000-01-01T01:55:26.000Z</time>
      </trkpt>
      <trkpt lat="43.61157" lon="1.4892">
        <ele>121.5</ele>
        <time>2000-01-01T01:55:36.000Z</time>
      </trkpt>
      <trkpt lat="43.61165" lon="1.48917">
        <ele>138</ele>
        <time>2000-01-01T01:55:46.000Z</time>
      </trkpt>
      <trkpt lat="43.61173" lon="1.4891">
        <ele>138</ele>
        <time>2000-01-01T01:55:56.000Z</time>
      </trkpt>
      <trkpt lat="43.6118" lon="1.48902">
        <ele>121.2</ele>
        <time>2000-01-01T01:56:06.000Z</time>
      </trkpt>
      <trkpt lat="43.61189" lon="1.48891">
        <ele>138</ele>
        <time>2000-01-01T01:56:16.000Z</time>
      </trkpt>
      <trkpt lat="43.61201" lon="1.4888">
        <ele>121</ele>
        <time>2000-01-01T01:56:26.000Z</time>
      </trkpt>
      <trkpt lat="43.61209" lon="1.48873">
        <ele>137.7</ele>
        <time>2000-01-01T01:56:36.000Z</time>
      </trkpt>
      <trkpt lat="43.61216" lon="1.48867">
        <ele>137.8</ele>
        <time>2000-01-01T01:56:46.000Z</time>
      </trkpt>
      <trkpt lat="43.61223" lon="1.4886">
        <ele>121</ele>
        <time>2000-01-01T01:56:56.000Z</time>
      </trkpt>
      <trkpt lat="43.61231" lon="1.48854">
        <ele>138.2</ele>
        <time>2000-01-01T01:57:06.000Z</time>
      </trkpt>
      <trkpt lat="43.61238" lon="1.48848">
        <ele>138.3</ele>
        <time>2000-01-01T01:57:16.000Z</time>
      </trkpt>
      <trkpt lat="43.61246" lon="1.4884">
        <ele>122</ele>
        <time>2000-01-01T01:57:26.000Z</time>
      </trkpt>
      <trkpt lat="43.61252" lon="1.48833">
        <ele>138.1</ele>
        <time>2000-01-01T01:57:36.000Z</time>
      </trkpt>
      <trkpt lat="43.61258" lon="1.48824">
        <ele>138.2</ele>
        <time>2000-01-01T01:57:46.000Z</time>
      </trkpt>
      <trkpt lat="43.61262" lon="1.48813">
        <ele>123</ele>
        <time>2000-01-01T01:57:56.000Z</time>
      </trkpt>
      <trkpt lat="43.61258" lon="1.488">
        <ele>138</ele>
        <time>2000-01-01T01:58:06.000Z</time>
      </trkpt>
      <trkpt lat="43.61254" lon="1.48788">
        <ele>123</ele>
        <time>2000-01-01T01:58:16.000Z</time>
      </trkpt>
      <trkpt lat="43.61247" lon="1.48779">
        <ele>138</ele>
        <time>2000-01-01T01:58:26.000Z</time>
      </trkpt>
      <trkpt lat="43.61242" lon="1.48766">
        <ele>123</ele>
        <time>2000-01-01T01:58:36.000Z</time>
      </trkpt>
      <trkpt lat="43.6124" lon="1.48755">
        <ele>138</ele>
        <time>2000-01-01T01:58:46.000Z</time>
      </trkpt>
      <trkpt lat="43.61234" lon="1.48746">
        <ele>137.9</ele>
        <time>2000-01-01T01:58:56.000Z</time>
      </trkpt>
      <trkpt lat="43.61232" lon="1.48734">
        <ele>121</ele>
        <time>2000-01-01T01:59:06.000Z</time>
      </trkpt>
      <trkpt lat="43.61229" lon="1.48721">
        <ele>137</ele>
        <time>2000-01-01T01:59:16.000Z</time>
      </trkpt>
      <trkpt lat="43.61223" lon="1.48712">
        <ele>137</ele>
        <time>2000-01-01T01:59:26.000Z</time>
      </trkpt>
      <trkpt lat="43.61222" lon="1.487">
        <ele>121</ele>
        <time>2000-01-01T01:59:36.000Z</time>
      </trkpt>
      <trkpt lat="43.61219" lon="1.48688">
        <ele>136.8</ele>
        <time>2000-01-01T01:59:46.000Z</time>
      </trkpt>
      <trkpt lat="43.61215" lon="1.48675">
        <ele>136.5</ele>
        <time>2000-01-01T01:59:56.000Z</time>
      </trkpt>
      <trkpt lat="43.61215" lon="1.48661">
        <ele>120</ele>
        <time>2000-01-01T02:00:06.000Z</time>
      </trkpt>
      <trkpt lat="43.61211" lon="1.4865">
        <ele>137.1</ele>
        <time>2000-01-01T02:00:16.000Z</time>
      </trkpt>
      <trkpt lat="43.61208" lon="1.48638">
        <ele>137.5</ele>
        <time>2000-01-01T02:00:26.000Z</time>
      </trkpt>
      <trkpt lat="43.612" lon="1.48635">
        <ele>117</ele>
        <time>2000-01-01T02:00:36.000Z</time>
      </trkpt>
      <trkpt lat="43.61195" lon="1.48625">
        <ele>137</ele>
        <time>2000-01-01T02:00:46.000Z</time>
      </trkpt>
      <trkpt lat="43.61188" lon="1.48616">
        <ele>137.2</ele>
        <time>2000-01-01T02:00:56.000Z</time>
      </trkpt>
      <trkpt lat="43.61186" lon="1.48601">
        <ele>116</ele>
        <time>2000-01-01T02:01:06.000Z</time>
      </trkpt>
      <trkpt lat="43.61178" lon="1.48588">
        <ele>136.9</ele>
        <time>2000-01-01T02:01:16.000Z</time>
      </trkpt>
      <trkpt lat="43.61173" lon="1.48575">
        <ele>113</ele>
        <time>2000-01-01T02:01:26.000Z</time>
      </trkpt>
      <trkpt lat="43.61172" lon="1.48563">
        <ele>137.1</ele>
        <time>2000-01-01T02:01:36.000Z</time>
      </trkpt>
      <trkpt lat="43.61171" lon="1.48551">
        <ele>137</ele>
        <time>2000-01-01T02:01:46.000Z</time>
      </trkpt>
      <trkpt lat="43.61166" lon="1.48542">
        <ele>110</ele>
        <time>2000-01-01T02:01:56.000Z</time>
      </trkpt>
      <trkpt lat="43.61157" lon="1.48541">
        <ele>136.1</ele>
        <time>2000-01-01T02:02:06.000Z</time>
      </trkpt>
      <trkpt lat="43.61149" lon="1.48543">
        <ele>135.6</ele>
        <time>2000-01-01T02:02:16.000Z</time>
      </trkpt>
      <trkpt lat="43.61139" lon="1.48546">
        <ele>109</ele>
        <time>2000-01-01T02:02:26.000Z</time>
      </trkpt>
      <trkpt lat="43.61131" lon="1.4855">
        <ele>136.2</ele>
        <time>2000-01-01T02:02:36.000Z</time>
      </trkpt>
      <trkpt lat="43.61123" lon="1.48554">
        <ele>137.3</ele>
        <time>2000-01-01T02:02:46.000Z</time>
      </trkpt>
      <trkpt lat="43.61113" lon="1.48558">
        <ele>108</ele>
        <time>2000-01-01T02:02:56.000Z</time>
      </trkpt>
      <trkpt lat="43.61104" lon="1.48561">
        <ele>137.6</ele>
        <time>2000-01-01T02:03:06.000Z</time>
      </trkpt>
      <trkpt lat="43.61095" lon="1.48564">
        <ele>137.3</ele>
        <time>2000-01-01T02:03:16.000Z</time>
      </trkpt>
      <trkpt lat="43.61086" lon="1.48568">
        <ele>108</ele>
        <time>2000-01-01T02:03:26.000Z</time>
      </trkpt>
      <trkpt lat="43.61077" lon="1.48573">
        <ele>136.8</ele>
        <time>2000-01-01T02:03:36.000Z</time>
      </trkpt>
      <trkpt lat="43.61068" lon="1.48575">
        <ele>136.7</ele>
        <time>2000-01-01T02:03:46.000Z</time>
      </trkpt>
      <trkpt lat="43.61061" lon="1.48581">
        <ele>106</ele>
        <time>2000-01-01T02:03:56.000Z</time>
      </trkpt>
      <trkpt lat="43.61052" lon="1.48584">
        <ele>138</ele>
        <time>2000-01-01T02:04:06.000Z</time>
      </trkpt>
      <trkpt lat="43.61044" lon="1.48586">
        <ele>138</ele>
        <time>2000-01-01T02:04:16.000Z</time>
      </trkpt>
      <trkpt lat="43.61036" lon="1.48588">
        <ele>106</ele>
        <time>2000-01-01T02:04:26.000Z</time>
      </trkpt>
      <trkpt lat="43.61026" lon="1.48584">
        <ele>137.9</ele>
        <time>2000-01-01T02:04:36.000Z</time>
      </trkpt>
      <trkpt lat="43.61016" lon="1.48586">
        <ele>104</ele>
        <time>2000-01-01T02:04:46.000Z</time>
      </trkpt>
      <trkpt lat="43.61007" lon="1.48589">
        <ele>137.2</ele>
        <time>2000-01-01T02:04:56.000Z</time>
      </trkpt>
      <trkpt lat="43.60999" lon="1.48591">
        <ele>136.9</ele>
        <time>2000-01-01T02:05:06.000Z</time>
      </trkpt>
      <trkpt lat="43.60991" lon="1.48593">
        <ele>104</ele>
        <time>2000-01-01T02:05:16.000Z</time>
      </trkpt>
      <trkpt lat="43.60983" lon="1.48594">
        <ele>136.2</ele>
        <time>2000-01-01T02:05:26.000Z</time>
      </trkpt>
      <trkpt lat="43.60974" lon="1.48597">
        <ele>136</ele>
        <time>2000-01-01T02:05:36.000Z</time>
      </trkpt>
      <trkpt lat="43.60964" lon="1.486">
        <ele>103.5</ele>
        <time>2000-01-01T02:05:46.000Z</time>
      </trkpt>
      <trkpt lat="43.60955" lon="1.48602">
        <ele>135.9</ele>
        <time>2000-01-01T02:05:56.000Z</time>
      </trkpt>
      <trkpt lat="43.60947" lon="1.48603">
        <ele>135.9</ele>
        <time>2000-01-01T02:06:06.000Z</time>
      </trkpt>
      <trkpt lat="43.60939" lon="1.48604">
        <ele>103</ele>
        <time>2000-01-01T02:06:16.000Z</time>
      </trkpt>
      <trkpt lat="43.60931" lon="1.48606">
        <ele>136.7</ele>
        <time>2000-01-01T02:06:26.000Z</time>
      </trkpt>
      <trkpt lat="43.60922" lon="1.48607">
        <ele>137.1</ele>
        <time>2000-01-01T02:06:36.000Z</time>
      </trkpt>
      <trkpt lat="43.60911" lon="1.48609">
        <ele>103</ele>
        <time>2000-01-01T02:06:46.000Z</time>
      </trkpt>
      <trkpt lat="43.60903" lon="1.4861">
        <ele>137.8</ele>
        <time>2000-01-01T02:06:56.000Z</time>
      </trkpt>
      <trkpt lat="43.60892" lon="1.48612">
        <ele>138</ele>
        <time>2000-01-01T02:07:06.000Z</time>
      </trkpt>
      <trkpt lat="43.60883" lon="1.48614">
        <ele>105</ele>
        <time>2000-01-01T02:07:16.000Z</time>
      </trkpt>
      <trkpt lat="43.60875" lon="1.48618">
        <ele>137.9</ele>
        <time>2000-01-01T02:07:26.000Z</time>
      </trkpt>
      <trkpt lat="43.60866" lon="1.4862">
        <ele>137.9</ele>
        <time>2000-01-01T02:07:36.000Z</time>
      </trkpt>
      <trkpt lat="43.60855" lon="1.4862">
        <ele>109</ele>
        <time>2000-01-01T02:07:46.000Z</time>
      </trkpt>
      <trkpt lat="43.60847" lon="1.48618">
        <ele>138</ele>
        <time>2000-01-01T02:07:56.000Z</time>
      </trkpt>
      <trkpt lat="43.60838" lon="1.48619">
        <ele>138</ele>
        <time>2000-01-01T02:08:06.000Z</time>
      </trkpt>
      <trkpt lat="43.60828" lon="1.48616">
        <ele>113</ele>
        <time>2000-01-01T02:08:16.000Z</time>
      </trkpt>
      <trkpt lat="43.60818" lon="1.48612">
        <ele>138</ele>
        <time>2000-01-01T02:08:26.000Z</time>
      </trkpt>
      <trkpt lat="43.60809" lon="1.48611">
        <ele>116</ele>
        <time>2000-01-01T02:08:36.000Z</time>
      </trkpt>
      <trkpt lat="43.608" lon="1.48609">
        <ele>137.7</ele>
        <time>2000-01-01T02:08:46.000Z</time>
      </trkpt>
      <trkpt lat="43.60792" lon="1.48605">
        <ele>137.1</ele>
        <time>2000-01-01T02:08:56.000Z</time>
      </trkpt>
      <trkpt lat="43.60775" lon="1.48609">
        <ele>118</ele>
        <time>2000-01-01T02:09:06.000Z</time>
      </trkpt>
      <trkpt lat="43.60759" lon="1.48612">
        <ele>139</ele>
        <time>2000-01-01T02:09:16.000Z</time>
      </trkpt>
      <trkpt lat="43.6075" lon="1.48607">
        <ele>118.5</ele>
        <time>2000-01-01T02:09:26.000Z</time>
      </trkpt>
      <trkpt lat="43.60739" lon="1.48606">
        <ele>137.7</ele>
        <time>2000-01-01T02:09:36.000Z</time>
      </trkpt>
      <trkpt lat="43.60729" lon="1.48607">
        <ele>117.7</ele>
        <time>2000-01-01T02:09:46.000Z</time>
      </trkpt>
      <trkpt lat="43.6072" lon="1.48606">
        <ele>137.6</ele>
        <time>2000-01-01T02:09:56.000Z</time>
      </trkpt>
      <trkpt lat="43.60711" lon="1.48604">
        <ele>136.9</ele>
        <time>2000-01-01T02:10:06.000Z</time>
      </trkpt>
      <trkpt lat="43.60701" lon="1.48605">
        <ele>117</ele>
        <time>2000-01-01T02:10:16.000Z</time>
      </trkpt>
      <trkpt lat="43.60691" lon="1.48604">
        <ele>136.5</ele>
        <time>2000-01-01T02:10:26.000Z</time>
      </trkpt>
      <trkpt lat="43.6068" lon="1.48603">
        <ele>113</ele>
        <time>2000-01-01T02:10:36.000Z</time>
      </trkpt>
      <trkpt lat="43.60671" lon="1.48603">
        <ele>136.5</ele>
        <time>2000-01-01T02:10:46.000Z</time>
      </trkpt>
      <trkpt lat="43.60662" lon="1.48602">
        <ele>136.4</ele>
        <time>2000-01-01T02:10:56.000Z</time>
      </trkpt>
      <trkpt lat="43.60653" lon="1.48603">
        <ele>107</ele>
        <time>2000-01-01T02:11:06.000Z</time>
      </trkpt>
      <trkpt lat="43.60645" lon="1.48605">
        <ele>136.9</ele>
        <time>2000-01-01T02:11:16.000Z</time>
      </trkpt>
      <trkpt lat="43.60636" lon="1.48606">
        <ele>137.1</ele>
        <time>2000-01-01T02:11:26.000Z</time>
      </trkpt>
      <trkpt lat="43.60626" lon="1.48606">
        <ele>100</ele>
        <time>2000-01-01T02:11:36.000Z</time>
      </trkpt>
      <trkpt lat="43.60617" lon="1.48606">
        <ele>137.1</ele>
        <time>2000-01-01T02:11:46.000Z</time>
      </trkpt>
      <trkpt lat="43.60608" lon="1.48606">
        <ele>137.1</ele>
        <time>2000-01-01T02:11:56.000Z</time>
      </trkpt>
      <trkpt lat="43.60599" lon="1.48607">
        <ele>100</ele>
        <time>2000-01-01T02:12:06.000Z</time>
      </trkpt>
      <trkpt lat="43.60589" lon="1.48605">
        <ele>136.9</ele>
        <time>2000-01-01T02:12:16.000Z</time>
      </trkpt>
      <trkpt lat="43.60579" lon="1.48607">
        <ele>100</ele>
        <time>2000-01-01T02:12:26.000Z</time>
      </trkpt>
      <trkpt lat="43.60569" lon="1.48609">
        <ele>137.6</ele>
        <time>2000-01-01T02:12:36.000Z</time>
      </trkpt>
      <trkpt lat="43.6056" lon="1.48605">
        <ele>100</ele>
        <time>2000-01-01T02:12:46.000Z</time>
      </trkpt>
      <trkpt lat="43.60551" lon="1.48607">
        <ele>137.1</ele>
        <time>2000-01-01T02:12:56.000Z</time>
      </trkpt>
      <trkpt lat="43.60541" lon="1.48606">
        <ele>136.9</ele>
        <time>2000-01-01T02:13:06.000Z</time>
      </trkpt>
      <trkpt lat="43.60531" lon="1.48607">
        <ele>104</ele>
        <time>2000-01-01T02:13:16.000Z</time>
      </trkpt>
      <trkpt lat="43.60523" lon="1.48607">
        <ele>137.1</ele>
        <time>2000-01-01T02:13:26.000Z</time>
      </trkpt>
      <trkpt lat="43.60512" lon="1.48608">
        <ele>137.3</ele>
        <time>2000-01-01T02:13:36.000Z</time>
      </trkpt>
      <trkpt lat="43.60503" lon="1.48609">
        <ele>109</ele>
        <time>2000-01-01T02:13:46.000Z</time>
      </trkpt>
      <trkpt lat="43.60494" lon="1.48609">
        <ele>137.3</ele>
        <time>2000-01-01T02:13:56.000Z</time>
      </trkpt>
      <trkpt lat="43.60483" lon="1.48609">
        <ele>111</ele>
        <time>2000-01-01T02:14:06.000Z</time>
      </trkpt>
      <trkpt lat="43.60474" lon="1.48611">
        <ele>137</ele>
        <time>2000-01-01T02:14:16.000Z</time>
      </trkpt>
      <trkpt lat="43.60466" lon="1.48616">
        <ele>136.3</ele>
        <time>2000-01-01T02:14:26.000Z</time>
      </trkpt>
      <trkpt lat="43.60455" lon="1.48624">
        <ele>113</ele>
        <time>2000-01-01T02:14:36.000Z</time>
      </trkpt>
      <trkpt lat="43.60448" lon="1.48632">
        <ele>136.7</ele>
        <time>2000-01-01T02:14:46.000Z</time>
      </trkpt>
      <trkpt lat="43.6044" lon="1.4864">
        <ele>137.2</ele>
        <time>2000-01-01T02:14:56.000Z</time>
      </trkpt>
      <trkpt lat="43.60434" lon="1.48649">
        <ele>114</ele>
        <time>2000-01-01T02:15:06.000Z</time>
      </trkpt>
      <trkpt lat="43.60426" lon="1.48658">
        <ele>137</ele>
        <time>2000-01-01T02:15:16.000Z</time>
      </trkpt>
      <trkpt lat="43.60416" lon="1.48666">
        <ele>116</ele>
        <time>2000-01-01T02:15:26.000Z</time>
      </trkpt>
      <trkpt lat="43.6041" lon="1.48673">
        <ele>137</ele>
        <time>2000-01-01T02:15:36.000Z</time>
      </trkpt>
      <trkpt lat="43.60403" lon="1.48681">
        <ele>136.6</ele>
        <time>2000-01-01T02:15:46.000Z</time>
      </trkpt>
      <trkpt lat="43.60396" lon="1.48689">
        <ele>118</ele>
        <time>2000-01-01T02:15:56.000Z</time>
      </trkpt>
      <trkpt lat="43.60388" lon="1.48698">
        <ele>137</ele>
        <time>2000-01-01T02:16:06.000Z</time>
      </trkpt>
      <trkpt lat="43.60381" lon="1.48705">
        <ele>136.7</ele>
        <time>2000-01-01T02:16:16.000Z</time>
      </trkpt>
      <trkpt lat="43.60374" lon="1.48715">
        <ele>121</ele>
        <time>2000-01-01T02:16:26.000Z</time>
      </trkpt>
      <trkpt lat="43.60366" lon="1.48723">
        <ele>138</ele>
        <time>2000-01-01T02:16:36.000Z</time>
      </trkpt>
      <trkpt lat="43.60359" lon="1.48731">
        <ele>123</ele>
        <time>2000-01-01T02:16:46.000Z</time>
      </trkpt>
      <trkpt lat="43.60351" lon="1.48739">
        <ele>137.1</ele>
        <time>2000-01-01T02:16:56.000Z</time>
      </trkpt>
      <trkpt lat="43.60342" lon="1.48747">
        <ele>123</ele>
        <time>2000-01-01T02:17:06.000Z</time>
      </trkpt>
      <trkpt lat="43.60336" lon="1.48754">
        <ele>137.2</ele>
        <time>2000-01-01T02:17:16.000Z</time>
      </trkpt>
      <trkpt lat="43.60327" lon="1.48763">
        <ele>136.8</ele>
        <time>2000-01-01T02:17:26.000Z</time>
      </trkpt>
      <trkpt lat="43.6032" lon="1.4877">
        <ele>124</ele>
        <time>2000-01-01T02:17:36.000Z</time>
      </trkpt>
      <trkpt lat="43.60313" lon="1.48778">
        <ele>137.3</ele>
        <time>2000-01-01T02:17:46.000Z</time>
      </trkpt>
      <trkpt lat="43.60306" lon="1.48785">
        <ele>137.3</ele>
        <time>2000-01-01T02:17:56.000Z</time>
      </trkpt>
      <trkpt lat="43.603" lon="1.48793">
        <ele>125.5</ele>
        <time>2000-01-01T02:18:06.000Z</time>
      </trkpt>
      <trkpt lat="43.60293" lon="1.488">
        <ele>136.8</ele>
        <time>2000-01-01T02:18:16.000Z</time>
      </trkpt>
      <trkpt lat="43.60286" lon="1.48809">
        <ele>136.8</ele>
        <time>2000-01-01T02:18:26.000Z</time>
      </trkpt>
      <trkpt lat="43.60278" lon="1.48817">
        <ele>124.2</ele>
        <time>2000-01-01T02:18:36.000Z</time>
      </trkpt>
      <trkpt lat="43.60271" lon="1.48824">
        <ele>136.8</ele>
        <time>2000-01-01T02:18:46.000Z</time>
      </trkpt>
      <trkpt lat="43.60264" lon="1.48832">
        <ele>136.9</ele>
        <time>2000-01-01T02:18:56.000Z</time>
      </trkpt>
      <trkpt lat="43.60257" lon="1.48838">
        <ele>123</ele>
        <time>2000-01-01T02:19:06.000Z</time>
      </trkpt>
      <trkpt lat="43.6025" lon="1.48845">
        <ele>136.8</ele>
        <time>2000-01-01T02:19:16.000Z</time>
      </trkpt>
      <trkpt lat="43.60244" lon="1.48853">
        <ele>136.8</ele>
        <time>2000-01-01T02:19:26.000Z</time>
      </trkpt>
      <trkpt lat="43.60236" lon="1.48862">
        <ele>123</ele>
        <time>2000-01-01T02:19:36.000Z</time>
      </trkpt>
      <trkpt lat="43.60228" lon="1.48871">
        <ele>136.8</ele>
        <time>2000-01-01T02:19:46.000Z</time>
      </trkpt>
      <trkpt lat="43.60222" lon="1.48879">
        <ele>137.5</ele>
        <time>2000-01-01T02:19:56.000Z</time>
      </trkpt>
      <trkpt lat="43.60216" lon="1.48887">
        <ele>123</ele>
        <time>2000-01-01T02:20:06.000Z</time>
      </trkpt>
      <trkpt lat="43.60208" lon="1.48897">
        <ele>136.2</ele>
        <time>2000-01-01T02:20:16.000Z</time>
      </trkpt>
      <trkpt lat="43.60203" lon="1.48906">
        <ele>136.5</ele>
        <time>2000-01-01T02:20:26.000Z</time>
      </trkpt>
      <trkpt lat="43.60195" lon="1.48916">
        <ele>121</ele>
        <time>2000-01-01T02:20:36.000Z</time>
      </trkpt>
      <trkpt lat="43.60188" lon="1.48923">
        <ele>137.1</ele>
        <time>2000-01-01T02:20:46.000Z</time>
      </trkpt>
      <trkpt lat="43.60179" lon="1.48933">
        <ele>120</ele>
        <time>2000-01-01T02:20:56.000Z</time>
      </trkpt>
      <trkpt lat="43.60173" lon="1.4894">
        <ele>136.7</ele>
        <time>2000-01-01T02:21:06.000Z</time>
      </trkpt>
      <trkpt lat="43.60166" lon="1.48948">
        <ele>137</ele>
        <time>2000-01-01T02:21:16.000Z</time>
      </trkpt>
      <trkpt lat="43.6016" lon="1.48959">
        <ele>120</ele>
        <time>2000-01-01T02:21:26.000Z</time>
      </trkpt>
      <trkpt lat="43.60152" lon="1.4897">
        <ele>136.3</ele>
        <time>2000-01-01T02:21:36.000Z</time>
      </trkpt>
      <trkpt lat="43.60144" lon="1.48981">
        <ele>120</ele>
        <time>2000-01-01T02:21:46.000Z</time>
      </trkpt>
      <trkpt lat="43.60138" lon="1.4899">
        <ele>136.8</ele>
        <time>2000-01-01T02:21:56.000Z</time>
      </trkpt>
      <trkpt lat="43.60132" lon="1.49">
        <ele>136.8</ele>
        <time>2000-01-01T02:22:06.000Z</time>
      </trkpt>
      <trkpt lat="43.60126" lon="1.4901">
        <ele>119.5</ele>
        <time>2000-01-01T02:22:16.000Z</time>
      </trkpt>
      <trkpt lat="43.6012" lon="1.49018">
        <ele>136.8</ele>
        <time>2000-01-01T02:22:26.000Z</time>
      </trkpt>
      <trkpt lat="43.60112" lon="1.49027">
        <ele>137.9</ele>
        <time>2000-01-01T02:22:36.000Z</time>
      </trkpt>
      <trkpt lat="43.60106" lon="1.49034">
        <ele>119</ele>
        <time>2000-01-01T02:22:46.000Z</time>
      </trkpt>
      <trkpt lat="43.601" lon="1.49043">
        <ele>136.5</ele>
        <time>2000-01-01T02:22:56.000Z</time>
      </trkpt>
      <trkpt lat="43.60092" lon="1.49052">
        <ele>136.3</ele>
        <time>2000-01-01T02:23:06.000Z</time>
      </trkpt>
      <trkpt lat="43.60086" lon="1.49059">
        <ele>119</ele>
        <time>2000-01-01T02:23:16.000Z</time>
      </trkpt>
      <trkpt lat="43.60078" lon="1.4907">
        <ele>136.5</ele>
        <time>2000-01-01T02:23:26.000Z</time>
      </trkpt>
      <trkpt lat="43.60072" lon="1.49079">
        <ele>119</ele>
        <time>2000-01-01T02:23:36.000Z</time>
      </trkpt>
      <trkpt lat="43.60065" lon="1.49087">
        <ele>135.7</ele>
        <time>2000-01-01T02:23:46.000Z</time>
      </trkpt>
      <trkpt lat="43.60058" lon="1.49097">
        <ele>136.1</ele>
        <time>2000-01-01T02:23:56.000Z</time>
      </trkpt>
      <trkpt lat="43.60051" lon="1.49105">
        <ele>119</ele>
        <time>2000-01-01T02:24:06.000Z</time>
      </trkpt>
      <trkpt lat="43.60044" lon="1.49114">
        <ele>136.5</ele>
        <time>2000-01-01T02:24:16.000Z</time>
      </trkpt>
      <trkpt lat="43.60037" lon="1.49125">
        <ele>119</ele>
        <time>2000-01-01T02:24:26.000Z</time>
      </trkpt>
      <trkpt lat="43.60029" lon="1.49134">
        <ele>137.3</ele>
        <time>2000-01-01T02:24:36.000Z</time>
      </trkpt>
      <trkpt lat="43.6002" lon="1.49143">
        <ele>118</ele>
        <time>2000-01-01T02:24:46.000Z</time>
      </trkpt>
      <trkpt lat="43.60014" lon="1.49152">
        <ele>136.2</ele>
        <time>2000-01-01T02:24:56.000Z</time>
      </trkpt>
      <trkpt lat="43.60007" lon="1.4916">
        <ele>136.4</ele>
        <time>2000-01-01T02:25:06.000Z</time>
      </trkpt>
      <trkpt lat="43.60002" lon="1.4917">
        <ele>118</ele>
        <time>2000-01-01T02:25:16.000Z</time>
      </trkpt>
      <trkpt lat="43.59994" lon="1.49176">
        <ele>136.5</ele>
        <time>2000-01-01T02:25:26.000Z</time>
      </trkpt>
      <trkpt lat="43.59989" lon="1.49185">
        <ele>136.7</ele>
        <time>2000-01-01T02:25:36.000Z</time>
      </trkpt>
      <trkpt lat="43.59983" lon="1.49193">
        <ele>117</ele>
        <time>2000-01-01T02:25:46.000Z</time>
      </trkpt>
      <trkpt lat="43.59974" lon="1.49197">
        <ele>137.2</ele>
        <time>2000-01-01T02:25:56.000Z</time>
      </trkpt>
      <trkpt lat="43.59965" lon="1.49206">
        <ele>117</ele>
        <time>2000-01-01T02:26:06.000Z</time>
      </trkpt>
      <trkpt lat="43.59957" lon="1.49213">
        <ele>136.6</ele>
        <time>2000-01-01T02:26:16.000Z</time>
      </trkpt>
      <trkpt lat="43.59949" lon="1.49221">
        <ele>137</ele>
        <time>2000-01-01T02:26:26.000Z</time>
      </trkpt>
      <trkpt lat="43.59943" lon="1.4923">
        <ele>117</ele>
        <time>2000-01-01T02:26:36.000Z</time>
      </trkpt>
      <trkpt lat="43.59935" lon="1.49236">
        <ele>136.6</ele>
        <time>2000-01-01T02:26:46.000Z</time>
      </trkpt>
      <trkpt lat="43.59927" lon="1.49243">
        <ele>136.6</ele>
        <time>2000-01-01T02:26:56.000Z</time>
      </trkpt>
      <trkpt lat="43.59919" lon="1.49249">
        <ele>116</ele>
        <time>2000-01-01T02:27:06.000Z</time>
      </trkpt>
      <trkpt lat="43.59911" lon="1.49257">
        <ele>136.6</ele>
        <time>2000-01-01T02:27:16.000Z</time>
      </trkpt>
      <trkpt lat="43.59903" lon="1.49261">
        <ele>136.2</ele>
        <time>2000-01-01T02:27:26.000Z</time>
      </trkpt>
      <trkpt lat="43.59895" lon="1.49266">
        <ele>115</ele>
        <time>2000-01-01T02:27:36.000Z</time>
      </trkpt>
      <trkpt lat="43.59889" lon="1.49274">
        <ele>137.3</ele>
        <time>2000-01-01T02:27:46.000Z</time>
      </trkpt>
      <trkpt lat="43.5988" lon="1.49277">
        <ele>136.9</ele>
        <time>2000-01-01T02:27:56.000Z</time>
      </trkpt>
      <trkpt lat="43.5987" lon="1.49285">
        <ele>115</ele>
        <time>2000-01-01T02:28:06.000Z</time>
      </trkpt>
      <trkpt lat="43.59863" lon="1.49293">
        <ele>136.7</ele>
        <time>2000-01-01T02:28:16.000Z</time>
      </trkpt>
      <trkpt lat="43.59854" lon="1.493">
        <ele>116</ele>
        <time>2000-01-01T02:28:26.000Z</time>
      </trkpt>
      <trkpt lat="43.59846" lon="1.49305">
        <ele>136.9</ele>
        <time>2000-01-01T02:28:36.000Z</time>
      </trkpt>
      <trkpt lat="43.59837" lon="1.49311">
        <ele>136.6</ele>
        <time>2000-01-01T02:28:46.000Z</time>
      </trkpt>
      <trkpt lat="43.59829" lon="1.4931">
        <ele>118</ele>
        <time>2000-01-01T02:28:56.000Z</time>
      </trkpt>
      <trkpt lat="43.59819" lon="1.49311">
        <ele>135.1</ele>
        <time>2000-01-01T02:29:06.000Z</time>
      </trkpt>
      <trkpt lat="43.59812" lon="1.49318">
        <ele>135.6</ele>
        <time>2000-01-01T02:29:16.000Z</time>
      </trkpt>
      <trkpt lat="43.59804" lon="1.49324">
        <ele>118</ele>
        <time>2000-01-01T02:29:26.000Z</time>
      </trkpt>
      <trkpt lat="43.59797" lon="1.49331">
        <ele>136.5</ele>
        <time>2000-01-01T02:29:36.000Z</time>
      </trkpt>
      <trkpt lat="43.5979" lon="1.49339">
        <ele>136.2</ele>
        <time>2000-01-01T02:29:46.000Z</time>
      </trkpt>
      <trkpt lat="43.59781" lon="1.49346">
        <ele>118</ele>
        <time>2000-01-01T02:29:56.000Z</time>
      </trkpt>
      <trkpt lat="43.59773" lon="1.4935">
        <ele>136.2</ele>
        <time>2000-01-01T02:30:06.000Z</time>
      </trkpt>
      <trkpt lat="43.59763" lon="1.49355">
        <ele>136.6</ele>
        <time>2000-01-01T02:30:16.000Z</time>
      </trkpt>
      <trkpt lat="43.59756" lon="1.4936">
        <ele>117</ele>
        <time>2000-01-01T02:30:26.000Z</time>
      </trkpt>
      <trkpt lat="43.59747" lon="1.49363">
        <ele>136.8</ele>
        <time>2000-01-01T02:30:36.000Z</time>
      </trkpt>
      <trkpt lat="43.5974" lon="1.49368">
        <ele>136.4</ele>
        <time>2000-01-01T02:30:46.000Z</time>
      </trkpt>
      <trkpt lat="43.59731" lon="1.49371">
        <ele>116</ele>
        <time>2000-01-01T02:30:56.000Z</time>
      </trkpt>
      <trkpt lat="43.59722" lon="1.49376">
        <ele>136.1</ele>
        <time>2000-01-01T02:31:06.000Z</time>
      </trkpt>
      <trkpt lat="43.59714" lon="1.4938">
        <ele>136.6</ele>
        <time>2000-01-01T02:31:16.000Z</time>
      </trkpt>
      <trkpt lat="43.59706" lon="1.49383">
        <ele>116</ele>
        <time>2000-01-01T02:31:26.000Z</time>
      </trkpt>
      <trkpt lat="43.59698" lon="1.49389">
        <ele>138</ele>
        <time>2000-01-01T02:31:36.000Z</time>
      </trkpt>
      <trkpt lat="43.5969" lon="1.49392">
        <ele>137.5</ele>
        <time>2000-01-01T02:31:46.000Z</time>
      </trkpt>
      <trkpt lat="43.59682" lon="1.49394">
        <ele>117</ele>
        <time>2000-01-01T02:31:56.000Z</time>
      </trkpt>
      <trkpt lat="43.59673" lon="1.49399">
        <ele>136.4</ele>
        <time>2000-01-01T02:32:06.000Z</time>
      </trkpt>
      <trkpt lat="43.59664" lon="1.49403">
        <ele>136.4</ele>
        <time>2000-01-01T02:32:16.000Z</time>
      </trkpt>
      <trkpt lat="43.59655" lon="1.49408">
        <ele>117</ele>
        <time>2000-01-01T02:32:26.000Z</time>
      </trkpt>
      <trkpt lat="43.59646" lon="1.49415">
        <ele>138</ele>
        <time>2000-01-01T02:32:36.000Z</time>
      </trkpt>
      <trkpt lat="43.59638" lon="1.49417">
        <ele>137.9</ele>
        <time>2000-01-01T02:32:46.000Z</time>
      </trkpt>
      <trkpt lat="43.59629" lon="1.49422">
        <ele>117</ele>
        <time>2000-01-01T02:32:56.000Z</time>
      </trkpt>
      <trkpt lat="43.59618" lon="1.49427">
        <ele>137</ele>
        <time>2000-01-01T02:33:06.000Z</time>
      </trkpt>
      <trkpt lat="43.5961" lon="1.49431">
        <ele>118</ele>
        <time>2000-01-01T02:33:16.000Z</time>
      </trkpt>
      <trkpt lat="43.59601" lon="1.49435">
        <ele>137.2</ele>
        <time>2000-01-01T02:33:26.000Z</time>
      </trkpt>
      <trkpt lat="43.59593" lon="1.4944">
        <ele>137.6</ele>
        <time>2000-01-01T02:33:36.000Z</time>
      </trkpt>
      <trkpt lat="43.59585" lon="1.49444">
        <ele>118</ele>
        <time>2000-01-01T02:33:46.000Z</time>
      </trkpt>
      <trkpt lat="43.59575" lon="1.49444">
        <ele>137</ele>
        <time>2000-01-01T02:33:56.000Z</time>
      </trkpt>
      <trkpt lat="43.59567" lon="1.49445">
        <ele>136.3</ele>
        <time>2000-01-01T02:34:06.000Z</time>
      </trkpt>
      <trkpt lat="43.59558" lon="1.49451">
        <ele>117</ele>
        <time>2000-01-01T02:34:16.000Z</time>
      </trkpt>
      <trkpt lat="43.5955" lon="1.49457">
        <ele>136.6</ele>
        <time>2000-01-01T02:34:26.000Z</time>
      </trkpt>
      <trkpt lat="43.59541" lon="1.49465">
        <ele>114</ele>
        <time>2000-01-01T02:34:36.000Z</time>
      </trkpt>
      <trkpt lat="43.59512" lon="1.49482">
        <ele>114</ele>
        <time>2000-01-01T02:34:46.000Z</time>
      </trkpt>
      <trkpt lat="43.59463" lon="1.49511">
        <ele>114</ele>
        <time>2000-01-01T02:34:56.000Z</time>
      </trkpt>
      <trkpt lat="43.59456" lon="1.4952">
        <ele>139.8</ele>
        <time>2000-01-01T02:35:06.000Z</time>
      </trkpt>
      <trkpt lat="43.59447" lon="1.49521">
        <ele>140</ele>
        <time>2000-01-01T02:35:16.000Z</time>
      </trkpt>
      <trkpt lat="43.59446" lon="1.49533">
        <ele>118</ele>
        <time>2000-01-01T02:35:26.000Z</time>
      </trkpt>
      <trkpt lat="43.59447" lon="1.49547">
        <ele>140.9</ele>
        <time>2000-01-01T02:35:36.000Z</time>
      </trkpt>
      <trkpt lat="43.5945" lon="1.49563">
        <ele>121</ele>
        <time>2000-01-01T02:35:46.000Z</time>
      </trkpt>
      <trkpt lat="43.59451" lon="1.49576">
        <ele>141.3</ele>
        <time>2000-01-01T02:35:56.000Z</time>
      </trkpt>
      <trkpt lat="43.59452" lon="1.49587">
        <ele>141.5</ele>
        <time>2000-01-01T02:36:06.000Z</time>
      </trkpt>
      <trkpt lat="43.59451" lon="1.49601">
        <ele>124</ele>
        <time>2000-01-01T02:36:16.000Z</time>
      </trkpt>
      <trkpt lat="43.5945" lon="1.49614">
        <ele>141.6</ele>
        <time>2000-01-01T02:36:26.000Z</time>
      </trkpt>
      <trkpt lat="43.59449" lon="1.49625">
        <ele>141.8</ele>
        <time>2000-01-01T02:36:36.000Z</time>
      </trkpt>
      <trkpt lat="43.59449" lon="1.49639">
        <ele>128</ele>
        <time>2000-01-01T02:36:46.000Z</time>
      </trkpt>
      <trkpt lat="43.59449" lon="1.49652">
        <ele>141.8</ele>
        <time>2000-01-01T02:36:56.000Z</time>
      </trkpt>
      <trkpt lat="43.59452" lon="1.49666">
        <ele>129</ele>
        <time>2000-01-01T02:37:06.000Z</time>
      </trkpt>
      <trkpt lat="43.59455" lon="1.49679">
        <ele>141.6</ele>
        <time>2000-01-01T02:37:16.000Z</time>
      </trkpt>
      <trkpt lat="43.59459" lon="1.49694">
        <ele>130</ele>
        <time>2000-01-01T02:37:26.000Z</time>
      </trkpt>
      <trkpt lat="43.59463" lon="1.49707">
        <ele>141.3</ele>
        <time>2000-01-01T02:37:36.000Z</time>
      </trkpt>
      <trkpt lat="43.59468" lon="1.49719">
        <ele>132</ele>
        <time>2000-01-01T02:37:46.000Z</time>
      </trkpt>
      <trkpt lat="43.59475" lon="1.49729">
        <ele>141.1</ele>
        <time>2000-01-01T02:37:56.000Z</time>
      </trkpt>
      <trkpt lat="43.5948" lon="1.49738">
        <ele>141.1</ele>
        <time>2000-01-01T02:38:06.000Z</time>
      </trkpt>
      <trkpt lat="43.59485" lon="1.49748">
        <ele>133</ele>
        <time>2000-01-01T02:38:16.000Z</time>
      </trkpt>
      <trkpt lat="43.59489" lon="1.49758">
        <ele>140.8</ele>
        <time>2000-01-01T02:38:26.000Z</time>
      </trkpt>
      <trkpt lat="43.59497" lon="1.49769">
        <ele>140.2</ele>
        <time>2000-01-01T02:38:36.000Z</time>
      </trkpt>
      <trkpt lat="43.59503" lon="1.49776">
        <ele>134</ele>
        <time>2000-01-01T02:38:46.000Z</time>
      </trkpt>
      <trkpt lat="43.5951" lon="1.49783">
        <ele>140</ele>
        <time>2000-01-01T02:38:56.000Z</time>
      </trkpt>
      <trkpt lat="43.59517" lon="1.49794">
        <ele>140</ele>
        <time>2000-01-01T02:39:06.000Z</time>
      </trkpt>
      <trkpt lat="43.59522" lon="1.49806">
        <ele>134</ele>
        <time>2000-01-01T02:39:16.000Z</time>
      </trkpt>
      <trkpt lat="43.59525" lon="1.49817">
        <ele>140</ele>
        <time>2000-01-01T02:39:26.000Z</time>
      </trkpt>
      <trkpt lat="43.59529" lon="1.4983">
        <ele>140</ele>
        <time>2000-01-01T02:39:36.000Z</time>
      </trkpt>
      <trkpt lat="43.59533" lon="1.49844">
        <ele>133</ele>
        <time>2000-01-01T02:39:46.000Z</time>
      </trkpt>
      <trkpt lat="43.59535" lon="1.4986">
        <ele>139.8</ele>
        <time>2000-01-01T02:39:56.000Z</time>
      </trkpt>
      <trkpt lat="43.59535" lon="1.49873">
        <ele>133</ele>
        <time>2000-01-01T02:40:06.000Z</time>
      </trkpt>
      <trkpt lat="43.59531" lon="1.49891">
        <ele>140</ele>
        <time>2000-01-01T02:40:16.000Z</time>
      </trkpt>
      <trkpt lat="43.59532" lon="1.49903">
        <ele>132</ele>
        <time>2000-01-01T02:40:26.000Z</time>
      </trkpt>
      <trkpt lat="43.59535" lon="1.49915">
        <ele>140</ele>
        <time>2000-01-01T02:40:36.000Z</time>
      </trkpt>
      <trkpt lat="43.59537" lon="1.49927">
        <ele>140.7</ele>
        <time>2000-01-01T02:40:46.000Z</time>
      </trkpt>
      <trkpt lat="43.59539" lon="1.49939">
        <ele>130</ele>
        <time>2000-01-01T02:40:56.000Z</time>
      </trkpt>
      <trkpt lat="43.5954" lon="1.49953">
        <ele>141.6</ele>
        <time>2000-01-01T02:41:06.000Z</time>
      </trkpt>
      <trkpt lat="43.59544" lon="1.49966">
        <ele>130</ele>
        <time>2000-01-01T02:41:16.000Z</time>
      </trkpt>
      <trkpt lat="43.59547" lon="1.49978">
        <ele>141.6</ele>
        <time>2000-01-01T02:41:26.000Z</time>
      </trkpt>
      <trkpt lat="43.5955" lon="1.49993">
        <ele>130</ele>
        <time>2000-01-01T02:41:36.000Z</time>
      </trkpt>
      <trkpt lat="43.59553" lon="1.50007">
        <ele>142.7</ele>
        <time>2000-01-01T02:41:46.000Z</time>
      </trkpt>
      <trkpt lat="43.59551" lon="1.50018">
        <ele>142.3</ele>
        <time>2000-01-01T02:41:56.000Z</time>
      </trkpt>
      <trkpt lat="43.59551" lon="1.5003">
        <ele>131</ele>
        <time>2000-01-01T02:42:06.000Z</time>
      </trkpt>
      <trkpt lat="43.5955" lon="1.50041">
        <ele>142</ele>
        <time>2000-01-01T02:42:16.000Z</time>
      </trkpt>
      <trkpt lat="43.59547" lon="1.50053">
        <ele>142</ele>
        <time>2000-01-01T02:42:26.000Z</time>
      </trkpt>
      <trkpt lat="43.59547" lon="1.50066">
        <ele>131</ele>
        <time>2000-01-01T02:42:36.000Z</time>
      </trkpt>
      <trkpt lat="43.59546" lon="1.50079">
        <ele>142.3</ele>
        <time>2000-01-01T02:42:46.000Z</time>
      </trkpt>
      <trkpt lat="43.59544" lon="1.50091">
        <ele>142.5</ele>
        <time>2000-01-01T02:42:56.000Z</time>
      </trkpt>
      <trkpt lat="43.59542" lon="1.50102">
        <ele>131</ele>
        <time>2000-01-01T02:43:06.000Z</time>
      </trkpt>
      <trkpt lat="43.59538" lon="1.50114">
        <ele>142.4</ele>
        <time>2000-01-01T02:43:16.000Z</time>
      </trkpt>
      <trkpt lat="43.59536" lon="1.50127">
        <ele>142.7</ele>
        <time>2000-01-01T02:43:26.000Z</time>
      </trkpt>
      <trkpt lat="43.59535" lon="1.50139">
        <ele>132</ele>
        <time>2000-01-01T02:43:36.000Z</time>
      </trkpt>
      <trkpt lat="43.59535" lon="1.50151">
        <ele>143</ele>
        <time>2000-01-01T02:43:46.000Z</time>
      </trkpt>
      <trkpt lat="43.59533" lon="1.50163">
        <ele>143</ele>
        <time>2000-01-01T02:43:56.000Z</time>
      </trkpt>
      <trkpt lat="43.59532" lon="1.50176">
        <ele>133</ele>
        <time>2000-01-01T02:44:06.000Z</time>
      </trkpt>
      <trkpt lat="43.59532" lon="1.50189">
        <ele>143</ele>
        <time>2000-01-01T02:44:16.000Z</time>
      </trkpt>
      <trkpt lat="43.59531" lon="1.50202">
        <ele>142.8</ele>
        <time>2000-01-01T02:44:26.000Z</time>
      </trkpt>
      <trkpt lat="43.5953" lon="1.50214">
        <ele>134</ele>
        <time>2000-01-01T02:44:36.000Z</time>
      </trkpt>
      <trkpt lat="43.59532" lon="1.50228">
        <ele>142.3</ele>
        <time>2000-01-01T02:44:46.000Z</time>
      </trkpt>
      <trkpt lat="43.59532" lon="1.5024">
        <ele>142.7</ele>
        <time>2000-01-01T02:44:56.000Z</time>
      </trkpt>
      <trkpt lat="43.59531" lon="1.50254">
        <ele>136</ele>
        <time>2000-01-01T02:45:06.000Z</time>
      </trkpt>
      <trkpt lat="43.59527" lon="1.50264">
        <ele>143</ele>
        <time>2000-01-01T02:45:16.000Z</time>
      </trkpt>
      <trkpt lat="43.59523" lon="1.50278">
        <ele>143.2</ele>
        <time>2000-01-01T02:45:26.000Z</time>
      </trkpt>
      <trkpt lat="43.59521" lon="1.50292">
        <ele>136</ele>
        <time>2000-01-01T02:45:36.000Z</time>
      </trkpt>
      <trkpt lat="43.59519" lon="1.50309">
        <ele>144</ele>
        <time>2000-01-01T02:45:46.000Z</time>
      </trkpt>
      <trkpt lat="43.5952" lon="1.50323">
        <ele>137</ele>
        <time>2000-01-01T02:45:56.000Z</time>
      </trkpt>
      <trkpt lat="43.5952" lon="1.50335">
        <ele>144</ele>
        <time>2000-01-01T02:46:06.000Z</time>
      </trkpt>
      <trkpt lat="43.59517" lon="1.50347">
        <ele>144</ele>
        <time>2000-01-01T02:46:16.000Z</time>
      </trkpt>
      <trkpt lat="43.59514" lon="1.5036">
        <ele>138</ele>
        <time>2000-01-01T02:46:26.000Z</time>
      </trkpt>
      <trkpt lat="43.59516" lon="1.50375">
        <ele>144</ele>
        <time>2000-01-01T02:46:36.000Z</time>
      </trkpt>
      <trkpt lat="43.59522" lon="1.50387">
        <ele>138</ele>
        <time>2000-01-01T02:46:46.000Z</time>
      </trkpt>
      <trkpt lat="43.59526" lon="1.50397">
        <ele>144.3</ele>
        <time>2000-01-01T02:46:56.000Z</time>
      </trkpt>
      <trkpt lat="43.59533" lon="1.50407">
        <ele>144.5</ele>
        <time>2000-01-01T02:47:06.000Z</time>
      </trkpt>
      <trkpt lat="43.59541" lon="1.50417">
        <ele>139</ele>
        <time>2000-01-01T02:47:16.000Z</time>
      </trkpt>
      <trkpt lat="43.59548" lon="1.50429">
        <ele>144.3</ele>
        <time>2000-01-01T02:47:26.000Z</time>
      </trkpt>
      <trkpt lat="43.59554" lon="1.50438">
        <ele>139</ele>
        <time>2000-01-01T02:47:36.000Z</time>
      </trkpt>
      <trkpt lat="43.59562" lon="1.50447">
        <ele>144</ele>
        <time>2000-01-01T02:47:46.000Z</time>
      </trkpt>
      <trkpt lat="43.59564" lon="1.50461">
        <ele>139</ele>
        <time>2000-01-01T02:47:56.000Z</time>
      </trkpt>
      <trkpt lat="43.59568" lon="1.50473">
        <ele>144</ele>
        <time>2000-01-01T02:48:06.000Z</time>
      </trkpt>
      <trkpt lat="43.59574" lon="1.50482">
        <ele>144.1</ele>
        <time>2000-01-01T02:48:16.000Z</time>
      </trkpt>
      <trkpt lat="43.5958" lon="1.50491">
        <ele>138</ele>
        <time>2000-01-01T02:48:26.000Z</time>
      </trkpt>
      <trkpt lat="43.59586" lon="1.505">
        <ele>143.9</ele>
        <time>2000-01-01T02:48:36.000Z</time>
      </trkpt>
      <trkpt lat="43.59591" lon="1.5051">
        <ele>144.2</ele>
        <time>2000-01-01T02:48:46.000Z</time>
      </trkpt>
      <trkpt lat="43.59599" lon="1.50518">
        <ele>138</ele>
        <time>2000-01-01T02:48:56.000Z</time>
      </trkpt>
      <trkpt lat="43.59607" lon="1.50527">
        <ele>144.9</ele>
        <time>2000-01-01T02:49:06.000Z</time>
      </trkpt>
      <trkpt lat="43.59615" lon="1.50537">
        <ele>139</ele>
        <time>2000-01-01T02:49:16.000Z</time>
      </trkpt>
      <trkpt lat="43.59621" lon="1.50549">
        <ele>145</ele>
        <time>2000-01-01T02:49:26.000Z</time>
      </trkpt>
      <trkpt lat="43.59626" lon="1.50558">
        <ele>145.1</ele>
        <time>2000-01-01T02:49:36.000Z</time>
      </trkpt>
      <trkpt lat="43.59634" lon="1.50568">
        <ele>139</ele>
        <time>2000-01-01T02:49:46.000Z</time>
      </trkpt>
      <trkpt lat="43.59641" lon="1.50578">
        <ele>145.8</ele>
        <time>2000-01-01T02:49:56.000Z</time>
      </trkpt>
      <trkpt lat="43.59645" lon="1.50588">
        <ele>145.8</ele>
        <time>2000-01-01T02:50:06.000Z</time>
      </trkpt>
      <trkpt lat="43.59653" lon="1.50595">
        <ele>140</ele>
        <time>2000-01-01T02:50:16.000Z</time>
      </trkpt>
      <trkpt lat="43.59664" lon="1.50601">
        <ele>145.7</ele>
        <time>2000-01-01T02:50:26.000Z</time>
      </trkpt>
      <trkpt lat="43.59672" lon="1.50604">
        <ele>141</ele>
        <time>2000-01-01T02:50:36.000Z</time>
      </trkpt>
      <trkpt lat="43.5968" lon="1.50612">
        <ele>145.6</ele>
        <time>2000-01-01T02:50:46.000Z</time>
      </trkpt>
      <trkpt lat="43.59686" lon="1.5062">
        <ele>145.6</ele>
        <time>2000-01-01T02:50:56.000Z</time>
      </trkpt>
      <trkpt lat="43.59694" lon="1.50634">
        <ele>141</ele>
        <time>2000-01-01T02:51:06.000Z</time>
      </trkpt>
      <trkpt lat="43.59699" lon="1.50644">
        <ele>146.2</ele>
        <time>2000-01-01T02:51:16.000Z</time>
      </trkpt>
      <trkpt lat="43.59704" lon="1.50653">
        <ele>146.5</ele>
        <time>2000-01-01T02:51:26.000Z</time>
      </trkpt>
      <trkpt lat="43.59713" lon="1.50661">
        <ele>142</ele>
        <time>2000-01-01T02:51:36.000Z</time>
      </trkpt>
      <trkpt lat="43.5972" lon="1.50673">
        <ele>147.2</ele>
        <time>2000-01-01T02:51:46.000Z</time>
      </trkpt>
      <trkpt lat="43.59727" lon="1.50682">
        <ele>143</ele>
        <time>2000-01-01T02:51:56.000Z</time>
      </trkpt>
      <trkpt lat="43.59735" lon="1.50691">
        <ele>147.5</ele>
        <time>2000-01-01T02:52:06.000Z</time>
      </trkpt>
      <trkpt lat="43.59744" lon="1.50694">
        <ele>143</ele>
        <time>2000-01-01T02:52:16.000Z</time>
      </trkpt>
      <trkpt lat="43.59752" lon="1.50699">
        <ele>147.2</ele>
        <time>2000-01-01T02:52:26.000Z</time>
      </trkpt>
      <trkpt lat="43.59763" lon="1.50703">
        <ele>143</ele>
        <time>2000-01-01T02:52:36.000Z</time>
      </trkpt>
      <trkpt lat="43.59771" lon="1.50705">
        <ele>147.4</ele>
        <time>2000-01-01T02:52:46.000Z</time>
      </trkpt>
      <trkpt lat="43.5978" lon="1.50709">
        <ele>147.7</ele>
        <time>2000-01-01T02:52:56.000Z</time>
      </trkpt>
      <trkpt lat="43.59788" lon="1.50717">
        <ele>143</ele>
        <time>2000-01-01T02:53:06.000Z</time>
      </trkpt>
      <trkpt lat="43.59796" lon="1.50719">
        <ele>148.8</ele>
        <time>2000-01-01T02:53:16.000Z</time>
      </trkpt>
      <trkpt lat="43.59806" lon="1.50725">
        <ele>149</ele>
        <time>2000-01-01T02:53:26.000Z</time>
      </trkpt>
      <trkpt lat="43.59813" lon="1.50733">
        <ele>144</ele>
        <time>2000-01-01T02:53:36.000Z</time>
      </trkpt>
      <trkpt lat="43.59823" lon="1.5074">
        <ele>150.1</ele>
        <time>2000-01-01T02:53:46.000Z</time>
      </trkpt>
      <trkpt lat="43.59833" lon="1.50745">
        <ele>146</ele>
        <time>2000-01-01T02:53:56.000Z</time>
      </trkpt>
      <trkpt lat="43.59841" lon="1.50754">
        <ele>151.4</ele>
        <time>2000-01-01T02:54:06.000Z</time>
      </trkpt>
      <trkpt lat="43.59849" lon="1.50762">
        <ele>149</ele>
        <time>2000-01-01T02:54:16.000Z</time>
      </trkpt>
      <trkpt lat="43.59853" lon="1.50773">
        <ele>152.6</ele>
        <time>2000-01-01T02:54:26.000Z</time>
      </trkpt>
      <trkpt lat="43.59861" lon="1.50774">
        <ele>153.3</ele>
        <time>2000-01-01T02:54:36.000Z</time>
      </trkpt>
      <trkpt lat="43.59869" lon="1.50777">
        <ele>150</ele>
        <time>2000-01-01T02:54:46.000Z</time>
      </trkpt>
      <trkpt lat="43.59878" lon="1.50781">
        <ele>156.6</ele>
        <time>2000-01-01T02:54:56.000Z</time>
      </trkpt>
      <trkpt lat="43.59885" lon="1.50791">
        <ele>151</ele>
        <time>2000-01-01T02:55:06.000Z</time>
      </trkpt>
      <trkpt lat="43.59893" lon="1.508">
        <ele>157.9</ele>
        <time>2000-01-01T02:55:16.000Z</time>
      </trkpt>
      <trkpt lat="43.599" lon="1.50807">
        <ele>158.2</ele>
        <time>2000-01-01T02:55:26.000Z</time>
      </trkpt>
      <trkpt lat="43.59906" lon="1.50815">
        <ele>155</ele>
        <time>2000-01-01T02:55:36.000Z</time>
      </trkpt>
      <trkpt lat="43.59915" lon="1.50821">
        <ele>158.8</ele>
        <time>2000-01-01T02:55:46.000Z</time>
      </trkpt>
      <trkpt lat="43.59923" lon="1.50829">
        <ele>154</ele>
        <time>2000-01-01T02:55:56.000Z</time>
      </trkpt>
      <trkpt lat="43.59932" lon="1.50837">
        <ele>159.5</ele>
        <time>2000-01-01T02:56:06.000Z</time>
      </trkpt>
      <trkpt lat="43.59938" lon="1.50848">
        <ele>153</ele>
        <time>2000-01-01T02:56:16.000Z</time>
      </trkpt>
      <trkpt lat="43.59942" lon="1.50861">
        <ele>158.8</ele>
        <time>2000-01-01T02:56:26.000Z</time>
      </trkpt>
      <trkpt lat="43.59947" lon="1.50874">
        <ele>153</ele>
        <time>2000-01-01T02:56:36.000Z</time>
      </trkpt>
      <trkpt lat="43.59954" lon="1.50883">
        <ele>157.8</ele>
        <time>2000-01-01T02:56:46.000Z</time>
      </trkpt>
      <trkpt lat="43.5996" lon="1.50891">
        <ele>157.5</ele>
        <time>2000-01-01T02:56:56.000Z</time>
      </trkpt>
      <trkpt lat="43.59967" lon="1.50897">
        <ele>153</ele>
        <time>2000-01-01T02:57:06.000Z</time>
      </trkpt>
      <trkpt lat="43.59978" lon="1.50899">
        <ele>157.3</ele>
        <time>2000-01-01T02:57:16.000Z</time>
      </trkpt>
      <trkpt lat="43.59987" lon="1.50899">
        <ele>153</ele>
        <time>2000-01-01T02:57:26.000Z</time>
      </trkpt>
      <trkpt lat="43.59996" lon="1.50903">
        <ele>157.4</ele>
        <time>2000-01-01T02:57:36.000Z</time>
      </trkpt>
      <trkpt lat="43.60007" lon="1.5091">
        <ele>153</ele>
        <time>2000-01-01T02:57:46.000Z</time>
      </trkpt>
      <trkpt lat="43.60017" lon="1.50907">
        <ele>158</ele>
        <time>2000-01-01T02:57:56.000Z</time>
      </trkpt>
      <trkpt lat="43.60027" lon="1.50908">
        <ele>150</ele>
        <time>2000-01-01T02:58:06.000Z</time>
      </trkpt>
      <trkpt lat="43.60035" lon="1.50913">
        <ele>158.2</ele>
        <time>2000-01-01T02:58:16.000Z</time>
      </trkpt>
      <trkpt lat="43.60045" lon="1.50914">
        <ele>158.2</ele>
        <time>2000-01-01T02:58:26.000Z</time>
      </trkpt>
      <trkpt lat="43.60053" lon="1.50917">
        <ele>150</ele>
        <time>2000-01-01T02:58:36.000Z</time>
      </trkpt>
      <trkpt lat="43.60063" lon="1.50921">
        <ele>158</ele>
        <time>2000-01-01T02:58:46.000Z</time>
      </trkpt>
      <trkpt lat="43.60072" lon="1.50924">
        <ele>157.8</ele>
        <time>2000-01-01T02:58:56.000Z</time>
      </trkpt>
      <trkpt lat="43.6008" lon="1.50929">
        <ele>149</ele>
        <time>2000-01-01T02:59:06.000Z</time>
      </trkpt>
      <trkpt lat="43.60088" lon="1.50934">
        <ele>157.2</ele>
        <time>2000-01-01T02:59:16.000Z</time>
      </trkpt>
      <trkpt lat="43.60095" lon="1.5094">
        <ele>156.7</ele>
        <time>2000-01-01T02:59:26.000Z</time>
      </trkpt>
      <trkpt lat="43.60104" lon="1.50944">
        <ele>149</ele>
        <time>2000-01-01T02:59:36.000Z</time>
      </trkpt>
      <trkpt lat="43.60112" lon="1.50953">
        <ele>156.3</ele>
        <time>2000-01-01T02:59:46.000Z</time>
      </trkpt>
      <trkpt lat="43.6012" lon="1.50959">
        <ele>147</ele>
        <time>2000-01-01T02:59:56.000Z</time>
      </trkpt>
      <trkpt lat="43.60129" lon="1.50964">
        <ele>155.6</ele>
        <time>2000-01-01T03:00:06.000Z</time>
      </trkpt>
      <trkpt lat="43.60137" lon="1.50968">
        <ele>155.1</ele>
        <time>2000-01-01T03:00:16.000Z</time>
      </trkpt>
      <trkpt lat="43.60145" lon="1.50973">
        <ele>146</ele>
        <time>2000-01-01T03:00:26.000Z</time>
      </trkpt>
      <trkpt lat="43.60153" lon="1.50981">
        <ele>154.6</ele>
        <time>2000-01-01T03:00:36.000Z</time>
      </trkpt>
      <trkpt lat="43.60159" lon="1.5099">
        <ele>154.5</ele>
        <time>2000-01-01T03:00:46.000Z</time>
      </trkpt>
      <trkpt lat="43.60165" lon="1.51001">
        <ele>145</ele>
        <time>2000-01-01T03:00:56.000Z</time>
      </trkpt>
      <trkpt lat="43.60167" lon="1.51012">
        <ele>154.4</ele>
        <time>2000-01-01T03:01:06.000Z</time>
      </trkpt>
      <trkpt lat="43.60169" lon="1.51027">
        <ele>154.9</ele>
        <time>2000-01-01T03:01:16.000Z</time>
      </trkpt>
      <trkpt lat="43.60169" lon="1.51041">
        <ele>143</ele>
        <time>2000-01-01T03:01:26.000Z</time>
      </trkpt>
      <trkpt lat="43.60171" lon="1.51051">
        <ele>154.7</ele>
        <time>2000-01-01T03:01:36.000Z</time>
      </trkpt>
      <trkpt lat="43.60174" lon="1.51067">
        <ele>143</ele>
        <time>2000-01-01T03:01:46.000Z</time>
      </trkpt>
      <trkpt lat="43.60176" lon="1.51078">
        <ele>153.8</ele>
        <time>2000-01-01T03:01:56.000Z</time>
      </trkpt>
      <trkpt lat="43.60177" lon="1.5109">
        <ele>154</ele>
        <time>2000-01-01T03:02:06.000Z</time>
      </trkpt>
      <trkpt lat="43.60178" lon="1.51105">
        <ele>143</ele>
        <time>2000-01-01T03:02:16.000Z</time>
      </trkpt>
      <trkpt lat="43.60179" lon="1.51116">
        <ele>155</ele>
        <time>2000-01-01T03:02:26.000Z</time>
      </trkpt>
      <trkpt lat="43.60181" lon="1.51128">
        <ele>155</ele>
        <time>2000-01-01T03:02:36.000Z</time>
      </trkpt>
      <trkpt lat="43.60181" lon="1.51142">
        <ele>143</ele>
        <time>2000-01-01T03:02:46.000Z</time>
      </trkpt>
      <trkpt lat="43.60182" lon="1.51155">
        <ele>155</ele>
        <time>2000-01-01T03:02:56.000Z</time>
      </trkpt>
      <trkpt lat="43.60182" lon="1.51169">
        <ele>144</ele>
        <time>2000-01-01T03:03:06.000Z</time>
      </trkpt>
      <trkpt lat="43.6018" lon="1.5118">
        <ele>155.2</ele>
        <time>2000-01-01T03:03:16.000Z</time>
      </trkpt>
      <trkpt lat="43.60178" lon="1.51192">
        <ele>155.4</ele>
        <time>2000-01-01T03:03:26.000Z</time>
      </trkpt>
      <trkpt lat="43.60181" lon="1.51204">
        <ele>144</ele>
        <time>2000-01-01T03:03:36.000Z</time>
      </trkpt>
      <trkpt lat="43.6019" lon="1.51209">
        <ele>155.8</ele>
        <time>2000-01-01T03:03:46.000Z</time>
      </trkpt>
      <trkpt lat="43.60196" lon="1.5122">
        <ele>145</ele>
        <time>2000-01-01T03:03:56.000Z</time>
      </trkpt>
      <trkpt lat="43.60195" lon="1.51232">
        <ele>156.8</ele>
        <time>2000-01-01T03:04:06.000Z</time>
      </trkpt>
      <trkpt lat="43.60194" lon="1.51247">
        <ele>145</ele>
        <time>2000-01-01T03:04:16.000Z</time>
      </trkpt>
      <trkpt lat="43.60193" lon="1.51258">
        <ele>158.2</ele>
        <time>2000-01-01T03:04:26.000Z</time>
      </trkpt>
      <trkpt lat="43.60193" lon="1.5127">
        <ele>158.6</ele>
        <time>2000-01-01T03:04:36.000Z</time>
      </trkpt>
      <trkpt lat="43.60194" lon="1.51283">
        <ele>146</ele>
        <time>2000-01-01T03:04:46.000Z</time>
      </trkpt>
      <trkpt lat="43.60195" lon="1.51298">
        <ele>159.8</ele>
        <time>2000-01-01T03:04:56.000Z</time>
      </trkpt>
      <trkpt lat="43.60194" lon="1.51313">
        <ele>147</ele>
        <time>2000-01-01T03:05:06.000Z</time>
      </trkpt>
      <trkpt lat="43.60196" lon="1.51325">
        <ele>159.6</ele>
        <time>2000-01-01T03:05:16.000Z</time>
      </trkpt>
      <trkpt lat="43.60195" lon="1.51339">
        <ele>158.9</ele>
        <time>2000-01-01T03:05:26.000Z</time>
      </trkpt>
      <trkpt lat="43.60194" lon="1.51352">
        <ele>148</ele>
        <time>2000-01-01T03:05:36.000Z</time>
      </trkpt>
      <trkpt lat="43.60193" lon="1.51364">
        <ele>157.7</ele>
        <time>2000-01-01T03:05:46.000Z</time>
      </trkpt>
      <trkpt lat="43.60193" lon="1.51377">
        <ele>156.8</ele>
        <time>2000-01-01T03:05:56.000Z</time>
      </trkpt>
      <trkpt lat="43.60193" lon="1.51389">
        <ele>149</ele>
        <time>2000-01-01T03:06:06.000Z</time>
      </trkpt>
      <trkpt lat="43.602" lon="1.514">
        <ele>156.9</ele>
        <time>2000-01-01T03:06:16.000Z</time>
      </trkpt>
      <trkpt lat="43.6021" lon="1.51404">
        <ele>149</ele>
        <time>2000-01-01T03:06:26.000Z</time>
      </trkpt>
      <trkpt lat="43.60221" lon="1.51402">
        <ele>160.3</ele>
        <time>2000-01-01T03:06:36.000Z</time>
      </trkpt>
      <trkpt lat="43.60229" lon="1.51405">
        <ele>162</ele>
        <time>2000-01-01T03:06:46.000Z</time>
      </trkpt>
      <trkpt lat="43.60237" lon="1.51403">
        <ele>152</ele>
        <time>2000-01-01T03:06:56.000Z</time>
      </trkpt>
      <trkpt lat="43.60246" lon="1.51405">
        <ele>165.9</ele>
        <time>2000-01-01T03:07:06.000Z</time>
      </trkpt>
      <trkpt lat="43.60255" lon="1.51402">
        <ele>168.1</ele>
        <time>2000-01-01T03:07:16.000Z</time>
      </trkpt>
      <trkpt lat="43.60263" lon="1.514">
        <ele>156</ele>
        <time>2000-01-01T03:07:26.000Z</time>
      </trkpt>
      <trkpt lat="43.60271" lon="1.51401">
        <ele>171.7</ele>
        <time>2000-01-01T03:07:36.000Z</time>
      </trkpt>
      <trkpt lat="43.6028" lon="1.51395">
        <ele>173.8</ele>
        <time>2000-01-01T03:07:46.000Z</time>
      </trkpt>
      <trkpt lat="43.60288" lon="1.5139">
        <ele>157</ele>
        <time>2000-01-01T03:07:56.000Z</time>
      </trkpt>
      <trkpt lat="43.60298" lon="1.51384">
        <ele>176.4</ele>
        <time>2000-01-01T03:08:06.000Z</time>
      </trkpt>
      <trkpt lat="43.60306" lon="1.5138">
        <ele>177.3</ele>
        <time>2000-01-01T03:08:16.000Z</time>
      </trkpt>
      <trkpt lat="43.60314" lon="1.51378">
        <ele>161</ele>
        <time>2000-01-01T03:08:26.000Z</time>
      </trkpt>
      <trkpt lat="43.60323" lon="1.51385">
        <ele>177.8</ele>
        <time>2000-01-01T03:08:36.000Z</time>
      </trkpt>
      <trkpt lat="43.60331" lon="1.51391">
        <ele>177.8</ele>
        <time>2000-01-01T03:08:46.000Z</time>
      </trkpt>
      <trkpt lat="43.60339" lon="1.514">
        <ele>164</ele>
        <time>2000-01-01T03:08:56.000Z</time>
      </trkpt>
      <trkpt lat="43.60343" lon="1.51409">
        <ele>176.6</ele>
        <time>2000-01-01T03:09:06.000Z</time>
      </trkpt>
      <trkpt lat="43.60347" lon="1.51419">
        <ele>175.9</ele>
        <time>2000-01-01T03:09:16.000Z</time>
      </trkpt>
      <trkpt lat="43.60339" lon="1.5143">
        <ele>164.5</ele>
        <time>2000-01-01T03:09:26.000Z</time>
      </trkpt>
      <trkpt lat="43.60333" lon="1.51443">
        <ele>174.1</ele>
        <time>2000-01-01T03:09:36.000Z</time>
      </trkpt>
      <trkpt lat="43.60328" lon="1.51452">
        <ele>164.2</ele>
        <time>2000-01-01T03:09:46.000Z</time>
      </trkpt>
      <trkpt lat="43.60322" lon="1.51463">
        <ele>172.7</ele>
        <time>2000-01-01T03:09:56.000Z</time>
      </trkpt>
      <trkpt lat="43.60314" lon="1.5147">
        <ele>171.7</ele>
        <time>2000-01-01T03:10:06.000Z</time>
      </trkpt>
      <trkpt lat="43.60306" lon="1.51482">
        <ele>164</ele>
        <time>2000-01-01T03:10:16.000Z</time>
      </trkpt>
      <trkpt lat="43.60298" lon="1.51492">
        <ele>168.5</ele>
        <time>2000-01-01T03:10:26.000Z</time>
      </trkpt>
      <trkpt lat="43.60295" lon="1.51503">
        <ele>161</ele>
        <time>2000-01-01T03:10:36.000Z</time>
      </trkpt>
      <trkpt lat="43.6029" lon="1.51515">
        <ele>165.7</ele>
        <time>2000-01-01T03:10:46.000Z</time>
      </trkpt>
      <trkpt lat="43.60286" lon="1.51525">
        <ele>164.4</ele>
        <time>2000-01-01T03:10:56.000Z</time>
      </trkpt>
      <trkpt lat="43.60281" lon="1.51536">
        <ele>160</ele>
        <time>2000-01-01T03:11:06.000Z</time>
      </trkpt>
      <trkpt lat="43.60276" lon="1.5155">
        <ele>162</ele>
        <time>2000-01-01T03:11:16.000Z</time>
      </trkpt>
      <trkpt lat="43.60272" lon="1.5156">
        <ele>156</ele>
        <time>2000-01-01T03:11:26.000Z</time>
      </trkpt>
      <trkpt lat="43.60268" lon="1.51571">
        <ele>160.6</ele>
        <time>2000-01-01T03:11:36.000Z</time>
      </trkpt>
      <trkpt lat="43.60263" lon="1.5158">
        <ele>160</ele>
        <time>2000-01-01T03:11:46.000Z</time>
      </trkpt>
      <trkpt lat="43.60262" lon="1.51593">
        <ele>155</ele>
        <time>2000-01-01T03:11:56.000Z</time>
      </trkpt>
      <trkpt lat="43.60267" lon="1.51603">
        <ele>159.5</ele>
        <time>2000-01-01T03:12:06.000Z</time>
      </trkpt>
      <trkpt lat="43.60272" lon="1.51617">
        <ele>154</ele>
        <time>2000-01-01T03:12:16.000Z</time>
      </trkpt>
      <trkpt lat="43.60277" lon="1.51628">
        <ele>159.4</ele>
        <time>2000-01-01T03:12:26.000Z</time>
      </trkpt>
      <trkpt lat="43.6028" lon="1.51645">
        <ele>153</ele>
        <time>2000-01-01T03:12:36.000Z</time>
      </trkpt>
      <trkpt lat="43.60286" lon="1.51655">
        <ele>159.7</ele>
        <time>2000-01-01T03:12:46.000Z</time>
      </trkpt>
      <trkpt lat="43.60292" lon="1.51662">
        <ele>160.1</ele>
        <time>2000-01-01T03:12:56.000Z</time>
      </trkpt>
      <trkpt lat="43.60301" lon="1.51669">
        <ele>153</ele>
        <time>2000-01-01T03:13:06.000Z</time>
      </trkpt>
      <trkpt lat="43.60309" lon="1.51669">
        <ele>161.3</ele>
        <time>2000-01-01T03:13:16.000Z</time>
      </trkpt>
      <trkpt lat="43.60318" lon="1.51664">
        <ele>162.4</ele>
        <time>2000-01-01T03:13:26.000Z</time>
      </trkpt>
      <trkpt lat="43.60326" lon="1.51666">
        <ele>154</ele>
        <time>2000-01-01T03:13:36.000Z</time>
      </trkpt>
      <trkpt lat="43.60332" lon="1.5166">
        <ele>164.1</ele>
        <time>2000-01-01T03:13:46.000Z</time>
      </trkpt>
      <trkpt lat="43.60339" lon="1.51652">
        <ele>164.8</ele>
        <time>2000-01-01T03:13:56.000Z</time>
      </trkpt>
      <trkpt lat="43.6035" lon="1.51652">
        <ele>157</ele>
        <time>2000-01-01T03:14:06.000Z</time>
      </trkpt>
      <trkpt lat="43.6036" lon="1.51654">
        <ele>165.9</ele>
        <time>2000-01-01T03:14:16.000Z</time>
      </trkpt>
      <trkpt lat="43.60367" lon="1.5165">
        <ele>166</ele>
        <time>2000-01-01T03:14:26.000Z</time>
      </trkpt>
      <trkpt lat="43.60369" lon="1.51637">
        <ele>161</ele>
        <time>2000-01-01T03:14:36.000Z</time>
      </trkpt>
      <trkpt lat="43.60373" lon="1.51624">
        <ele>168.1</ele>
        <time>2000-01-01T03:14:46.000Z</time>
      </trkpt>
      <trkpt lat="43.60381" lon="1.51617">
        <ele>169.5</ele>
        <time>2000-01-01T03:14:56.000Z</time>
      </trkpt>
      <trkpt lat="43.6039" lon="1.51614">
        <ele>161</ele>
        <time>2000-01-01T03:15:06.000Z</time>
      </trkpt>
      <trkpt lat="43.60397" lon="1.5161">
        <ele>171.7</ele>
        <time>2000-01-01T03:15:16.000Z</time>
      </trkpt>
      <trkpt lat="43.60406" lon="1.5161">
        <ele>172.3</ele>
        <time>2000-01-01T03:15:26.000Z</time>
      </trkpt>
      <trkpt lat="43.60414" lon="1.51618">
        <ele>164</ele>
        <time>2000-01-01T03:15:36.000Z</time>
      </trkpt>
      <trkpt lat="43.60417" lon="1.51628">
        <ele>171.8</ele>
        <time>2000-01-01T03:15:46.000Z</time>
      </trkpt>
      <trkpt lat="43.60419" lon="1.51645">
        <ele>164.5</ele>
        <time>2000-01-01T03:15:56.000Z</time>
      </trkpt>
      <trkpt lat="43.6042" lon="1.51657">
        <ele>171.4</ele>
        <time>2000-01-01T03:16:06.000Z</time>
      </trkpt>
      <trkpt lat="43.60421" lon="1.5167">
        <ele>171.8</ele>
        <time>2000-01-01T03:16:16.000Z</time>
      </trkpt>
      <trkpt lat="43.60423" lon="1.51682">
        <ele>163.7</ele>
        <time>2000-01-01T03:16:26.000Z</time>
      </trkpt>
      <trkpt lat="43.60425" lon="1.51694">
        <ele>173.9</ele>
        <time>2000-01-01T03:16:36.000Z</time>
      </trkpt>
      <trkpt lat="43.60426" lon="1.51706">
        <ele>174.6</ele>
        <time>2000-01-01T03:16:46.000Z</time>
      </trkpt>
      <trkpt lat="43.60427" lon="1.51719">
        <ele>163</ele>
        <time>2000-01-01T03:16:56.000Z</time>
      </trkpt>
      <trkpt lat="43.60429" lon="1.51733">
        <ele>175.8</ele>
        <time>2000-01-01T03:17:06.000Z</time>
      </trkpt>
      <trkpt lat="43.60433" lon="1.51743">
        <ele>176.4</ele>
        <time>2000-01-01T03:17:16.000Z</time>
      </trkpt>
      <trkpt lat="43.60436" lon="1.51753">
        <ele>163.5</ele>
        <time>2000-01-01T03:17:26.000Z</time>
      </trkpt>
      <trkpt lat="43.6044" lon="1.51764">
        <ele>177.2</ele>
        <time>2000-01-01T03:17:36.000Z</time>
      </trkpt>
      <trkpt lat="43.60444" lon="1.51776">
        <ele>177.9</ele>
        <time>2000-01-01T03:17:46.000Z</time>
      </trkpt>
      <trkpt lat="43.60451" lon="1.51786">
        <ele>163.2</ele>
        <time>2000-01-01T03:17:56.000Z</time>
      </trkpt>
      <trkpt lat="43.60455" lon="1.51798">
        <ele>179.7</ele>
        <time>2000-01-01T03:18:06.000Z</time>
      </trkpt>
      <trkpt lat="43.60457" lon="1.5181">
        <ele>179.3</ele>
        <time>2000-01-01T03:18:16.000Z</time>
      </trkpt>
      <trkpt lat="43.60466" lon="1.51818">
        <ele>164.6</ele>
        <time>2000-01-01T03:18:26.000Z</time>
      </trkpt>
      <trkpt lat="43.60471" lon="1.51827">
        <ele>180.2</ele>
        <time>2000-01-01T03:18:36.000Z</time>
      </trkpt>
      <trkpt lat="43.60479" lon="1.51831">
        <ele>181.3</ele>
        <time>2000-01-01T03:18:46.000Z</time>
      </trkpt>
      <trkpt lat="43.60484" lon="1.5184">
        <ele>166</ele>
        <time>2000-01-01T03:18:56.000Z</time>
      </trkpt>
      <trkpt lat="43.60489" lon="1.51851">
        <ele>182.1</ele>
        <time>2000-01-01T03:19:06.000Z</time>
      </trkpt>
      <trkpt lat="43.60494" lon="1.51862">
        <ele>182.7</ele>
        <time>2000-01-01T03:19:16.000Z</time>
      </trkpt>
      <trkpt lat="43.60503" lon="1.51862">
        <ele>167</ele>
        <time>2000-01-01T03:19:26.000Z</time>
      </trkpt>
      <trkpt lat="43.60506" lon="1.51873">
        <ele>184.4</ele>
        <time>2000-01-01T03:19:36.000Z</time>
      </trkpt>
      <trkpt lat="43.60505" lon="1.51885">
        <ele>184.4</ele>
        <time>2000-01-01T03:19:46.000Z</time>
      </trkpt>
      <trkpt lat="43.60497" lon="1.51891">
        <ele>171</ele>
        <time>2000-01-01T03:19:56.000Z</time>
      </trkpt>
      <trkpt lat="43.60489" lon="1.519">
        <ele>181.4</ele>
        <time>2000-01-01T03:20:06.000Z</time>
      </trkpt>
      <trkpt lat="43.60481" lon="1.51905">
        <ele>179.7</ele>
        <time>2000-01-01T03:20:16.000Z</time>
      </trkpt>
      <trkpt lat="43.60472" lon="1.51909">
        <ele>171</ele>
        <time>2000-01-01T03:20:26.000Z</time>
      </trkpt>
      <trkpt lat="43.60464" lon="1.51913">
        <ele>175.7</ele>
        <time>2000-01-01T03:20:36.000Z</time>
      </trkpt>
      <trkpt lat="43.6046" lon="1.51924">
        <ele>174.2</ele>
        <time>2000-01-01T03:20:46.000Z</time>
      </trkpt>
      <trkpt lat="43.60454" lon="1.51935">
        <ele>171</ele>
        <time>2000-01-01T03:20:56.000Z</time>
      </trkpt>
      <trkpt lat="43.60446" lon="1.51942">
        <ele>169.5</ele>
        <time>2000-01-01T03:21:06.000Z</time>
      </trkpt>
      <trkpt lat="43.60439" lon="1.51948">
        <ele>167.8</ele>
        <time>2000-01-01T03:21:16.000Z</time>
      </trkpt>
      <trkpt lat="43.6043" lon="1.51954">
        <ele>167</ele>
        <time>2000-01-01T03:21:26.000Z</time>
      </trkpt>
      <trkpt lat="43.60426" lon="1.51937">
        <ele>165.1</ele>
        <time>2000-01-01T03:21:36.000Z</time>
      </trkpt>
      <trkpt lat="43.60419" lon="1.51944">
        <ele>163</ele>
        <time>2000-01-01T03:21:46.000Z</time>
      </trkpt>
      <trkpt lat="43.60411" lon="1.51953">
        <ele>162.9</ele>
        <time>2000-01-01T03:21:56.000Z</time>
      </trkpt>
      <trkpt lat="43.6041" lon="1.51966">
        <ele>163</ele>
        <time>2000-01-01T03:22:06.000Z</time>
      </trkpt>
      <trkpt lat="43.60414" lon="1.51979">
        <ele>163.5</ele>
        <time>2000-01-01T03:22:16.000Z</time>
      </trkpt>
      <trkpt lat="43.60418" lon="1.51993">
        <ele>162</ele>
        <time>2000-01-01T03:22:26.000Z</time>
      </trkpt>
      <trkpt lat="43.60425" lon="1.52001">
        <ele>166.2</ele>
        <time>2000-01-01T03:22:36.000Z</time>
      </trkpt>
      <trkpt lat="43.60431" lon="1.52009">
        <ele>167.2</ele>
        <time>2000-01-01T03:22:46.000Z</time>
      </trkpt>
      <trkpt lat="43.6043" lon="1.52022">
        <ele>162</ele>
        <time>2000-01-01T03:22:56.000Z</time>
      </trkpt>
      <trkpt lat="43.60428" lon="1.52034">
        <ele>167.3</ele>
        <time>2000-01-01T03:23:06.000Z</time>
      </trkpt>
      <trkpt lat="43.6043" lon="1.52046">
        <ele>167.8</ele>
        <time>2000-01-01T03:23:16.000Z</time>
      </trkpt>
      <trkpt lat="43.60434" lon="1.52058">
        <ele>162.5</ele>
        <time>2000-01-01T03:23:26.000Z</time>
      </trkpt>
      <trkpt lat="43.60436" lon="1.52071">
        <ele>169</ele>
        <time>2000-01-01T03:23:36.000Z</time>
      </trkpt>
      <trkpt lat="43.60438" lon="1.52088">
        <ele>162.2</ele>
        <time>2000-01-01T03:23:46.000Z</time>
      </trkpt>
      <trkpt lat="43.60444" lon="1.52096">
        <ele>170.4</ele>
        <time>2000-01-01T03:23:56.000Z</time>
      </trkpt>
      <trkpt lat="43.60446" lon="1.52108">
        <ele>171.2</ele>
        <time>2000-01-01T03:24:06.000Z</time>
      </trkpt>
      <trkpt lat="43.60444" lon="1.5212">
        <ele>162</ele>
        <time>2000-01-01T03:24:16.000Z</time>
      </trkpt>
      <trkpt lat="43.60443" lon="1.52132">
        <ele>170.9</ele>
        <time>2000-01-01T03:24:26.000Z</time>
      </trkpt>
      <trkpt lat="43.60442" lon="1.52144">
        <ele>171</ele>
        <time>2000-01-01T03:24:36.000Z</time>
      </trkpt>
      <trkpt lat="43.60441" lon="1.52156">
        <ele>160</ele>
        <time>2000-01-01T03:24:46.000Z</time>
      </trkpt>
      <trkpt lat="43.60441" lon="1.5217">
        <ele>171.9</ele>
        <time>2000-01-01T03:24:56.000Z</time>
      </trkpt>
      <trkpt lat="43.60444" lon="1.52181">
        <ele>172.5</ele>
        <time>2000-01-01T03:25:06.000Z</time>
      </trkpt>
      <trkpt lat="43.60442" lon="1.52195">
        <ele>158</ele>
        <time>2000-01-01T03:25:16.000Z</time>
      </trkpt>
      <trkpt lat="43.60438" lon="1.52208">
        <ele>173</ele>
        <time>2000-01-01T03:25:26.000Z</time>
      </trkpt>
      <trkpt lat="43.60436" lon="1.52219">
        <ele>173.3</ele>
        <time>2000-01-01T03:25:36.000Z</time>
      </trkpt>
      <trkpt lat="43.60434" lon="1.52231">
        <ele>158</ele>
        <time>2000-01-01T03:25:46.000Z</time>
      </trkpt>
      <trkpt lat="43.60434" lon="1.52243">
        <ele>173.7</ele>
        <time>2000-01-01T03:25:56.000Z</time>
      </trkpt>
      <trkpt lat="43.60429" lon="1.52254">
        <ele>173.3</ele>
        <time>2000-01-01T03:26:06.000Z</time>
      </trkpt>
      <trkpt lat="43.60429" lon="1.52269">
        <ele>157</ele>
        <time>2000-01-01T03:26:16.000Z</time>
      </trkpt>
      <trkpt lat="43.60427" lon="1.52282">
        <ele>172.9</ele>
        <time>2000-01-01T03:26:26.000Z</time>
      </trkpt>
      <trkpt lat="43.60427" lon="1.52295">
        <ele>172.1</ele>
        <time>2000-01-01T03:26:36.000Z</time>
      </trkpt>
      <trkpt lat="43.6042" lon="1.52304">
        <ele>157</ele>
        <time>2000-01-01T03:26:46.000Z</time>
      </trkpt>
      <trkpt lat="43.60412" lon="1.52307">
        <ele>169.7</ele>
        <time>2000-01-01T03:26:56.000Z</time>
      </trkpt>
      <trkpt lat="43.60403" lon="1.52308">
        <ele>169.2</ele>
        <time>2000-01-01T03:27:06.000Z</time>
      </trkpt>
      <trkpt lat="43.60399" lon="1.52318">
        <ele>157</ele>
        <time>2000-01-01T03:27:16.000Z</time>
      </trkpt>
      <trkpt lat="43.60393" lon="1.52325">
        <ele>167</ele>
        <time>2000-01-01T03:27:26.000Z</time>
      </trkpt>
      <trkpt lat="43.60384" lon="1.52332">
        <ele>167</ele>
        <time>2000-01-01T03:27:36.000Z</time>
      </trkpt>
      <trkpt lat="43.60322" lon="1.52433">
        <ele>157</ele>
        <time>2000-01-01T03:27:46.000Z</time>
      </trkpt>
      <trkpt lat="43.60321" lon="1.52449">
        <ele>170.6</ele>
        <time>2000-01-01T03:27:56.000Z</time>
      </trkpt>
      <trkpt lat="43.60315" lon="1.52459">
        <ele>157</ele>
        <time>2000-01-01T03:28:06.000Z</time>
      </trkpt>
      <trkpt lat="43.60307" lon="1.52473">
        <ele>171.1</ele>
        <time>2000-01-01T03:28:16.000Z</time>
      </trkpt>
      <trkpt lat="43.60304" lon="1.52483">
        <ele>157</ele>
        <time>2000-01-01T03:28:26.000Z</time>
      </trkpt>
      <trkpt lat="43.60298" lon="1.52494">
        <ele>172.1</ele>
        <time>2000-01-01T03:28:36.000Z</time>
      </trkpt>
      <trkpt lat="43.60294" lon="1.52506">
        <ele>172.5</ele>
        <time>2000-01-01T03:28:46.000Z</time>
      </trkpt>
      <trkpt lat="43.60289" lon="1.52516">
        <ele>157</ele>
        <time>2000-01-01T03:28:56.000Z</time>
      </trkpt>
      <trkpt lat="43.60282" lon="1.52526">
        <ele>173</ele>
        <time>2000-01-01T03:29:06.000Z</time>
      </trkpt>
      <trkpt lat="43.60273" lon="1.52534">
        <ele>159</ele>
        <time>2000-01-01T03:29:16.000Z</time>
      </trkpt>
      <trkpt lat="43.60269" lon="1.52545">
        <ele>173.1</ele>
        <time>2000-01-01T03:29:26.000Z</time>
      </trkpt>
      <trkpt lat="43.60262" lon="1.52555">
        <ele>173</ele>
        <time>2000-01-01T03:29:36.000Z</time>
      </trkpt>
      <trkpt lat="43.60255" lon="1.52563">
        <ele>159</ele>
        <time>2000-01-01T03:29:46.000Z</time>
      </trkpt>
      <trkpt lat="43.60248" lon="1.52575">
        <ele>173.1</ele>
        <time>2000-01-01T03:29:56.000Z</time>
      </trkpt>
      <trkpt lat="43.60243" lon="1.52585">
        <ele>159</ele>
        <time>2000-01-01T03:30:06.000Z</time>
      </trkpt>
      <trkpt lat="43.60239" lon="1.52598">
        <ele>174.1</ele>
        <time>2000-01-01T03:30:16.000Z</time>
      </trkpt>
      <trkpt lat="43.60231" lon="1.52606">
        <ele>160</ele>
        <time>2000-01-01T03:30:26.000Z</time>
      </trkpt>
      <trkpt lat="43.60234" lon="1.52618">
        <ele>174.7</ele>
        <time>2000-01-01T03:30:36.000Z</time>
      </trkpt>
      <trkpt lat="43.60244" lon="1.52622">
        <ele>174.5</ele>
        <time>2000-01-01T03:30:46.000Z</time>
      </trkpt>
      <trkpt lat="43.60252" lon="1.52632">
        <ele>160.5</ele>
        <time>2000-01-01T03:30:56.000Z</time>
      </trkpt>
      <trkpt lat="43.60262" lon="1.52635">
        <ele>175.3</ele>
        <time>2000-01-01T03:31:06.000Z</time>
      </trkpt>
      <trkpt lat="43.60271" lon="1.5264">
        <ele>161</ele>
        <time>2000-01-01T03:31:16.000Z</time>
      </trkpt>
      <trkpt lat="43.6028" lon="1.52644">
        <ele>176.2</ele>
        <time>2000-01-01T03:31:26.000Z</time>
      </trkpt>
      <trkpt lat="43.60289" lon="1.5265">
        <ele>176.4</ele>
        <time>2000-01-01T03:31:36.000Z</time>
      </trkpt>
      <trkpt lat="43.60297" lon="1.52654">
        <ele>162</ele>
        <time>2000-01-01T03:31:46.000Z</time>
      </trkpt>
      <trkpt lat="43.60307" lon="1.52659">
        <ele>176.7</ele>
        <time>2000-01-01T03:31:56.000Z</time>
      </trkpt>
      <trkpt lat="43.60315" lon="1.52663">
        <ele>176.6</ele>
        <time>2000-01-01T03:32:06.000Z</time>
      </trkpt>
      <trkpt lat="43.60324" lon="1.52668">
        <ele>163</ele>
        <time>2000-01-01T03:32:16.000Z</time>
      </trkpt>
      <trkpt lat="43.60334" lon="1.52674">
        <ele>176.3</ele>
        <time>2000-01-01T03:32:26.000Z</time>
      </trkpt>
      <trkpt lat="43.60342" lon="1.52679">
        <ele>176.3</ele>
        <time>2000-01-01T03:32:36.000Z</time>
      </trkpt>
      <trkpt lat="43.6035" lon="1.52684">
        <ele>165</ele>
        <time>2000-01-01T03:32:46.000Z</time>
      </trkpt>
      <trkpt lat="43.60357" lon="1.52688">
        <ele>176.1</ele>
        <time>2000-01-01T03:32:56.000Z</time>
      </trkpt>
      <trkpt lat="43.60366" lon="1.52694">
        <ele>175.8</ele>
        <time>2000-01-01T03:33:06.000Z</time>
      </trkpt>
      <trkpt lat="43.60375" lon="1.52699">
        <ele>166</ele>
        <time>2000-01-01T03:33:16.000Z</time>
      </trkpt>
      <trkpt lat="43.60382" lon="1.52705">
        <ele>175.6</ele>
        <time>2000-01-01T03:33:26.000Z</time>
      </trkpt>
      <trkpt lat="43.60393" lon="1.52704">
        <ele>174.9</ele>
        <time>2000-01-01T03:33:36.000Z</time>
      </trkpt>
      <trkpt lat="43.60402" lon="1.52703">
        <ele>166</ele>
        <time>2000-01-01T03:33:46.000Z</time>
      </trkpt>
      <trkpt lat="43.60409" lon="1.52709">
        <ele>173.4</ele>
        <time>2000-01-01T03:33:56.000Z</time>
      </trkpt>
      <trkpt lat="43.60413" lon="1.52719">
        <ele>173.3</ele>
        <time>2000-01-01T03:34:06.000Z</time>
      </trkpt>
      <trkpt lat="43.60415" lon="1.5273">
        <ele>167</ele>
        <time>2000-01-01T03:34:16.000Z</time>
      </trkpt>
      <trkpt lat="43.60423" lon="1.52735">
        <ele>172.5</ele>
        <time>2000-01-01T03:34:26.000Z</time>
      </trkpt>
      <trkpt lat="43.60429" lon="1.52744">
        <ele>172.1</ele>
        <time>2000-01-01T03:34:36.000Z</time>
      </trkpt>
      <trkpt lat="43.60436" lon="1.52753">
        <ele>168</ele>
        <time>2000-01-01T03:34:46.000Z</time>
      </trkpt>
      <trkpt lat="43.60441" lon="1.52765">
        <ele>170.3</ele>
        <time>2000-01-01T03:34:56.000Z</time>
      </trkpt>
      <trkpt lat="43.60441" lon="1.52778">
        <ele>170</ele>
        <time>2000-01-01T03:35:06.000Z</time>
      </trkpt>
      <trkpt lat="43.60446" lon="1.52788">
        <ele>168.7</ele>
        <time>2000-01-01T03:35:16.000Z</time>
      </trkpt>
      <trkpt lat="43.60449" lon="1.52799">
        <ele>168.4</ele>
        <time>2000-01-01T03:35:26.000Z</time>
      </trkpt>
      <trkpt lat="43.60451" lon="1.52812">
        <ele>172</ele>
        <time>2000-01-01T03:35:36.000Z</time>
      </trkpt>
      <trkpt lat="43.60453" lon="1.52823">
        <ele>168.1</ele>
        <time>2000-01-01T03:35:46.000Z</time>
      </trkpt>
      <trkpt lat="43.60459" lon="1.52834">
        <ele>168</ele>
        <time>2000-01-01T03:35:56.000Z</time>
      </trkpt>
      <trkpt lat="43.6047" lon="1.52837">
        <ele>173</ele>
        <time>2000-01-01T03:36:06.000Z</time>
      </trkpt>
      <trkpt lat="43.60479" lon="1.52842">
        <ele>168.9</ele>
        <time>2000-01-01T03:36:16.000Z</time>
      </trkpt>
      <trkpt lat="43.60487" lon="1.5285">
        <ele>177</ele>
        <time>2000-01-01T03:36:26.000Z</time>
      </trkpt>
      <trkpt lat="43.60497" lon="1.52854">
        <ele>170.1</ele>
        <time>2000-01-01T03:36:36.000Z</time>
      </trkpt>
      <trkpt lat="43.60507" lon="1.52854">
        <ele>182</ele>
        <time>2000-01-01T03:36:46.000Z</time>
      </trkpt>
      <trkpt lat="43.60515" lon="1.52856">
        <ele>171</ele>
        <time>2000-01-01T03:36:56.000Z</time>
      </trkpt>
      <trkpt lat="43.60523" lon="1.52859">
        <ele>171.1</ele>
        <time>2000-01-01T03:37:06.000Z</time>
      </trkpt>
      <trkpt lat="43.60533" lon="1.52862">
        <ele>182</ele>
        <time>2000-01-01T03:37:16.000Z</time>
      </trkpt>
      <trkpt lat="43.60541" lon="1.52868">
        <ele>172.7</ele>
        <time>2000-01-01T03:37:26.000Z</time>
      </trkpt>
      <trkpt lat="43.60551" lon="1.52872">
        <ele>184</ele>
        <time>2000-01-01T03:37:36.000Z</time>
      </trkpt>
      <trkpt lat="43.6056" lon="1.52873">
        <ele>174.4</ele>
        <time>2000-01-01T03:37:46.000Z</time>
      </trkpt>
      <trkpt lat="43.60568" lon="1.52875">
        <ele>175.1</ele>
        <time>2000-01-01T03:37:56.000Z</time>
      </trkpt>
      <trkpt lat="43.60576" lon="1.52874">
        <ele>184</ele>
        <time>2000-01-01T03:38:06.000Z</time>
      </trkpt>
      <trkpt lat="43.60585" lon="1.52879">
        <ele>176.2</ele>
        <time>2000-01-01T03:38:16.000Z</time>
      </trkpt>
      <trkpt lat="43.60594" lon="1.52881">
        <ele>176.3</ele>
        <time>2000-01-01T03:38:26.000Z</time>
      </trkpt>
      <trkpt lat="43.606" lon="1.52888">
        <ele>183</ele>
        <time>2000-01-01T03:38:36.000Z</time>
      </trkpt>
      <trkpt lat="43.60609" lon="1.52887">
        <ele>175.5</ele>
        <time>2000-01-01T03:38:46.000Z</time>
      </trkpt>
      <trkpt lat="43.60619" lon="1.52887">
        <ele>175.6</ele>
        <time>2000-01-01T03:38:56.000Z</time>
      </trkpt>
      <trkpt lat="43.60627" lon="1.52885">
        <ele>182</ele>
        <time>2000-01-01T03:39:06.000Z</time>
      </trkpt>
      <trkpt lat="43.60638" lon="1.5288">
        <ele>177.9</ele>
        <time>2000-01-01T03:39:16.000Z</time>
      </trkpt>
      <trkpt lat="43.60648" lon="1.5289">
        <ele>182</ele>
        <time>2000-01-01T03:39:26.000Z</time>
      </trkpt>
      <trkpt lat="43.60657" lon="1.5289">
        <ele>174.3</ele>
        <time>2000-01-01T03:39:36.000Z</time>
      </trkpt>
      <trkpt lat="43.60669" lon="1.52885">
        <ele>182</ele>
        <time>2000-01-01T03:39:46.000Z</time>
      </trkpt>
      <trkpt lat="43.60677" lon="1.52875">
        <ele>178.5</ele>
        <time>2000-01-01T03:39:56.000Z</time>
      </trkpt>
      <trkpt lat="43.60687" lon="1.52875">
        <ele>182</ele>
        <time>2000-01-01T03:40:06.000Z</time>
      </trkpt>
      <trkpt lat="43.60696" lon="1.52877">
        <ele>177.9</ele>
        <time>2000-01-01T03:40:16.000Z</time>
      </trkpt>
      <trkpt lat="43.60704" lon="1.52872">
        <ele>178.3</ele>
        <time>2000-01-01T03:40:26.000Z</time>
      </trkpt>
      <trkpt lat="43.60713" lon="1.52868">
        <ele>182</ele>
        <time>2000-01-01T03:40:36.000Z</time>
      </trkpt>
      <trkpt lat="43.60721" lon="1.52862">
        <ele>178</ele>
        <time>2000-01-01T03:40:46.000Z</time>
      </trkpt>
      <trkpt lat="43.60731" lon="1.52861">
        <ele>177.4</ele>
        <time>2000-01-01T03:40:56.000Z</time>
      </trkpt>
      <trkpt lat="43.60739" lon="1.52858">
        <ele>183</ele>
        <time>2000-01-01T03:41:06.000Z</time>
      </trkpt>
      <trkpt lat="43.60747" lon="1.5285">
        <ele>178.3</ele>
        <time>2000-01-01T03:41:16.000Z</time>
      </trkpt>
      <trkpt lat="43.60754" lon="1.52845">
        <ele>179.2</ele>
        <time>2000-01-01T03:41:26.000Z</time>
      </trkpt>
      <trkpt lat="43.60762" lon="1.5284">
        <ele>185</ele>
        <time>2000-01-01T03:41:36.000Z</time>
      </trkpt>
      <trkpt lat="43.60766" lon="1.52828">
        <ele>181.8</ele>
        <time>2000-01-01T03:41:46.000Z</time>
      </trkpt>
      <trkpt lat="43.60775" lon="1.52822">
        <ele>182.3</ele>
        <time>2000-01-01T03:41:56.000Z</time>
      </trkpt>
      <trkpt lat="43.60782" lon="1.52815">
        <ele>185</ele>
        <time>2000-01-01T03:42:06.000Z</time>
      </trkpt>
      <trkpt lat="43.60789" lon="1.52808">
        <ele>183.8</ele>
        <time>2000-01-01T03:42:16.000Z</time>
      </trkpt>
      <trkpt lat="43.60796" lon="1.52799">
        <ele>184.6</ele>
        <time>2000-01-01T03:42:26.000Z</time>
      </trkpt>
      <trkpt lat="43.60804" lon="1.52794">
        <ele>187</ele>
        <time>2000-01-01T03:42:36.000Z</time>
      </trkpt>
      <trkpt lat="43.60811" lon="1.52784">
        <ele>185.6</ele>
        <time>2000-01-01T03:42:46.000Z</time>
      </trkpt>
      <trkpt lat="43.60821" lon="1.52778">
        <ele>189</ele>
        <time>2000-01-01T03:42:56.000Z</time>
      </trkpt>
      <trkpt lat="43.6083" lon="1.52772">
        <ele>186.6</ele>
        <time>2000-01-01T03:43:06.000Z</time>
      </trkpt>
      <trkpt lat="43.60838" lon="1.52765">
        <ele>187.7</ele>
        <time>2000-01-01T03:43:16.000Z</time>
      </trkpt>
      <trkpt lat="43.60844" lon="1.52759">
        <ele>189.5</ele>
        <time>2000-01-01T03:43:26.000Z</time>
      </trkpt>
      <trkpt lat="43.60851" lon="1.5275">
        <ele>189</ele>
        <time>2000-01-01T03:43:36.000Z</time>
      </trkpt>
      <trkpt lat="43.60861" lon="1.5275">
        <ele>189</ele>
        <time>2000-01-01T03:43:46.000Z</time>
      </trkpt>
      <trkpt lat="43.60866" lon="1.52764">
        <ele>190</ele>
        <time>2000-01-01T03:43:56.000Z</time>
      </trkpt>
      <trkpt lat="43.60861" lon="1.52774">
        <ele>189</ele>
        <time>2000-01-01T03:44:06.000Z</time>
      </trkpt>
      <trkpt lat="43.60852" lon="1.5278">
        <ele>188.1</ele>
        <time>2000-01-01T03:44:16.000Z</time>
      </trkpt>
      <trkpt lat="43.60849" lon="1.52793">
        <ele>193</ele>
        <time>2000-01-01T03:44:26.000Z</time>
      </trkpt>
      <trkpt lat="43.60843" lon="1.52804">
        <ele>187.7</ele>
        <time>2000-01-01T03:44:36.000Z</time>
      </trkpt>
      <trkpt lat="43.60837" lon="1.52812">
        <ele>187.4</ele>
        <time>2000-01-01T03:44:46.000Z</time>
      </trkpt>
      <trkpt lat="43.60836" lon="1.52825">
        <ele>193</ele>
        <time>2000-01-01T03:44:56.000Z</time>
      </trkpt>
      <trkpt lat="43.60828" lon="1.5283">
        <ele>187.7</ele>
        <time>2000-01-01T03:45:06.000Z</time>
      </trkpt>
      <trkpt lat="43.60821" lon="1.52838">
        <ele>187.3</ele>
        <time>2000-01-01T03:45:16.000Z</time>
      </trkpt>
      <trkpt lat="43.60817" lon="1.52847">
        <ele>192</ele>
        <time>2000-01-01T03:45:26.000Z</time>
      </trkpt>
      <trkpt lat="43.60811" lon="1.52858">
        <ele>187.6</ele>
        <time>2000-01-01T03:45:36.000Z</time>
      </trkpt>
      <trkpt lat="43.60805" lon="1.52866">
        <ele>187.2</ele>
        <time>2000-01-01T03:45:46.000Z</time>
      </trkpt>
      <trkpt lat="43.60803" lon="1.52877">
        <ele>191.5</ele>
        <time>2000-01-01T03:45:56.000Z</time>
      </trkpt>
      <trkpt lat="43.60802" lon="1.5289">
        <ele>188.4</ele>
        <time>2000-01-01T03:46:06.000Z</time>
      </trkpt>
      <trkpt lat="43.608" lon="1.52901">
        <ele>188.4</ele>
        <time>2000-01-01T03:46:16.000Z</time>
      </trkpt>
      <trkpt lat="43.60798" lon="1.52915">
        <ele>191</ele>
        <time>2000-01-01T03:46:26.000Z</time>
      </trkpt>
      <trkpt lat="43.60796" lon="1.52927">
        <ele>188</ele>
        <time>2000-01-01T03:46:36.000Z</time>
      </trkpt>
      <trkpt lat="43.60798" lon="1.52938">
        <ele>188.1</ele>
        <time>2000-01-01T03:46:46.000Z</time>
      </trkpt>
      <trkpt lat="43.60796" lon="1.52951">
        <ele>191</ele>
        <time>2000-01-01T03:46:56.000Z</time>
      </trkpt>
      <trkpt lat="43.60795" lon="1.52962">
        <ele>187.5</ele>
        <time>2000-01-01T03:47:06.000Z</time>
      </trkpt>
      <trkpt lat="43.60793" lon="1.52974">
        <ele>187.1</ele>
        <time>2000-01-01T03:47:16.000Z</time>
      </trkpt>
      <trkpt lat="43.60795" lon="1.52987">
        <ele>192</ele>
        <time>2000-01-01T03:47:26.000Z</time>
      </trkpt>
      <trkpt lat="43.60802" lon="1.52997">
        <ele>187.5</ele>
        <time>2000-01-01T03:47:36.000Z</time>
      </trkpt>
      <trkpt lat="43.60808" lon="1.53007">
        <ele>188.3</ele>
        <time>2000-01-01T03:47:46.000Z</time>
      </trkpt>
      <trkpt lat="43.60815" lon="1.53014">
        <ele>193</ele>
        <time>2000-01-01T03:47:56.000Z</time>
      </trkpt>
      <trkpt lat="43.60823" lon="1.53016">
        <ele>189.9</ele>
        <time>2000-01-01T03:48:06.000Z</time>
      </trkpt>
      <trkpt lat="43.60823" lon="1.53005">
        <ele>189.9</ele>
        <time>2000-01-01T03:48:16.000Z</time>
      </trkpt>
      <trkpt lat="43.60815" lon="1.52996">
        <ele>193</ele>
        <time>2000-01-01T03:48:26.000Z</time>
      </trkpt>
      <trkpt lat="43.60816" lon="1.52983">
        <ele>189.5</ele>
        <time>2000-01-01T03:48:36.000Z</time>
      </trkpt>
      <trkpt lat="43.60817" lon="1.52971">
        <ele>189.8</ele>
        <time>2000-01-01T03:48:46.000Z</time>
      </trkpt>
      <trkpt lat="43.60824" lon="1.52978">
        <ele>193</ele>
        <time>2000-01-01T03:48:56.000Z</time>
      </trkpt>
      <trkpt lat="43.60831" lon="1.52986">
        <ele>190.8</ele>
        <time>2000-01-01T03:49:06.000Z</time>
      </trkpt>
      <trkpt lat="43.60839" lon="1.5299">
        <ele>191.8</ele>
        <time>2000-01-01T03:49:16.000Z</time>
      </trkpt>
      <trkpt lat="43.60846" lon="1.52998">
        <ele>194</ele>
        <time>2000-01-01T03:49:26.000Z</time>
      </trkpt>
      <trkpt lat="43.60854" lon="1.53006">
        <ele>194.1</ele>
        <time>2000-01-01T03:49:36.000Z</time>
      </trkpt>
      <trkpt lat="43.60858" lon="1.53016">
        <ele>195.1</ele>
        <time>2000-01-01T03:49:46.000Z</time>
      </trkpt>
      <trkpt lat="43.60867" lon="1.53018">
        <ele>195</ele>
        <time>2000-01-01T03:49:56.000Z</time>
      </trkpt>
      <trkpt lat="43.60873" lon="1.53027">
        <ele>197.7</ele>
        <time>2000-01-01T03:50:06.000Z</time>
      </trkpt>
      <trkpt lat="43.60869" lon="1.5304">
        <ele>197.1</ele>
        <time>2000-01-01T03:50:16.000Z</time>
      </trkpt>
      <trkpt lat="43.60863" lon="1.53051">
        <ele>195.5</ele>
        <time>2000-01-01T03:50:26.000Z</time>
      </trkpt>
      <trkpt lat="43.60867" lon="1.53063">
        <ele>197.1</ele>
        <time>2000-01-01T03:50:36.000Z</time>
      </trkpt>
      <trkpt lat="43.60866" lon="1.53075">
        <ele>197.4</ele>
        <time>2000-01-01T03:50:46.000Z</time>
      </trkpt>
      <trkpt lat="43.60867" lon="1.53086">
        <ele>195.2</ele>
        <time>2000-01-01T03:50:56.000Z</time>
      </trkpt>
      <trkpt lat="43.60866" lon="1.53098">
        <ele>197.7</ele>
        <time>2000-01-01T03:51:06.000Z</time>
      </trkpt>
      <trkpt lat="43.60862" lon="1.53111">
        <ele>197.1</ele>
        <time>2000-01-01T03:51:16.000Z</time>
      </trkpt>
      <trkpt lat="43.6086" lon="1.53125">
        <ele>195</ele>
        <time>2000-01-01T03:51:26.000Z</time>
      </trkpt>
      <trkpt lat="43.60854" lon="1.53136">
        <ele>196.6</ele>
        <time>2000-01-01T03:51:36.000Z</time>
      </trkpt>
      <trkpt lat="43.6085" lon="1.53149">
        <ele>194</ele>
        <time>2000-01-01T03:51:46.000Z</time>
      </trkpt>
      <trkpt lat="43.60845" lon="1.53159">
        <ele>195.8</ele>
        <time>2000-01-01T03:51:56.000Z</time>
      </trkpt>
      <trkpt lat="43.60845" lon="1.53173">
        <ele>196.5</ele>
        <time>2000-01-01T03:52:06.000Z</time>
      </trkpt>
      <trkpt lat="43.60839" lon="1.53185">
        <ele>193</ele>
        <time>2000-01-01T03:52:16.000Z</time>
      </trkpt>
      <trkpt lat="43.60834" lon="1.53194">
        <ele>196.1</ele>
        <time>2000-01-01T03:52:26.000Z</time>
      </trkpt>
      <trkpt lat="43.60828" lon="1.53203">
        <ele>195.5</ele>
        <time>2000-01-01T03:52:36.000Z</time>
      </trkpt>
      <trkpt lat="43.60822" lon="1.5321">
        <ele>192</ele>
        <time>2000-01-01T03:52:46.000Z</time>
      </trkpt>
      <trkpt lat="43.60816" lon="1.53219">
        <ele>194.4</ele>
        <time>2000-01-01T03:52:56.000Z</time>
      </trkpt>
      <trkpt lat="43.60812" lon="1.53232">
        <ele>194.6</ele>
        <time>2000-01-01T03:53:06.000Z</time>
      </trkpt>
      <trkpt lat="43.6081" lon="1.53243">
        <ele>192</ele>
        <time>2000-01-01T03:53:16.000Z</time>
      </trkpt>
      <trkpt lat="43.60818" lon="1.53243">
        <ele>196</ele>
        <time>2000-01-01T03:53:26.000Z</time>
      </trkpt>
      <trkpt lat="43.60826" lon="1.53244">
        <ele>196.9</ele>
        <time>2000-01-01T03:53:36.000Z</time>
      </trkpt>
      <trkpt lat="43.60835" lon="1.5325">
        <ele>193</ele>
        <time>2000-01-01T03:53:46.000Z</time>
      </trkpt>
      <trkpt lat="43.6084" lon="1.53259">
        <ele>199.2</ele>
        <time>2000-01-01T03:53:56.000Z</time>
      </trkpt>
      <trkpt lat="43.60839" lon="1.53272">
        <ele>199.4</ele>
        <time>2000-01-01T03:54:06.000Z</time>
      </trkpt>
      <trkpt lat="43.60838" lon="1.53286">
        <ele>193</ele>
        <time>2000-01-01T03:54:16.000Z</time>
      </trkpt>
      <trkpt lat="43.60834" lon="1.53296">
        <ele>199.7</ele>
        <time>2000-01-01T03:54:26.000Z</time>
      </trkpt>
      <trkpt lat="43.60831" lon="1.53307">
        <ele>199.8</ele>
        <time>2000-01-01T03:54:36.000Z</time>
      </trkpt>
      <trkpt lat="43.60825" lon="1.53318">
        <ele>194</ele>
        <time>2000-01-01T03:54:46.000Z</time>
      </trkpt>
      <trkpt lat="43.60818" lon="1.53326">
        <ele>199.1</ele>
        <time>2000-01-01T03:54:56.000Z</time>
      </trkpt>
      <trkpt lat="43.60812" lon="1.53333">
        <ele>198.7</ele>
        <time>2000-01-01T03:55:06.000Z</time>
      </trkpt>
      <trkpt lat="43.60809" lon="1.53345">
        <ele>195</ele>
        <time>2000-01-01T03:55:16.000Z</time>
      </trkpt>
      <trkpt lat="43.60802" lon="1.53355">
        <ele>198.5</ele>
        <time>2000-01-01T03:55:26.000Z</time>
      </trkpt>
      <trkpt lat="43.60804" lon="1.53367">
        <ele>199.1</ele>
        <time>2000-01-01T03:55:36.000Z</time>
      </trkpt>
      <trkpt lat="43.608" lon="1.53378">
        <ele>197</ele>
        <time>2000-01-01T03:55:46.000Z</time>
      </trkpt>
      <trkpt lat="43.608" lon="1.5339">
        <ele>199.6</ele>
        <time>2000-01-01T03:55:56.000Z</time>
      </trkpt>
      <trkpt lat="43.60798" lon="1.53402">
        <ele>199.5</ele>
        <time>2000-01-01T03:56:06.000Z</time>
      </trkpt>
      <trkpt lat="43.60791" lon="1.53395">
        <ele>200</ele>
        <time>2000-01-01T03:56:16.000Z</time>
      </trkpt>
      <trkpt lat="43.60787" lon="1.53384">
        <ele>198.5</ele>
        <time>2000-01-01T03:56:26.000Z</time>
      </trkpt>
      <trkpt lat="43.60778" lon="1.53379">
        <ele>197.7</ele>
        <time>2000-01-01T03:56:36.000Z</time>
      </trkpt>
      <trkpt lat="43.60772" lon="1.53371">
        <ele>200</ele>
        <time>2000-01-01T03:56:46.000Z</time>
      </trkpt>
      <trkpt lat="43.60764" lon="1.53363">
        <ele>196.1</ele>
        <time>2000-01-01T03:56:56.000Z</time>
      </trkpt>
      <trkpt lat="43.60766" lon="1.53375">
        <ele>196.7</ele>
        <time>2000-01-01T03:57:06.000Z</time>
      </trkpt>
      <trkpt lat="43.60769" lon="1.53386">
        <ele>200</ele>
        <time>2000-01-01T03:57:16.000Z</time>
      </trkpt>
      <trkpt lat="43.60764" lon="1.53395">
        <ele>197</ele>
        <time>2000-01-01T03:57:26.000Z</time>
      </trkpt>
      <trkpt lat="43.60758" lon="1.53404">
        <ele>196.6</ele>
        <time>2000-01-01T03:57:36.000Z</time>
      </trkpt>
      <trkpt lat="43.60762" lon="1.53414">
        <ele>200</ele>
        <time>2000-01-01T03:57:46.000Z</time>
      </trkpt>
      <trkpt lat="43.60767" lon="1.53424">
        <ele>197.5</ele>
        <time>2000-01-01T03:57:56.000Z</time>
      </trkpt>
      <trkpt lat="43.60772" lon="1.53433">
        <ele>198.2</ele>
        <time>2000-01-01T03:58:06.000Z</time>
      </trkpt>
      <trkpt lat="43.60775" lon="1.53446">
        <ele>200</ele>
        <time>2000-01-01T03:58:16.000Z</time>
      </trkpt>
      <trkpt lat="43.60777" lon="1.53458">
        <ele>199.4</ele>
        <time>2000-01-01T03:58:26.000Z</time>
      </trkpt>
      <trkpt lat="43.60769" lon="1.53463">
        <ele>199</ele>
        <time>2000-01-01T03:58:36.000Z</time>
      </trkpt>
      <trkpt lat="43.60762" lon="1.53471">
        <ele>200.5</ele>
        <time>2000-01-01T03:58:46.000Z</time>
      </trkpt>
      <trkpt lat="43.60756" lon="1.5348">
        <ele>198.7</ele>
        <time>2000-01-01T03:58:56.000Z</time>
      </trkpt>
      <trkpt lat="43.60755" lon="1.53494">
        <ele>201</ele>
        <time>2000-01-01T03:59:06.000Z</time>
      </trkpt>
      <trkpt lat="43.60756" lon="1.53508">
        <ele>199.7</ele>
        <time>2000-01-01T03:59:16.000Z</time>
      </trkpt>
      <trkpt lat="43.60751" lon="1.5352">
        <ele>201</ele>
        <time>2000-01-01T03:59:26.000Z</time>
      </trkpt>
      <trkpt lat="43.60749" lon="1.53531">
        <ele>200.1</ele>
        <time>2000-01-01T03:59:36.000Z</time>
      </trkpt>
      <trkpt lat="43.60746" lon="1.53543">
        <ele>200.4</ele>
        <time>2000-01-01T03:59:46.000Z</time>
      </trkpt>
      <trkpt lat="43.60747" lon="1.53555">
        <ele>200</ele>
        <time>2000-01-01T03:59:56.000Z</time>
      </trkpt>
      <trkpt lat="43.6074" lon="1.53566">
        <ele>201</ele>
        <time>2000-01-01T04:00:06.000Z</time>
      </trkpt>
      <trkpt lat="43.60732" lon="1.53575">
        <ele>198</ele>
        <time>2000-01-01T04:00:16.000Z</time>
      </trkpt>
      <trkpt lat="43.60728" lon="1.53585">
        <ele>201.3</ele>
        <time>2000-01-01T04:00:26.000Z</time>
      </trkpt>
      <trkpt lat="43.60724" lon="1.53597">
        <ele>201.6</ele>
        <time>2000-01-01T04:00:36.000Z</time>
      </trkpt>
      <trkpt lat="43.60725" lon="1.53609">
        <ele>197</ele>
        <time>2000-01-01T04:00:46.000Z</time>
      </trkpt>
      <trkpt lat="43.60734" lon="1.53605">
        <ele>202.2</ele>
        <time>2000-01-01T04:00:56.000Z</time>
      </trkpt>
      <trkpt lat="43.6074" lon="1.53597">
        <ele>202.1</ele>
        <time>2000-01-01T04:01:06.000Z</time>
      </trkpt>
      <trkpt lat="43.60748" lon="1.53594">
        <ele>196.5</ele>
        <time>2000-01-01T04:01:16.000Z</time>
      </trkpt>
      <trkpt lat="43.60757" lon="1.53588">
        <ele>202.7</ele>
        <time>2000-01-01T04:01:26.000Z</time>
      </trkpt>
      <trkpt lat="43.60765" lon="1.53585">
        <ele>203.1</ele>
        <time>2000-01-01T04:01:36.000Z</time>
      </trkpt>
      <trkpt lat="43.60775" lon="1.53584">
        <ele>196</ele>
        <time>2000-01-01T04:01:46.000Z</time>
      </trkpt>
      <trkpt lat="43.60785" lon="1.53582">
        <ele>204.2</ele>
        <time>2000-01-01T04:01:56.000Z</time>
      </trkpt>
      <trkpt lat="43.60792" lon="1.53574">
        <ele>204.2</ele>
        <time>2000-01-01T04:02:06.000Z</time>
      </trkpt>
      <trkpt lat="43.608" lon="1.53567">
        <ele>197.5</ele>
        <time>2000-01-01T04:02:16.000Z</time>
      </trkpt>
      <trkpt lat="43.60808" lon="1.5356">
        <ele>204.3</ele>
        <time>2000-01-01T04:02:26.000Z</time>
      </trkpt>
      <trkpt lat="43.60817" lon="1.53553">
        <ele>204.7</ele>
        <time>2000-01-01T04:02:36.000Z</time>
      </trkpt>
      <trkpt lat="43.60828" lon="1.53547">
        <ele>199</ele>
        <time>2000-01-01T04:02:46.000Z</time>
      </trkpt>
      <trkpt lat="43.60834" lon="1.53537">
        <ele>205.4</ele>
        <time>2000-01-01T04:02:56.000Z</time>
      </trkpt>
      <trkpt lat="43.60839" lon="1.53527">
        <ele>205.4</ele>
        <time>2000-01-01T04:03:06.000Z</time>
      </trkpt>
      <trkpt lat="43.60841" lon="1.53514">
        <ele>199</ele>
        <time>2000-01-01T04:03:16.000Z</time>
      </trkpt>
      <trkpt lat="43.60845" lon="1.535">
        <ele>205.8</ele>
        <time>2000-01-01T04:03:26.000Z</time>
      </trkpt>
      <trkpt lat="43.60844" lon="1.53485">
        <ele>201</ele>
        <time>2000-01-01T04:03:36.000Z</time>
      </trkpt>
      <trkpt lat="43.60843" lon="1.53474">
        <ele>205.1</ele>
        <time>2000-01-01T04:03:46.000Z</time>
      </trkpt>
      <trkpt lat="43.60848" lon="1.53462">
        <ele>205.2</ele>
        <time>2000-01-01T04:03:56.000Z</time>
      </trkpt>
      <trkpt lat="43.60842" lon="1.53449">
        <ele>201.5</ele>
        <time>2000-01-01T04:04:06.000Z</time>
      </trkpt>
      <trkpt lat="43.60845" lon="1.53438">
        <ele>204.2</ele>
        <time>2000-01-01T04:04:16.000Z</time>
      </trkpt>
      <trkpt lat="43.60851" lon="1.53427">
        <ele>204.5</ele>
        <time>2000-01-01T04:04:26.000Z</time>
      </trkpt>
      <trkpt lat="43.60857" lon="1.53415">
        <ele>201.2</ele>
        <time>2000-01-01T04:04:36.000Z</time>
      </trkpt>
      <trkpt lat="43.60865" lon="1.53405">
        <ele>205.4</ele>
        <time>2000-01-01T04:04:46.000Z</time>
      </trkpt>
      <trkpt lat="43.60863" lon="1.53391">
        <ele>201</ele>
        <time>2000-01-01T04:04:56.000Z</time>
      </trkpt>
      <trkpt lat="43.60856" lon="1.53373">
        <ele>203.9</ele>
        <time>2000-01-01T04:05:06.000Z</time>
      </trkpt>
      <trkpt lat="43.60851" lon="1.53359">
        <ele>199</ele>
        <time>2000-01-01T04:05:16.000Z</time>
      </trkpt>
      <trkpt lat="43.60862" lon="1.53319">
        <ele>197</ele>
        <time>2000-01-01T04:05:26.000Z</time>
      </trkpt>
      <trkpt lat="43.60883" lon="1.53244">
        <ele>195</ele>
        <time>2000-01-01T04:05:36.000Z</time>
      </trkpt>
      <trkpt lat="43.60885" lon="1.53234">
        <ele>204</ele>
        <time>2000-01-01T04:05:46.000Z</time>
      </trkpt>
      <trkpt lat="43.60892" lon="1.53227">
        <ele>204.6</ele>
        <time>2000-01-01T04:05:56.000Z</time>
      </trkpt>
      <trkpt lat="43.60896" lon="1.53214">
        <ele>193</ele>
        <time>2000-01-01T04:06:06.000Z</time>
      </trkpt>
      <trkpt lat="43.60898" lon="1.53202">
        <ele>204.8</ele>
        <time>2000-01-01T04:06:16.000Z</time>
      </trkpt>
      <trkpt lat="43.60904" lon="1.53192">
        <ele>205.6</ele>
        <time>2000-01-01T04:06:26.000Z</time>
      </trkpt>
      <trkpt lat="43.60908" lon="1.53179">
        <ele>193</ele>
        <time>2000-01-01T04:06:36.000Z</time>
      </trkpt>
      <trkpt lat="43.60909" lon="1.53165">
        <ele>205.6</ele>
        <time>2000-01-01T04:06:46.000Z</time>
      </trkpt>
      <trkpt lat="43.60912" lon="1.53153">
        <ele>205.8</ele>
        <time>2000-01-01T04:06:56.000Z</time>
      </trkpt>
      <trkpt lat="43.60916" lon="1.53141">
        <ele>197</ele>
        <time>2000-01-01T04:07:06.000Z</time>
      </trkpt>
      <trkpt lat="43.60919" lon="1.53127">
        <ele>205.9</ele>
        <time>2000-01-01T04:07:16.000Z</time>
      </trkpt>
      <trkpt lat="43.6092" lon="1.53116">
        <ele>205.7</ele>
        <time>2000-01-01T04:07:26.000Z</time>
      </trkpt>
      <trkpt lat="43.60923" lon="1.531">
        <ele>197</ele>
        <time>2000-01-01T04:07:36.000Z</time>
      </trkpt>
      <trkpt lat="43.60929" lon="1.5309">
        <ele>206.8</ele>
        <time>2000-01-01T04:07:46.000Z</time>
      </trkpt>
      <trkpt lat="43.60926" lon="1.53074">
        <ele>198</ele>
        <time>2000-01-01T04:07:56.000Z</time>
      </trkpt>
      <trkpt lat="43.60931" lon="1.53064">
        <ele>206.4</ele>
        <time>2000-01-01T04:08:06.000Z</time>
      </trkpt>
      <trkpt lat="43.60932" lon="1.53052">
        <ele>206.2</ele>
        <time>2000-01-01T04:08:16.000Z</time>
      </trkpt>
      <trkpt lat="43.6094" lon="1.53044">
        <ele>198</ele>
        <time>2000-01-01T04:08:26.000Z</time>
      </trkpt>
      <trkpt lat="43.60947" lon="1.53036">
        <ele>208.3</ele>
        <time>2000-01-01T04:08:36.000Z</time>
      </trkpt>
      <trkpt lat="43.60942" lon="1.53021">
        <ele>199</ele>
        <time>2000-01-01T04:08:46.000Z</time>
      </trkpt>
      <trkpt lat="43.60934" lon="1.53015">
        <ele>206.5</ele>
        <time>2000-01-01T04:08:56.000Z</time>
      </trkpt>
      <trkpt lat="43.60942" lon="1.53011">
        <ele>207.6</ele>
        <time>2000-01-01T04:09:06.000Z</time>
      </trkpt>
      <trkpt lat="43.60941" lon="1.52998">
        <ele>199</ele>
        <time>2000-01-01T04:09:16.000Z</time>
      </trkpt>
      <trkpt lat="43.6094" lon="1.52984">
        <ele>206.8</ele>
        <time>2000-01-01T04:09:26.000Z</time>
      </trkpt>
      <trkpt lat="43.60938" lon="1.52971">
        <ele>199</ele>
        <time>2000-01-01T04:09:36.000Z</time>
      </trkpt>
      <trkpt lat="43.60929" lon="1.52971">
        <ele>204.8</ele>
        <time>2000-01-01T04:09:46.000Z</time>
      </trkpt>
      <trkpt lat="43.60918" lon="1.52968">
        <ele>203.2</ele>
        <time>2000-01-01T04:09:56.000Z</time>
      </trkpt>
      <trkpt lat="43.60911" lon="1.52965">
        <ele>199</ele>
        <time>2000-01-01T04:10:06.000Z</time>
      </trkpt>
      <trkpt lat="43.60911" lon="1.52952">
        <ele>202</ele>
        <time>2000-01-01T04:10:16.000Z</time>
      </trkpt>
      <trkpt lat="43.60908" lon="1.5294">
        <ele>201.3</ele>
        <time>2000-01-01T04:10:26.000Z</time>
      </trkpt>
      <trkpt lat="43.60906" lon="1.52929">
        <ele>199</ele>
        <time>2000-01-01T04:10:36.000Z</time>
      </trkpt>
      <trkpt lat="43.60906" lon="1.52915">
        <ele>200.4</ele>
        <time>2000-01-01T04:10:46.000Z</time>
      </trkpt>
      <trkpt lat="43.60908" lon="1.52903">
        <ele>200.4</ele>
        <time>2000-01-01T04:10:56.000Z</time>
      </trkpt>
      <trkpt lat="43.60915" lon="1.52895">
        <ele>200</ele>
        <time>2000-01-01T04:11:06.000Z</time>
      </trkpt>
      <trkpt lat="43.60922" lon="1.52886">
        <ele>201.9</ele>
        <time>2000-01-01T04:11:16.000Z</time>
      </trkpt>
      <trkpt lat="43.60924" lon="1.52875">
        <ele>202.2</ele>
        <time>2000-01-01T04:11:26.000Z</time>
      </trkpt>
      <trkpt lat="43.60932" lon="1.52867">
        <ele>200</ele>
        <time>2000-01-01T04:11:36.000Z</time>
      </trkpt>
      <trkpt lat="43.60929" lon="1.52856">
        <ele>202.6</ele>
        <time>2000-01-01T04:11:46.000Z</time>
      </trkpt>
      <trkpt lat="43.60935" lon="1.52847">
        <ele>203.1</ele>
        <time>2000-01-01T04:11:56.000Z</time>
      </trkpt>
      <trkpt lat="43.60942" lon="1.52837">
        <ele>200</ele>
        <time>2000-01-01T04:12:06.000Z</time>
      </trkpt>
      <trkpt lat="43.60947" lon="1.52828">
        <ele>204</ele>
        <time>2000-01-01T04:12:16.000Z</time>
      </trkpt>
      <trkpt lat="43.60953" lon="1.52819">
        <ele>204.2</ele>
        <time>2000-01-01T04:12:26.000Z</time>
      </trkpt>
      <trkpt lat="43.60964" lon="1.52812">
        <ele>201</ele>
        <time>2000-01-01T04:12:36.000Z</time>
      </trkpt>
      <trkpt lat="43.60973" lon="1.52809">
        <ele>206.3</ele>
        <time>2000-01-01T04:12:46.000Z</time>
      </trkpt>
      <trkpt lat="43.60978" lon="1.52799">
        <ele>206.4</ele>
        <time>2000-01-01T04:12:56.000Z</time>
      </trkpt>
      <trkpt lat="43.60987" lon="1.52793">
        <ele>203</ele>
        <time>2000-01-01T04:13:06.000Z</time>
      </trkpt>
      <trkpt lat="43.60995" lon="1.52798">
        <ele>208.2</ele>
        <time>2000-01-01T04:13:16.000Z</time>
      </trkpt>
      <trkpt lat="43.61006" lon="1.52801">
        <ele>203</ele>
        <time>2000-01-01T04:13:26.000Z</time>
      </trkpt>
      <trkpt lat="43.61014" lon="1.52805">
        <ele>209.5</ele>
        <time>2000-01-01T04:13:36.000Z</time>
      </trkpt>
      <trkpt lat="43.61023" lon="1.52806">
        <ele>209.8</ele>
        <time>2000-01-01T04:13:46.000Z</time>
      </trkpt>
      <trkpt lat="43.6103" lon="1.52813">
        <ele>203</ele>
        <time>2000-01-01T04:13:56.000Z</time>
      </trkpt>
      <trkpt lat="43.61039" lon="1.52818">
        <ele>210.7</ele>
        <time>2000-01-01T04:14:06.000Z</time>
      </trkpt>
      <trkpt lat="43.61042" lon="1.52829">
        <ele>210.9</ele>
        <time>2000-01-01T04:14:16.000Z</time>
      </trkpt>
      <trkpt lat="43.6105" lon="1.52838">
        <ele>202</ele>
        <time>2000-01-01T04:14:26.000Z</time>
      </trkpt>
      <trkpt lat="43.61057" lon="1.52843">
        <ele>211.4</ele>
        <time>2000-01-01T04:14:36.000Z</time>
      </trkpt>
      <trkpt lat="43.61066" lon="1.52852">
        <ele>212</ele>
        <time>2000-01-01T04:14:46.000Z</time>
      </trkpt>
      <trkpt lat="43.61077" lon="1.52858">
        <ele>202</ele>
        <time>2000-01-01T04:14:56.000Z</time>
      </trkpt>
      <trkpt lat="43.61083" lon="1.52866">
        <ele>213.2</ele>
        <time>2000-01-01T04:15:06.000Z</time>
      </trkpt>
      <trkpt lat="43.6109" lon="1.52877">
        <ele>214.1</ele>
        <time>2000-01-01T04:15:16.000Z</time>
      </trkpt>
      <trkpt lat="43.61099" lon="1.52887">
        <ele>204</ele>
        <time>2000-01-01T04:15:26.000Z</time>
      </trkpt>
      <trkpt lat="43.61105" lon="1.52897">
        <ele>215.8</ele>
        <time>2000-01-01T04:15:36.000Z</time>
      </trkpt>
      <trkpt lat="43.61114" lon="1.52904">
        <ele>206</ele>
        <time>2000-01-01T04:15:46.000Z</time>
      </trkpt>
      <trkpt lat="43.61119" lon="1.52915">
        <ele>217.5</ele>
        <time>2000-01-01T04:15:56.000Z</time>
      </trkpt>
      <trkpt lat="43.61126" lon="1.52924">
        <ele>218.2</ele>
        <time>2000-01-01T04:16:06.000Z</time>
      </trkpt>
      <trkpt lat="43.61131" lon="1.52932">
        <ele>207</ele>
        <time>2000-01-01T04:16:16.000Z</time>
      </trkpt>
      <trkpt lat="43.61137" lon="1.52923">
        <ele>219.1</ele>
        <time>2000-01-01T04:16:26.000Z</time>
      </trkpt>
      <trkpt lat="43.6114" lon="1.52909">
        <ele>207</ele>
        <time>2000-01-01T04:16:36.000Z</time>
      </trkpt>
      <trkpt lat="43.61147" lon="1.52898">
        <ele>218.6</ele>
        <time>2000-01-01T04:16:46.000Z</time>
      </trkpt>
      <trkpt lat="43.61151" lon="1.52888">
        <ele>218.4</ele>
        <time>2000-01-01T04:16:56.000Z</time>
      </trkpt>
      <trkpt lat="43.61156" lon="1.52879">
        <ele>207</ele>
        <time>2000-01-01T04:17:06.000Z</time>
      </trkpt>
      <trkpt lat="43.61162" lon="1.52866">
        <ele>218</ele>
        <time>2000-01-01T04:17:16.000Z</time>
      </trkpt>
      <trkpt lat="43.61166" lon="1.52855">
        <ele>207</ele>
        <time>2000-01-01T04:17:26.000Z</time>
      </trkpt>
      <trkpt lat="43.61163" lon="1.52842">
        <ele>217.1</ele>
        <time>2000-01-01T04:17:36.000Z</time>
      </trkpt>
      <trkpt lat="43.61171" lon="1.52834">
        <ele>206</ele>
        <time>2000-01-01T04:17:46.000Z</time>
      </trkpt>
      <trkpt lat="43.61177" lon="1.52823">
        <ele>216.9</ele>
        <time>2000-01-01T04:17:56.000Z</time>
      </trkpt>
      <trkpt lat="43.61182" lon="1.52815">
        <ele>217</ele>
        <time>2000-01-01T04:18:06.000Z</time>
      </trkpt>
      <trkpt lat="43.61186" lon="1.52803">
        <ele>206</ele>
        <time>2000-01-01T04:18:16.000Z</time>
      </trkpt>
      <trkpt lat="43.61193" lon="1.52793">
        <ele>217.4</ele>
        <time>2000-01-01T04:18:26.000Z</time>
      </trkpt>
      <trkpt lat="43.61197" lon="1.52782">
        <ele>217.3</ele>
        <time>2000-01-01T04:18:36.000Z</time>
      </trkpt>
      <trkpt lat="43.61194" lon="1.52771">
        <ele>206</ele>
        <time>2000-01-01T04:18:46.000Z</time>
      </trkpt>
      <trkpt lat="43.61196" lon="1.52759">
        <ele>217.1</ele>
        <time>2000-01-01T04:18:56.000Z</time>
      </trkpt>
      <trkpt lat="43.61199" lon="1.52744">
        <ele>205</ele>
        <time>2000-01-01T04:19:06.000Z</time>
      </trkpt>
      <trkpt lat="43.61197" lon="1.52733">
        <ele>217.2</ele>
        <time>2000-01-01T04:19:16.000Z</time>
      </trkpt>
      <trkpt lat="43.61196" lon="1.52718">
        <ele>217.1</ele>
        <time>2000-01-01T04:19:26.000Z</time>
      </trkpt>
      <trkpt lat="43.61196" lon="1.52704">
        <ele>205</ele>
        <time>2000-01-01T04:19:36.000Z</time>
      </trkpt>
      <trkpt lat="43.612" lon="1.52695">
        <ele>217.2</ele>
        <time>2000-01-01T04:19:46.000Z</time>
      </trkpt>
      <trkpt lat="43.61206" lon="1.52686">
        <ele>217.4</ele>
        <time>2000-01-01T04:19:56.000Z</time>
      </trkpt>
      <trkpt lat="43.6121" lon="1.52675">
        <ele>206</ele>
        <time>2000-01-01T04:20:06.000Z</time>
      </trkpt>
      <trkpt lat="43.61211" lon="1.52663">
        <ele>217.6</ele>
        <time>2000-01-01T04:20:16.000Z</time>
      </trkpt>
      <trkpt lat="43.61222" lon="1.52657">
        <ele>209</ele>
        <time>2000-01-01T04:20:26.000Z</time>
      </trkpt>
      <trkpt lat="43.6123" lon="1.52653">
        <ele>218.1</ele>
        <time>2000-01-01T04:20:36.000Z</time>
      </trkpt>
      <trkpt lat="43.61238" lon="1.52653">
        <ele>218.3</ele>
        <time>2000-01-01T04:20:46.000Z</time>
      </trkpt>
      <trkpt lat="43.61247" lon="1.52659">
        <ele>209</ele>
        <time>2000-01-01T04:20:56.000Z</time>
      </trkpt>
      <trkpt lat="43.61256" lon="1.52666">
        <ele>219.2</ele>
        <time>2000-01-01T04:21:06.000Z</time>
      </trkpt>
      <trkpt lat="43.61268" lon="1.52674">
        <ele>210</ele>
        <time>2000-01-01T04:21:16.000Z</time>
      </trkpt>
      <trkpt lat="43.61277" lon="1.52683">
        <ele>220.5</ele>
        <time>2000-01-01T04:21:26.000Z</time>
      </trkpt>
      <trkpt lat="43.61285" lon="1.5269">
        <ele>211</ele>
        <time>2000-01-01T04:21:36.000Z</time>
      </trkpt>
      <trkpt lat="43.61297" lon="1.52697">
        <ele>221.8</ele>
        <time>2000-01-01T04:21:46.000Z</time>
      </trkpt>
      <trkpt lat="43.61305" lon="1.527">
        <ele>211</ele>
        <time>2000-01-01T04:21:56.000Z</time>
      </trkpt>
      <trkpt lat="43.61316" lon="1.52705">
        <ele>222.4</ele>
        <time>2000-01-01T04:22:06.000Z</time>
      </trkpt>
      <trkpt lat="43.61326" lon="1.52707">
        <ele>211</ele>
        <time>2000-01-01T04:22:16.000Z</time>
      </trkpt>
      <trkpt lat="43.61336" lon="1.5271">
        <ele>222.7</ele>
        <time>2000-01-01T04:22:26.000Z</time>
      </trkpt>
      <trkpt lat="43.61345" lon="1.52713">
        <ele>211</ele>
        <time>2000-01-01T04:22:36.000Z</time>
      </trkpt>
      <trkpt lat="43.61353" lon="1.5272">
        <ele>223.6</ele>
        <time>2000-01-01T04:22:46.000Z</time>
      </trkpt>
      <trkpt lat="43.61361" lon="1.52723">
        <ele>224</ele>
        <time>2000-01-01T04:22:56.000Z</time>
      </trkpt>
      <trkpt lat="43.61353" lon="1.52717">
        <ele>211</ele>
        <time>2000-01-01T04:23:06.000Z</time>
      </trkpt>
      <trkpt lat="43.61362" lon="1.5271">
        <ele>223.6</ele>
        <time>2000-01-01T04:23:16.000Z</time>
      </trkpt>
      <trkpt lat="43.61372" lon="1.52697">
        <ele>210</ele>
        <time>2000-01-01T04:23:26.000Z</time>
      </trkpt>
      <trkpt lat="43.61377" lon="1.52686">
        <ele>223.3</ele>
        <time>2000-01-01T04:23:36.000Z</time>
      </trkpt>
      <trkpt lat="43.6138" lon="1.52674">
        <ele>222.9</ele>
        <time>2000-01-01T04:23:46.000Z</time>
      </trkpt>
      <trkpt lat="43.61386" lon="1.52666">
        <ele>208</ele>
        <time>2000-01-01T04:23:56.000Z</time>
      </trkpt>
      <trkpt lat="43.61397" lon="1.52663">
        <ele>222.9</ele>
        <time>2000-01-01T04:24:06.000Z</time>
      </trkpt>
      <trkpt lat="43.61399" lon="1.52651">
        <ele>222.6</ele>
        <time>2000-01-01T04:24:16.000Z</time>
      </trkpt>
      <trkpt lat="43.61409" lon="1.52644">
        <ele>204</ele>
        <time>2000-01-01T04:24:26.000Z</time>
      </trkpt>
      <trkpt lat="43.61414" lon="1.52632">
        <ele>222.7</ele>
        <time>2000-01-01T04:24:36.000Z</time>
      </trkpt>
      <trkpt lat="43.61414" lon="1.5262">
        <ele>222.2</ele>
        <time>2000-01-01T04:24:46.000Z</time>
      </trkpt>
      <trkpt lat="43.61421" lon="1.52607">
        <ele>203</ele>
        <time>2000-01-01T04:24:56.000Z</time>
      </trkpt>
      <trkpt lat="43.61437" lon="1.52599">
        <ele>222.3</ele>
        <time>2000-01-01T04:25:06.000Z</time>
      </trkpt>
      <trkpt lat="43.61444" lon="1.52588">
        <ele>203</ele>
        <time>2000-01-01T04:25:16.000Z</time>
      </trkpt>
      <trkpt lat="43.6145" lon="1.52574">
        <ele>222.2</ele>
        <time>2000-01-01T04:25:26.000Z</time>
      </trkpt>
      <trkpt lat="43.61468" lon="1.52565">
        <ele>203</ele>
        <time>2000-01-01T04:25:36.000Z</time>
      </trkpt>
      <trkpt lat="43.61479" lon="1.52562">
        <ele>222.8</ele>
        <time>2000-01-01T04:25:46.000Z</time>
      </trkpt>
      <trkpt lat="43.6149" lon="1.52554">
        <ele>203</ele>
        <time>2000-01-01T04:25:56.000Z</time>
      </trkpt>
      <trkpt lat="43.61498" lon="1.52545">
        <ele>222</ele>
        <time>2000-01-01T04:26:06.000Z</time>
      </trkpt>
      <trkpt lat="43.61502" lon="1.52532">
        <ele>203</ele>
        <time>2000-01-01T04:26:16.000Z</time>
      </trkpt>
      <trkpt lat="43.61504" lon="1.5252">
        <ele>222</ele>
        <time>2000-01-01T04:26:26.000Z</time>
      </trkpt>
      <trkpt lat="43.61513" lon="1.52512">
        <ele>222</ele>
        <time>2000-01-01T04:26:36.000Z</time>
      </trkpt>
      <trkpt lat="43.61519" lon="1.52504">
        <ele>202</ele>
        <time>2000-01-01T04:26:46.000Z</time>
      </trkpt>
      <trkpt lat="43.61524" lon="1.52491">
        <ele>222</ele>
        <time>2000-01-01T04:26:56.000Z</time>
      </trkpt>
      <trkpt lat="43.61529" lon="1.52479">
        <ele>201</ele>
        <time>2000-01-01T04:27:06.000Z</time>
      </trkpt>
      <trkpt lat="43.61535" lon="1.52467">
        <ele>221.7</ele>
        <time>2000-01-01T04:27:16.000Z</time>
      </trkpt>
      <trkpt lat="43.61537" lon="1.52454">
        <ele>200</ele>
        <time>2000-01-01T04:27:26.000Z</time>
      </trkpt>
      <trkpt lat="43.61544" lon="1.52443">
        <ele>221.4</ele>
        <time>2000-01-01T04:27:36.000Z</time>
      </trkpt>
      <trkpt lat="43.61546" lon="1.52431">
        <ele>200</ele>
        <time>2000-01-01T04:27:46.000Z</time>
      </trkpt>
      <trkpt lat="43.6155" lon="1.52419">
        <ele>221.2</ele>
        <time>2000-01-01T04:27:56.000Z</time>
      </trkpt>
      <trkpt lat="43.61549" lon="1.52405">
        <ele>221.2</ele>
        <time>2000-01-01T04:28:06.000Z</time>
      </trkpt>
      <trkpt lat="43.61554" lon="1.52395">
        <ele>200.5</ele>
        <time>2000-01-01T04:28:16.000Z</time>
      </trkpt>
      <trkpt lat="43.61557" lon="1.52382">
        <ele>221</ele>
        <time>2000-01-01T04:28:26.000Z</time>
      </trkpt>
      <trkpt lat="43.61577" lon="1.52369">
        <ele>201</ele>
        <time>2000-01-01T04:28:36.000Z</time>
      </trkpt>
      <trkpt lat="43.61586" lon="1.52361">
        <ele>220.8</ele>
        <time>2000-01-01T04:28:46.000Z</time>
      </trkpt>
      <trkpt lat="43.61596" lon="1.52357">
        <ele>201</ele>
        <time>2000-01-01T04:28:56.000Z</time>
      </trkpt>
      <trkpt lat="43.61604" lon="1.5235">
        <ele>219.5</ele>
        <time>2000-01-01T04:29:06.000Z</time>
      </trkpt>
      <trkpt lat="43.61608" lon="1.52336">
        <ele>201</ele>
        <time>2000-01-01T04:29:16.000Z</time>
      </trkpt>
      <trkpt lat="43.6161" lon="1.52324">
        <ele>219.1</ele>
        <time>2000-01-01T04:29:26.000Z</time>
      </trkpt>
      <trkpt lat="43.61617" lon="1.52313">
        <ele>203</ele>
        <time>2000-01-01T04:29:36.000Z</time>
      </trkpt>
      <trkpt lat="43.61622" lon="1.52323">
        <ele>218.6</ele>
        <time>2000-01-01T04:29:46.000Z</time>
      </trkpt>
      <trkpt lat="43.61632" lon="1.52326">
        <ele>218.2</ele>
        <time>2000-01-01T04:29:56.000Z</time>
      </trkpt>
      <trkpt lat="43.61642" lon="1.52326">
        <ele>203</ele>
        <time>2000-01-01T04:30:06.000Z</time>
      </trkpt>
      <trkpt lat="43.61656" lon="1.52327">
        <ele>216.3</ele>
        <time>2000-01-01T04:30:16.000Z</time>
      </trkpt>
      <trkpt lat="43.61669" lon="1.52329">
        <ele>202</ele>
        <time>2000-01-01T04:30:26.000Z</time>
      </trkpt>
      <trkpt lat="43.61681" lon="1.5233">
        <ele>214.5</ele>
        <time>2000-01-01T04:30:36.000Z</time>
      </trkpt>
      <trkpt lat="43.61689" lon="1.52339">
        <ele>202</ele>
        <time>2000-01-01T04:30:46.000Z</time>
      </trkpt>
      <trkpt lat="43.61698" lon="1.52346">
        <ele>213.3</ele>
        <time>2000-01-01T04:30:56.000Z</time>
      </trkpt>
      <trkpt lat="43.61707" lon="1.5235">
        <ele>201</ele>
        <time>2000-01-01T04:31:06.000Z</time>
      </trkpt>
      <trkpt lat="43.61721" lon="1.52353">
        <ele>212.1</ele>
        <time>2000-01-01T04:31:16.000Z</time>
      </trkpt>
      <trkpt lat="43.61731" lon="1.52357">
        <ele>200</ele>
        <time>2000-01-01T04:31:26.000Z</time>
      </trkpt>
      <trkpt lat="43.61739" lon="1.52361">
        <ele>210.8</ele>
        <time>2000-01-01T04:31:36.000Z</time>
      </trkpt>
      <trkpt lat="43.6175" lon="1.52364">
        <ele>209.9</ele>
        <time>2000-01-01T04:31:46.000Z</time>
      </trkpt>
      <trkpt lat="43.61758" lon="1.52366">
        <ele>199</ele>
        <time>2000-01-01T04:31:56.000Z</time>
      </trkpt>
      <trkpt lat="43.61767" lon="1.52368">
        <ele>209.1</ele>
        <time>2000-01-01T04:32:06.000Z</time>
      </trkpt>
      <trkpt lat="43.61778" lon="1.52371">
        <ele>197</ele>
        <time>2000-01-01T04:32:16.000Z</time>
      </trkpt>
      <trkpt lat="43.61789" lon="1.52375">
        <ele>207.7</ele>
        <time>2000-01-01T04:32:26.000Z</time>
      </trkpt>
      <trkpt lat="43.61798" lon="1.52378">
        <ele>194</ele>
        <time>2000-01-01T04:32:36.000Z</time>
      </trkpt>
      <trkpt lat="43.61806" lon="1.5238">
        <ele>206.3</ele>
        <time>2000-01-01T04:32:46.000Z</time>
      </trkpt>
      <trkpt lat="43.61816" lon="1.52383">
        <ele>205.8</ele>
        <time>2000-01-01T04:32:56.000Z</time>
      </trkpt>
      <trkpt lat="43.61826" lon="1.52386">
        <ele>190</ele>
        <time>2000-01-01T04:33:06.000Z</time>
      </trkpt>
      <trkpt lat="43.61836" lon="1.52388">
        <ele>204.9</ele>
        <time>2000-01-01T04:33:16.000Z</time>
      </trkpt>
      <trkpt lat="43.61848" lon="1.52392">
        <ele>189</ele>
        <time>2000-01-01T04:33:26.000Z</time>
      </trkpt>
      <trkpt lat="43.61854" lon="1.52401">
        <ele>203.3</ele>
        <time>2000-01-01T04:33:36.000Z</time>
      </trkpt>
      <trkpt lat="43.6186" lon="1.52412">
        <ele>202.3</ele>
        <time>2000-01-01T04:33:46.000Z</time>
      </trkpt>
      <trkpt lat="43.61858" lon="1.52423">
        <ele>189</ele>
        <time>2000-01-01T04:33:56.000Z</time>
      </trkpt>
      <trkpt lat="43.61857" lon="1.52434">
        <ele>200.8</ele>
        <time>2000-01-01T04:34:06.000Z</time>
      </trkpt>
      <trkpt lat="43.61854" lon="1.52447">
        <ele>199.8</ele>
        <time>2000-01-01T04:34:16.000Z</time>
      </trkpt>
      <trkpt lat="43.61852" lon="1.52458">
        <ele>188</ele>
        <time>2000-01-01T04:34:26.000Z</time>
      </trkpt>
      <trkpt lat="43.61851" lon="1.52469">
        <ele>198.2</ele>
        <time>2000-01-01T04:34:36.000Z</time>
      </trkpt>
      <trkpt lat="43.61848" lon="1.52483">
        <ele>197</ele>
        <time>2000-01-01T04:34:46.000Z</time>
      </trkpt>
      <trkpt lat="43.61846" lon="1.52497">
        <ele>187</ele>
        <time>2000-01-01T04:34:56.000Z</time>
      </trkpt>
      <trkpt lat="43.61844" lon="1.52511">
        <ele>194.7</ele>
        <time>2000-01-01T04:35:06.000Z</time>
      </trkpt>
      <trkpt lat="43.61843" lon="1.52523">
        <ele>194</ele>
        <time>2000-01-01T04:35:16.000Z</time>
      </trkpt>
      <trkpt lat="43.6184" lon="1.52536">
        <ele>186</ele>
        <time>2000-01-01T04:35:26.000Z</time>
      </trkpt>
      <trkpt lat="43.61836" lon="1.52549">
        <ele>191.8</ele>
        <time>2000-01-01T04:35:36.000Z</time>
      </trkpt>
      <trkpt lat="43.61833" lon="1.5256">
        <ele>190.9</ele>
        <time>2000-01-01T04:35:46.000Z</time>
      </trkpt>
      <trkpt lat="43.61829" lon="1.5257">
        <ele>186</ele>
        <time>2000-01-01T04:35:56.000Z</time>
      </trkpt>
      <trkpt lat="43.61824" lon="1.52583">
        <ele>190</ele>
        <time>2000-01-01T04:36:06.000Z</time>
      </trkpt>
      <trkpt lat="43.61821" lon="1.52594">
        <ele>189.7</ele>
        <time>2000-01-01T04:36:16.000Z</time>
      </trkpt>
      <trkpt lat="43.61816" lon="1.52606">
        <ele>188</ele>
        <time>2000-01-01T04:36:26.000Z</time>
      </trkpt>
      <trkpt lat="43.61813" lon="1.52617">
        <ele>188.2</ele>
        <time>2000-01-01T04:36:36.000Z</time>
      </trkpt>
      <trkpt lat="43.61808" lon="1.52629">
        <ele>187</ele>
        <time>2000-01-01T04:36:46.000Z</time>
      </trkpt>
      <trkpt lat="43.61804" lon="1.52643">
        <ele>188</ele>
        <time>2000-01-01T04:36:56.000Z</time>
      </trkpt>
      <trkpt lat="43.618" lon="1.52656">
        <ele>185.9</ele>
        <time>2000-01-01T04:37:06.000Z</time>
      </trkpt>
      <trkpt lat="43.61798" lon="1.52671">
        <ele>187</ele>
        <time>2000-01-01T04:37:16.000Z</time>
      </trkpt>
      <trkpt lat="43.61796" lon="1.52684">
        <ele>184.8</ele>
        <time>2000-01-01T04:37:26.000Z</time>
      </trkpt>
      <trkpt lat="43.61792" lon="1.52697">
        <ele>187</ele>
        <time>2000-01-01T04:37:36.000Z</time>
      </trkpt>
      <trkpt lat="43.61788" lon="1.52711">
        <ele>183.5</ele>
        <time>2000-01-01T04:37:46.000Z</time>
      </trkpt>
      <trkpt lat="43.61784" lon="1.52722">
        <ele>187</ele>
        <time>2000-01-01T04:37:56.000Z</time>
      </trkpt>
      <trkpt lat="43.61781" lon="1.52736">
        <ele>181.4</ele>
        <time>2000-01-01T04:38:06.000Z</time>
      </trkpt>
      <trkpt lat="43.61778" lon="1.52749">
        <ele>185</ele>
        <time>2000-01-01T04:38:16.000Z</time>
      </trkpt>
      <trkpt lat="43.61775" lon="1.52764">
        <ele>180.2</ele>
        <time>2000-01-01T04:38:26.000Z</time>
      </trkpt>
      <trkpt lat="43.61772" lon="1.52777">
        <ele>183</ele>
        <time>2000-01-01T04:38:36.000Z</time>
      </trkpt>
      <trkpt lat="43.61768" lon="1.52789">
        <ele>180.4</ele>
        <time>2000-01-01T04:38:46.000Z</time>
      </trkpt>
      <trkpt lat="43.61763" lon="1.528">
        <ele>180.2</ele>
        <time>2000-01-01T04:38:56.000Z</time>
      </trkpt>
      <trkpt lat="43.6176" lon="1.52813">
        <ele>181</ele>
        <time>2000-01-01T04:39:06.000Z</time>
      </trkpt>
      <trkpt lat="43.61756" lon="1.52827">
        <ele>178.8</ele>
        <time>2000-01-01T04:39:16.000Z</time>
      </trkpt>
      <trkpt lat="43.61753" lon="1.52839">
        <ele>177</ele>
        <time>2000-01-01T04:39:26.000Z</time>
      </trkpt>
      <trkpt lat="43.61747" lon="1.52852">
        <ele>177.5</ele>
        <time>2000-01-01T04:39:36.000Z</time>
      </trkpt>
      <trkpt lat="43.61745" lon="1.52864">
        <ele>175</ele>
        <time>2000-01-01T04:39:46.000Z</time>
      </trkpt>
      <trkpt lat="43.61742" lon="1.52877">
        <ele>176.8</ele>
        <time>2000-01-01T04:39:56.000Z</time>
      </trkpt>
      <trkpt lat="43.6174" lon="1.52888">
        <ele>176.4</ele>
        <time>2000-01-01T04:40:06.000Z</time>
      </trkpt>
      <trkpt lat="43.61738" lon="1.529">
        <ele>173</ele>
        <time>2000-01-01T04:40:16.000Z</time>
      </trkpt>
      <trkpt lat="43.61737" lon="1.52913">
        <ele>175.7</ele>
        <time>2000-01-01T04:40:26.000Z</time>
      </trkpt>
      <trkpt lat="43.61736" lon="1.52927">
        <ele>175.1</ele>
        <time>2000-01-01T04:40:36.000Z</time>
      </trkpt>
      <trkpt lat="43.61735" lon="1.52939">
        <ele>172</ele>
        <time>2000-01-01T04:40:46.000Z</time>
      </trkpt>
      <trkpt lat="43.61733" lon="1.52953">
        <ele>174.1</ele>
        <time>2000-01-01T04:40:56.000Z</time>
      </trkpt>
      <trkpt lat="43.61733" lon="1.52967">
        <ele>171</ele>
        <time>2000-01-01T04:41:06.000Z</time>
      </trkpt>
      <trkpt lat="43.61731" lon="1.52978">
        <ele>173.1</ele>
        <time>2000-01-01T04:41:16.000Z</time>
      </trkpt>
      <trkpt lat="43.61729" lon="1.52992">
        <ele>172.4</ele>
        <time>2000-01-01T04:41:26.000Z</time>
      </trkpt>
      <trkpt lat="43.61727" lon="1.53004">
        <ele>171</ele>
        <time>2000-01-01T04:41:36.000Z</time>
      </trkpt>
      <trkpt lat="43.61725" lon="1.53016">
        <ele>171.5</ele>
        <time>2000-01-01T04:41:46.000Z</time>
      </trkpt>
      <trkpt lat="43.61724" lon="1.53029">
        <ele>171.3</ele>
        <time>2000-01-01T04:41:56.000Z</time>
      </trkpt>
      <trkpt lat="43.61722" lon="1.53043">
        <ele>172</ele>
        <time>2000-01-01T04:42:06.000Z</time>
      </trkpt>
      <trkpt lat="43.61721" lon="1.53055">
        <ele>170.2</ele>
        <time>2000-01-01T04:42:16.000Z</time>
      </trkpt>
      <trkpt lat="43.6172" lon="1.53066">
        <ele>169.8</ele>
        <time>2000-01-01T04:42:26.000Z</time>
      </trkpt>
      <trkpt lat="43.61717" lon="1.5308">
        <ele>172</ele>
        <time>2000-01-01T04:42:36.000Z</time>
      </trkpt>
      <trkpt lat="43.61715" lon="1.53094">
        <ele>169.3</ele>
        <time>2000-01-01T04:42:46.000Z</time>
      </trkpt>
      <trkpt lat="43.61714" lon="1.53107">
        <ele>169.1</ele>
        <time>2000-01-01T04:42:56.000Z</time>
      </trkpt>
      <trkpt lat="43.61711" lon="1.53118">
        <ele>171</ele>
        <time>2000-01-01T04:43:06.000Z</time>
      </trkpt>
      <trkpt lat="43.6171" lon="1.53131">
        <ele>168</ele>
        <time>2000-01-01T04:43:16.000Z</time>
      </trkpt>
      <trkpt lat="43.61707" lon="1.53145">
        <ele>171</ele>
        <time>2000-01-01T04:43:26.000Z</time>
      </trkpt>
      <trkpt lat="43.61707" lon="1.53159">
        <ele>167.1</ele>
        <time>2000-01-01T04:43:36.000Z</time>
      </trkpt>
      <trkpt lat="43.61707" lon="1.5317">
        <ele>166.8</ele>
        <time>2000-01-01T04:43:46.000Z</time>
      </trkpt>
      <trkpt lat="43.61708" lon="1.53184">
        <ele>169</ele>
        <time>2000-01-01T04:43:56.000Z</time>
      </trkpt>
      <trkpt lat="43.61712" lon="1.53198">
        <ele>165.9</ele>
        <time>2000-01-01T04:44:06.000Z</time>
      </trkpt>
      <trkpt lat="43.61719" lon="1.53208">
        <ele>168.5</ele>
        <time>2000-01-01T04:44:16.000Z</time>
      </trkpt>
      <trkpt lat="43.61722" lon="1.5322">
        <ele>165.1</ele>
        <time>2000-01-01T04:44:26.000Z</time>
      </trkpt>
      <trkpt lat="43.61725" lon="1.5323">
        <ele>164.9</ele>
        <time>2000-01-01T04:44:36.000Z</time>
      </trkpt>
      <trkpt lat="43.61731" lon="1.5324">
        <ele>168</ele>
        <time>2000-01-01T04:44:46.000Z</time>
      </trkpt>
      <trkpt lat="43.61738" lon="1.53246">
        <ele>164.3</ele>
        <time>2000-01-01T04:44:56.000Z</time>
      </trkpt>
      <trkpt lat="43.61746" lon="1.53253">
        <ele>164</ele>
        <time>2000-01-01T04:45:06.000Z</time>
      </trkpt>
      <trkpt lat="43.61759" lon="1.53259">
        <ele>168</ele>
        <time>2000-01-01T04:45:16.000Z</time>
      </trkpt>
      <trkpt lat="43.61767" lon="1.53265">
        <ele>164.2</ele>
        <time>2000-01-01T04:45:26.000Z</time>
      </trkpt>
      <trkpt lat="43.61774" lon="1.53272">
        <ele>163.7</ele>
        <time>2000-01-01T04:45:36.000Z</time>
      </trkpt>
      <trkpt lat="43.6178" lon="1.53283">
        <ele>168</ele>
        <time>2000-01-01T04:45:46.000Z</time>
      </trkpt>
      <trkpt lat="43.61791" lon="1.53288">
        <ele>163.1</ele>
        <time>2000-01-01T04:45:56.000Z</time>
      </trkpt>
      <trkpt lat="43.61797" lon="1.53295">
        <ele>162.8</ele>
        <time>2000-01-01T04:46:06.000Z</time>
      </trkpt>
      <trkpt lat="43.61804" lon="1.53305">
        <ele>171</ele>
        <time>2000-01-01T04:46:16.000Z</time>
      </trkpt>
      <trkpt lat="43.61811" lon="1.53314">
        <ele>162.2</ele>
        <time>2000-01-01T04:46:26.000Z</time>
      </trkpt>
      <trkpt lat="43.61818" lon="1.5332">
        <ele>162.1</ele>
        <time>2000-01-01T04:46:36.000Z</time>
      </trkpt>
      <trkpt lat="43.61826" lon="1.53326">
        <ele>171</ele>
        <time>2000-01-01T04:46:46.000Z</time>
      </trkpt>
      <trkpt lat="43.61838" lon="1.53336">
        <ele>161.1</ele>
        <time>2000-01-01T04:46:56.000Z</time>
      </trkpt>
      <trkpt lat="43.61846" lon="1.53341">
        <ele>171</ele>
        <time>2000-01-01T04:47:06.000Z</time>
      </trkpt>
      <trkpt lat="43.61855" lon="1.53348">
        <ele>160.8</ele>
        <time>2000-01-01T04:47:16.000Z</time>
      </trkpt>
      <trkpt lat="43.61864" lon="1.53355">
        <ele>171</ele>
        <time>2000-01-01T04:47:26.000Z</time>
      </trkpt>
      <trkpt lat="43.61872" lon="1.53358">
        <ele>160.2</ele>
        <time>2000-01-01T04:47:36.000Z</time>
      </trkpt>
      <trkpt lat="43.61881" lon="1.53364">
        <ele>160</ele>
        <time>2000-01-01T04:47:46.000Z</time>
      </trkpt>
      <trkpt lat="43.61891" lon="1.53369">
        <ele>166</ele>
        <time>2000-01-01T04:47:56.000Z</time>
      </trkpt>
      <trkpt lat="43.61897" lon="1.53377">
        <ele>159.4</ele>
        <time>2000-01-01T04:48:06.000Z</time>
      </trkpt>
      <trkpt lat="43.61905" lon="1.53386">
        <ele>159.1</ele>
        <time>2000-01-01T04:48:16.000Z</time>
      </trkpt>
      <trkpt lat="43.61914" lon="1.53395">
        <ele>164</ele>
        <time>2000-01-01T04:48:26.000Z</time>
      </trkpt>
      <trkpt lat="43.61919" lon="1.53406">
        <ele>159</ele>
        <time>2000-01-01T04:48:36.000Z</time>
      </trkpt>
      <trkpt lat="43.6193" lon="1.53415">
        <ele>159</ele>
        <time>2000-01-01T04:48:46.000Z</time>
      </trkpt>
      <trkpt lat="43.61936" lon="1.53423">
        <ele>158.4</ele>
        <time>2000-01-01T04:48:56.000Z</time>
      </trkpt>
      <trkpt lat="43.6194" lon="1.53434">
        <ele>158.3</ele>
        <time>2000-01-01T04:49:06.000Z</time>
      </trkpt>
      <trkpt lat="43.61944" lon="1.53446">
        <ele>157</ele>
        <time>2000-01-01T04:49:16.000Z</time>
      </trkpt>
      <trkpt lat="43.61949" lon="1.53458">
        <ele>157.5</ele>
        <time>2000-01-01T04:49:26.000Z</time>
      </trkpt>
      <trkpt lat="43.61954" lon="1.53471">
        <ele>153</ele>
        <time>2000-01-01T04:49:36.000Z</time>
      </trkpt>
      <trkpt lat="43.61958" lon="1.53481">
        <ele>156.8</ele>
        <time>2000-01-01T04:49:46.000Z</time>
      </trkpt>
      <trkpt lat="43.61963" lon="1.53491">
        <ele>156.5</ele>
        <time>2000-01-01T04:49:56.000Z</time>
      </trkpt>
      <trkpt lat="43.61969" lon="1.53501">
        <ele>151</ele>
        <time>2000-01-01T04:50:06.000Z</time>
      </trkpt>
      <trkpt lat="43.61974" lon="1.53514">
        <ele>156</ele>
        <time>2000-01-01T04:50:16.000Z</time>
      </trkpt>
      <trkpt lat="43.61978" lon="1.53525">
        <ele>146</ele>
        <time>2000-01-01T04:50:26.000Z</time>
      </trkpt>
      <trkpt lat="43.61981" lon="1.53536">
        <ele>155.9</ele>
        <time>2000-01-01T04:50:36.000Z</time>
      </trkpt>
      <trkpt lat="43.61984" lon="1.53549">
        <ele>155.7</ele>
        <time>2000-01-01T04:50:46.000Z</time>
      </trkpt>
      <trkpt lat="43.61988" lon="1.5356">
        <ele>144</ele>
        <time>2000-01-01T04:50:56.000Z</time>
      </trkpt>
      <trkpt lat="43.61992" lon="1.53574">
        <ele>154.6</ele>
        <time>2000-01-01T04:51:06.000Z</time>
      </trkpt>
      <trkpt lat="43.61994" lon="1.53586">
        <ele>141</ele>
        <time>2000-01-01T04:51:16.000Z</time>
      </trkpt>
      <trkpt lat="43.61995" lon="1.53599">
        <ele>153.6</ele>
        <time>2000-01-01T04:51:26.000Z</time>
      </trkpt>
      <trkpt lat="43.61997" lon="1.53612">
        <ele>153.1</ele>
        <time>2000-01-01T04:51:36.000Z</time>
      </trkpt>
      <trkpt lat="43.61991" lon="1.53623">
        <ele>141</ele>
        <time>2000-01-01T04:51:46.000Z</time>
      </trkpt>
      <trkpt lat="43.61981" lon="1.53618">
        <ele>153.5</ele>
        <time>2000-01-01T04:51:56.000Z</time>
      </trkpt>
      <trkpt lat="43.61971" lon="1.53615">
        <ele>141</ele>
        <time>2000-01-01T04:52:06.000Z</time>
      </trkpt>
      <trkpt lat="43.61962" lon="1.53616">
        <ele>153.8</ele>
        <time>2000-01-01T04:52:16.000Z</time>
      </trkpt>
      <trkpt lat="43.61954" lon="1.53623">
        <ele>153.6</ele>
        <time>2000-01-01T04:52:26.000Z</time>
      </trkpt>
      <trkpt lat="43.61951" lon="1.53638">
        <ele>142</ele>
        <time>2000-01-01T04:52:36.000Z</time>
      </trkpt>
      <trkpt lat="43.61951" lon="1.53653">
        <ele>153</ele>
        <time>2000-01-01T04:52:46.000Z</time>
      </trkpt>
      <trkpt lat="43.61951" lon="1.53667">
        <ele>143</ele>
        <time>2000-01-01T04:52:56.000Z</time>
      </trkpt>
      <trkpt lat="43.61958" lon="1.53674">
        <ele>152.9</ele>
        <time>2000-01-01T04:53:06.000Z</time>
      </trkpt>
      <trkpt lat="43.61958" lon="1.53686">
        <ele>152.7</ele>
        <time>2000-01-01T04:53:16.000Z</time>
      </trkpt>
      <trkpt lat="43.61952" lon="1.53696">
        <ele>143</ele>
        <time>2000-01-01T04:53:26.000Z</time>
      </trkpt>
      <trkpt lat="43.61953" lon="1.53709">
        <ele>152.7</ele>
        <time>2000-01-01T04:53:36.000Z</time>
      </trkpt>
      <trkpt lat="43.61953" lon="1.5372">
        <ele>152.7</ele>
        <time>2000-01-01T04:53:46.000Z</time>
      </trkpt>
      <trkpt lat="43.61957" lon="1.53731">
        <ele>143</ele>
        <time>2000-01-01T04:53:56.000Z</time>
      </trkpt>
      <trkpt lat="43.61962" lon="1.5374">
        <ele>151.9</ele>
        <time>2000-01-01T04:54:06.000Z</time>
      </trkpt>
      <trkpt lat="43.61969" lon="1.53746">
        <ele>151.9</ele>
        <time>2000-01-01T04:54:16.000Z</time>
      </trkpt>
      <trkpt lat="43.61978" lon="1.53753">
        <ele>143</ele>
        <time>2000-01-01T04:54:26.000Z</time>
      </trkpt>
      <trkpt lat="43.61987" lon="1.53762">
        <ele>151.7</ele>
        <time>2000-01-01T04:54:36.000Z</time>
      </trkpt>
      <trkpt lat="43.61994" lon="1.53771">
        <ele>140</ele>
        <time>2000-01-01T04:54:46.000Z</time>
      </trkpt>
      <trkpt lat="43.62" lon="1.53779">
        <ele>152</ele>
        <time>2000-01-01T04:54:56.000Z</time>
      </trkpt>
      <trkpt lat="43.62011" lon="1.53787">
        <ele>138</ele>
        <time>2000-01-01T04:55:06.000Z</time>
      </trkpt>
      <trkpt lat="43.62019" lon="1.53793">
        <ele>151.1</ele>
        <time>2000-01-01T04:55:16.000Z</time>
      </trkpt>
      <trkpt lat="43.62027" lon="1.53798">
        <ele>151</ele>
        <time>2000-01-01T04:55:26.000Z</time>
      </trkpt>
      <trkpt lat="43.62033" lon="1.53807">
        <ele>138</ele>
        <time>2000-01-01T04:55:36.000Z</time>
      </trkpt>
      <trkpt lat="43.62013" lon="1.53838">
        <ele>137</ele>
        <time>2000-01-01T04:55:46.000Z</time>
      </trkpt>
      <trkpt lat="43.61981" lon="1.53887">
        <ele>135</ele>
        <time>2000-01-01T04:55:56.000Z</time>
      </trkpt>
      <trkpt lat="43.61973" lon="1.53885">
        <ele>151</ele>
        <time>2000-01-01T04:56:06.000Z</time>
      </trkpt>
      <trkpt lat="43.61965" lon="1.5389">
        <ele>151</ele>
        <time>2000-01-01T04:56:16.000Z</time>
      </trkpt>
      <trkpt lat="43.61957" lon="1.53892">
        <ele>133</ele>
        <time>2000-01-01T04:56:26.000Z</time>
      </trkpt>
      <trkpt lat="43.6195" lon="1.53898">
        <ele>151</ele>
        <time>2000-01-01T04:56:36.000Z</time>
      </trkpt>
      <trkpt lat="43.61943" lon="1.53908">
        <ele>151</ele>
        <time>2000-01-01T04:56:46.000Z</time>
      </trkpt>
      <trkpt lat="43.61934" lon="1.53915">
        <ele>132</ele>
        <time>2000-01-01T04:56:56.000Z</time>
      </trkpt>
      <trkpt lat="43.61928" lon="1.53925">
        <ele>151</ele>
        <time>2000-01-01T04:57:06.000Z</time>
      </trkpt>
      <trkpt lat="43.61919" lon="1.53931">
        <ele>131</ele>
        <time>2000-01-01T04:57:16.000Z</time>
      </trkpt>
      <trkpt lat="43.61912" lon="1.53939">
        <ele>151</ele>
        <time>2000-01-01T04:57:26.000Z</time>
      </trkpt>
      <trkpt lat="43.61904" lon="1.53948">
        <ele>151</ele>
        <time>2000-01-01T04:57:36.000Z</time>
      </trkpt>
      <trkpt lat="43.61896" lon="1.53953">
        <ele>129</ele>
        <time>2000-01-01T04:57:46.000Z</time>
      </trkpt>
      <trkpt lat="43.61886" lon="1.5396">
        <ele>151</ele>
        <time>2000-01-01T04:57:56.000Z</time>
      </trkpt>
      <trkpt lat="43.61879" lon="1.53967">
        <ele>151</ele>
        <time>2000-01-01T04:58:06.000Z</time>
      </trkpt>
      <trkpt lat="43.61872" lon="1.53973">
        <ele>128</ele>
        <time>2000-01-01T04:58:16.000Z</time>
      </trkpt>
      <trkpt lat="43.61863" lon="1.53978">
        <ele>151.2</ele>
        <time>2000-01-01T04:58:26.000Z</time>
      </trkpt>
      <trkpt lat="43.61854" lon="1.53983">
        <ele>151.3</ele>
        <time>2000-01-01T04:58:36.000Z</time>
      </trkpt>
      <trkpt lat="43.61846" lon="1.53989">
        <ele>128</ele>
        <time>2000-01-01T04:58:46.000Z</time>
      </trkpt>
      <trkpt lat="43.61838" lon="1.53993">
        <ele>151.1</ele>
        <time>2000-01-01T04:58:56.000Z</time>
      </trkpt>
      <trkpt lat="43.61829" lon="1.53998">
        <ele>151</ele>
        <time>2000-01-01T04:59:06.000Z</time>
      </trkpt>
      <trkpt lat="43.61822" lon="1.54002">
        <ele>129</ele>
        <time>2000-01-01T04:59:16.000Z</time>
      </trkpt>
      <trkpt lat="43.61813" lon="1.54007">
        <ele>151</ele>
        <time>2000-01-01T04:59:26.000Z</time>
      </trkpt>
      <trkpt lat="43.61806" lon="1.54018">
        <ele>129</ele>
        <time>2000-01-01T04:59:36.000Z</time>
      </trkpt>
      <trkpt lat="43.618" lon="1.54031">
        <ele>151</ele>
        <time>2000-01-01T04:59:46.000Z</time>
      </trkpt>
      <trkpt lat="43.61794" lon="1.54043">
        <ele>129</ele>
        <time>2000-01-01T04:59:56.000Z</time>
      </trkpt>
      <trkpt lat="43.61785" lon="1.54055">
        <ele>151</ele>
        <time>2000-01-01T05:00:06.000Z</time>
      </trkpt>
      <trkpt lat="43.61777" lon="1.54061">
        <ele>130</ele>
        <time>2000-01-01T05:00:16.000Z</time>
      </trkpt>
      <trkpt lat="43.61771" lon="1.5407">
        <ele>151.1</ele>
        <time>2000-01-01T05:00:26.000Z</time>
      </trkpt>
      <trkpt lat="43.61765" lon="1.54079">
        <ele>151.1</ele>
        <time>2000-01-01T05:00:36.000Z</time>
      </trkpt>
      <trkpt lat="43.61756" lon="1.54084">
        <ele>130</ele>
        <time>2000-01-01T05:00:46.000Z</time>
      </trkpt>
      <trkpt lat="43.61747" lon="1.54094">
        <ele>151.1</ele>
        <time>2000-01-01T05:00:56.000Z</time>
      </trkpt>
      <trkpt lat="43.61739" lon="1.54101">
        <ele>131</ele>
        <time>2000-01-01T05:01:06.000Z</time>
      </trkpt>
      <trkpt lat="43.6173" lon="1.54103">
        <ele>151.7</ele>
        <time>2000-01-01T05:01:16.000Z</time>
      </trkpt>
      <trkpt lat="43.61725" lon="1.54113">
        <ele>151.8</ele>
        <time>2000-01-01T05:01:26.000Z</time>
      </trkpt>
      <trkpt lat="43.61719" lon="1.5412">
        <ele>133</ele>
        <time>2000-01-01T05:01:36.000Z</time>
      </trkpt>
      <trkpt lat="43.61712" lon="1.54128">
        <ele>151.6</ele>
        <time>2000-01-01T05:01:46.000Z</time>
      </trkpt>
      <trkpt lat="43.61704" lon="1.54136">
        <ele>151.7</ele>
        <time>2000-01-01T05:01:56.000Z</time>
      </trkpt>
      <trkpt lat="43.61698" lon="1.54143">
        <ele>134</ele>
        <time>2000-01-01T05:02:06.000Z</time>
      </trkpt>
      <trkpt lat="43.6169" lon="1.5415">
        <ele>151.7</ele>
        <time>2000-01-01T05:02:16.000Z</time>
      </trkpt>
      <trkpt lat="43.61681" lon="1.54155">
        <ele>151.7</ele>
        <time>2000-01-01T05:02:26.000Z</time>
      </trkpt>
      <trkpt lat="43.61672" lon="1.54162">
        <ele>138</ele>
        <time>2000-01-01T05:02:36.000Z</time>
      </trkpt>
      <trkpt lat="43.61665" lon="1.54171">
        <ele>152</ele>
        <time>2000-01-01T05:02:46.000Z</time>
      </trkpt>
      <trkpt lat="43.61655" lon="1.54178">
        <ele>141</ele>
        <time>2000-01-01T05:02:56.000Z</time>
      </trkpt>
      <trkpt lat="43.61647" lon="1.54184">
        <ele>152.4</ele>
        <time>2000-01-01T05:03:06.000Z</time>
      </trkpt>
      <trkpt lat="43.61639" lon="1.54183">
        <ele>152.6</ele>
        <time>2000-01-01T05:03:16.000Z</time>
      </trkpt>
      <trkpt lat="43.61636" lon="1.54193">
        <ele>141</ele>
        <time>2000-01-01T05:03:26.000Z</time>
      </trkpt>
      <trkpt lat="43.61644" lon="1.54204">
        <ele>152.3</ele>
        <time>2000-01-01T05:03:36.000Z</time>
      </trkpt>
      <trkpt lat="43.61648" lon="1.54217">
        <ele>141.5</ele>
        <time>2000-01-01T05:03:46.000Z</time>
      </trkpt>
      <trkpt lat="43.61654" lon="1.54226">
        <ele>151.7</ele>
        <time>2000-01-01T05:03:56.000Z</time>
      </trkpt>
      <trkpt lat="43.61662" lon="1.54234">
        <ele>152.3</ele>
        <time>2000-01-01T05:04:06.000Z</time>
      </trkpt>
      <trkpt lat="43.61669" lon="1.54242">
        <ele>141.2</ele>
        <time>2000-01-01T05:04:16.000Z</time>
      </trkpt>
      <trkpt lat="43.61677" lon="1.54253">
        <ele>152.7</ele>
        <time>2000-01-01T05:04:26.000Z</time>
      </trkpt>
      <trkpt lat="43.61684" lon="1.54262">
        <ele>141</ele>
        <time>2000-01-01T05:04:36.000Z</time>
      </trkpt>
      <trkpt lat="43.61692" lon="1.54269">
        <ele>152.7</ele>
        <time>2000-01-01T05:04:46.000Z</time>
      </trkpt>
      <trkpt lat="43.61699" lon="1.54276">
        <ele>152.9</ele>
        <time>2000-01-01T05:04:56.000Z</time>
      </trkpt>
      <trkpt lat="43.61708" lon="1.54284">
        <ele>141</ele>
        <time>2000-01-01T05:05:06.000Z</time>
      </trkpt>
      <trkpt lat="43.61717" lon="1.54291">
        <ele>153</ele>
        <time>2000-01-01T05:05:16.000Z</time>
      </trkpt>
      <trkpt lat="43.61727" lon="1.54297">
        <ele>140</ele>
        <time>2000-01-01T05:05:26.000Z</time>
      </trkpt>
      <trkpt lat="43.61735" lon="1.54301">
        <ele>153.5</ele>
        <time>2000-01-01T05:05:36.000Z</time>
      </trkpt>
      <trkpt lat="43.61745" lon="1.54307">
        <ele>140</ele>
        <time>2000-01-01T05:05:46.000Z</time>
      </trkpt>
      <trkpt lat="43.61755" lon="1.54313">
        <ele>154.5</ele>
        <time>2000-01-01T05:05:56.000Z</time>
      </trkpt>
      <trkpt lat="43.61763" lon="1.54323">
        <ele>142</ele>
        <time>2000-01-01T05:06:06.000Z</time>
      </trkpt>
      <trkpt lat="43.61766" lon="1.54334">
        <ele>155.7</ele>
        <time>2000-01-01T05:06:16.000Z</time>
      </trkpt>
      <trkpt lat="43.61765" lon="1.54345">
        <ele>155.2</ele>
        <time>2000-01-01T05:06:26.000Z</time>
      </trkpt>
      <trkpt lat="43.6177" lon="1.54356">
        <ele>143</ele>
        <time>2000-01-01T05:06:36.000Z</time>
      </trkpt>
      <trkpt lat="43.61766" lon="1.54367">
        <ele>154.6</ele>
        <time>2000-01-01T05:06:46.000Z</time>
      </trkpt>
      <trkpt lat="43.61768" lon="1.54378">
        <ele>154.6</ele>
        <time>2000-01-01T05:06:56.000Z</time>
      </trkpt>
      <trkpt lat="43.61773" lon="1.54391">
        <ele>147</ele>
        <time>2000-01-01T05:07:06.000Z</time>
      </trkpt>
      <trkpt lat="43.61776" lon="1.54402">
        <ele>155.4</ele>
        <time>2000-01-01T05:07:16.000Z</time>
      </trkpt>
      <trkpt lat="43.61776" lon="1.54416">
        <ele>155.9</ele>
        <time>2000-01-01T05:07:26.000Z</time>
      </trkpt>
      <trkpt lat="43.6178" lon="1.5443">
        <ele>148</ele>
        <time>2000-01-01T05:07:36.000Z</time>
      </trkpt>
      <trkpt lat="43.61784" lon="1.5444">
        <ele>156</ele>
        <time>2000-01-01T05:07:46.000Z</time>
      </trkpt>
      <trkpt lat="43.61792" lon="1.54446">
        <ele>156</ele>
        <time>2000-01-01T05:07:56.000Z</time>
      </trkpt>
      <trkpt lat="43.61799" lon="1.54452">
        <ele>148</ele>
        <time>2000-01-01T05:08:06.000Z</time>
      </trkpt>
      <trkpt lat="43.61809" lon="1.54458">
        <ele>156.1</ele>
        <time>2000-01-01T05:08:16.000Z</time>
      </trkpt>
      <trkpt lat="43.61819" lon="1.54463">
        <ele>152</ele>
        <time>2000-01-01T05:08:26.000Z</time>
      </trkpt>
      <trkpt lat="43.61827" lon="1.54468">
        <ele>156.8</ele>
        <time>2000-01-01T05:08:36.000Z</time>
      </trkpt>
      <trkpt lat="43.61834" lon="1.54474">
        <ele>157</ele>
        <time>2000-01-01T05:08:46.000Z</time>
      </trkpt>
      <trkpt lat="43.61842" lon="1.54481">
        <ele>152</ele>
        <time>2000-01-01T05:08:56.000Z</time>
      </trkpt>
      <trkpt lat="43.61851" lon="1.54489">
        <ele>157.6</ele>
        <time>2000-01-01T05:09:06.000Z</time>
      </trkpt>
      <trkpt lat="43.61856" lon="1.54501">
        <ele>153</ele>
        <time>2000-01-01T05:09:16.000Z</time>
      </trkpt>
      <trkpt lat="43.6186" lon="1.54511">
        <ele>157.6</ele>
        <time>2000-01-01T05:09:26.000Z</time>
      </trkpt>
      <trkpt lat="43.61865" lon="1.5452">
        <ele>157.6</ele>
        <time>2000-01-01T05:09:36.000Z</time>
      </trkpt>
      <trkpt lat="43.6187" lon="1.54531">
        <ele>153</ele>
        <time>2000-01-01T05:09:46.000Z</time>
      </trkpt>
      <trkpt lat="43.61875" lon="1.54541">
        <ele>158</ele>
        <time>2000-01-01T05:09:56.000Z</time>
      </trkpt>
      <trkpt lat="43.61872" lon="1.54553">
        <ele>157.8</ele>
        <time>2000-01-01T05:10:06.000Z</time>
      </trkpt>
      <trkpt lat="43.61874" lon="1.54567">
        <ele>153</ele>
        <time>2000-01-01T05:10:16.000Z</time>
      </trkpt>
      <trkpt lat="43.61876" lon="1.54581">
        <ele>158.5</ele>
        <time>2000-01-01T05:10:26.000Z</time>
      </trkpt>
      <trkpt lat="43.61878" lon="1.54592">
        <ele>158.6</ele>
        <time>2000-01-01T05:10:36.000Z</time>
      </trkpt>
      <trkpt lat="43.61879" lon="1.54603">
        <ele>153</ele>
        <time>2000-01-01T05:10:46.000Z</time>
      </trkpt>
      <trkpt lat="43.61879" lon="1.54615">
        <ele>158.8</ele>
        <time>2000-01-01T05:10:56.000Z</time>
      </trkpt>
      <trkpt lat="43.61879" lon="1.54626">
        <ele>159.2</ele>
        <time>2000-01-01T05:11:06.000Z</time>
      </trkpt>
      <trkpt lat="43.61878" lon="1.54638">
        <ele>153</ele>
        <time>2000-01-01T05:11:16.000Z</time>
      </trkpt>
      <trkpt lat="43.61879" lon="1.54653">
        <ele>159.6</ele>
        <time>2000-01-01T05:11:26.000Z</time>
      </trkpt>
      <trkpt lat="43.6188" lon="1.54666">
        <ele>153</ele>
        <time>2000-01-01T05:11:36.000Z</time>
      </trkpt>
      <trkpt lat="43.61881" lon="1.54679">
        <ele>160</ele>
        <time>2000-01-01T05:11:46.000Z</time>
      </trkpt>
      <trkpt lat="43.61884" lon="1.54692">
        <ele>154</ele>
        <time>2000-01-01T05:11:56.000Z</time>
      </trkpt>
      <trkpt lat="43.61885" lon="1.54706">
        <ele>160.8</ele>
        <time>2000-01-01T05:12:06.000Z</time>
      </trkpt>
      <trkpt lat="43.61886" lon="1.54721">
        <ele>154</ele>
        <time>2000-01-01T05:12:16.000Z</time>
      </trkpt>
      <trkpt lat="43.61885" lon="1.54734">
        <ele>161.2</ele>
        <time>2000-01-01T05:12:26.000Z</time>
      </trkpt>
      <trkpt lat="43.61883" lon="1.54747">
        <ele>161.5</ele>
        <time>2000-01-01T05:12:36.000Z</time>
      </trkpt>
      <trkpt lat="43.61881" lon="1.54761">
        <ele>154</ele>
        <time>2000-01-01T05:12:46.000Z</time>
      </trkpt>
      <trkpt lat="43.61881" lon="1.54775">
        <ele>161.7</ele>
        <time>2000-01-01T05:12:56.000Z</time>
      </trkpt>
      <trkpt lat="43.61883" lon="1.54788">
        <ele>161.8</ele>
        <time>2000-01-01T05:13:06.000Z</time>
      </trkpt>
      <trkpt lat="43.61882" lon="1.54801">
        <ele>153</ele>
        <time>2000-01-01T05:13:16.000Z</time>
      </trkpt>
      <trkpt lat="43.61883" lon="1.54814">
        <ele>162.1</ele>
        <time>2000-01-01T05:13:26.000Z</time>
      </trkpt>
      <trkpt lat="43.61882" lon="1.54829">
        <ele>152</ele>
        <time>2000-01-01T05:13:36.000Z</time>
      </trkpt>
      <trkpt lat="43.61883" lon="1.54844">
        <ele>162.8</ele>
        <time>2000-01-01T05:13:46.000Z</time>
      </trkpt>
      <trkpt lat="43.61881" lon="1.54857">
        <ele>152</ele>
        <time>2000-01-01T05:13:56.000Z</time>
      </trkpt>
      <trkpt lat="43.61881" lon="1.54869">
        <ele>162.9</ele>
        <time>2000-01-01T05:14:06.000Z</time>
      </trkpt>
      <trkpt lat="43.61884" lon="1.54882">
        <ele>163.4</ele>
        <time>2000-01-01T05:14:16.000Z</time>
      </trkpt>
      <trkpt lat="43.61883" lon="1.54896">
        <ele>152</ele>
        <time>2000-01-01T05:14:26.000Z</time>
      </trkpt>
      <trkpt lat="43.61882" lon="1.54908">
        <ele>163.7</ele>
        <time>2000-01-01T05:14:36.000Z</time>
      </trkpt>
      <trkpt lat="43.61881" lon="1.54921">
        <ele>163.7</ele>
        <time>2000-01-01T05:14:46.000Z</time>
      </trkpt>
      <trkpt lat="43.61881" lon="1.54936">
        <ele>152</ele>
        <time>2000-01-01T05:14:56.000Z</time>
      </trkpt>
      <trkpt lat="43.61881" lon="1.54949">
        <ele>163.8</ele>
        <time>2000-01-01T05:15:06.000Z</time>
      </trkpt>
      <trkpt lat="43.61882" lon="1.5496">
        <ele>163.9</ele>
        <time>2000-01-01T05:15:16.000Z</time>
      </trkpt>
      <trkpt lat="43.61882" lon="1.54973">
        <ele>155</ele>
        <time>2000-01-01T05:15:26.000Z</time>
      </trkpt>
      <trkpt lat="43.61883" lon="1.54986">
        <ele>164.4</ele>
        <time>2000-01-01T05:15:36.000Z</time>
      </trkpt>
      <trkpt lat="43.61884" lon="1.54999">
        <ele>164.8</ele>
        <time>2000-01-01T05:15:46.000Z</time>
      </trkpt>
      <trkpt lat="43.61885" lon="1.55013">
        <ele>156</ele>
        <time>2000-01-01T05:15:56.000Z</time>
      </trkpt>
      <trkpt lat="43.61887" lon="1.55026">
        <ele>164.9</ele>
        <time>2000-01-01T05:16:06.000Z</time>
      </trkpt>
      <trkpt lat="43.6189" lon="1.5504">
        <ele>156</ele>
        <time>2000-01-01T05:16:16.000Z</time>
      </trkpt>
      <trkpt lat="43.61894" lon="1.55051">
        <ele>165.4</ele>
        <time>2000-01-01T05:16:26.000Z</time>
      </trkpt>
      <trkpt lat="43.61897" lon="1.55065">
        <ele>165.7</ele>
        <time>2000-01-01T05:16:36.000Z</time>
      </trkpt>
      <trkpt lat="43.61901" lon="1.55075">
        <ele>157</ele>
        <time>2000-01-01T05:16:46.000Z</time>
      </trkpt>
      <trkpt lat="43.61906" lon="1.55083">
        <ele>166</ele>
        <time>2000-01-01T05:16:56.000Z</time>
      </trkpt>
      <trkpt lat="43.61912" lon="1.55093">
        <ele>166.1</ele>
        <time>2000-01-01T05:17:06.000Z</time>
      </trkpt>
      <trkpt lat="43.61917" lon="1.55104">
        <ele>157</ele>
        <time>2000-01-01T05:17:16.000Z</time>
      </trkpt>
      <trkpt lat="43.61921" lon="1.55114">
        <ele>166.3</ele>
        <time>2000-01-01T05:17:26.000Z</time>
      </trkpt>
      <trkpt lat="43.61926" lon="1.55126">
        <ele>166.5</ele>
        <time>2000-01-01T05:17:36.000Z</time>
      </trkpt>
      <trkpt lat="43.61935" lon="1.55132">
        <ele>160</ele>
        <time>2000-01-01T05:17:46.000Z</time>
      </trkpt>
      <trkpt lat="43.61944" lon="1.55134">
        <ele>167.2</ele>
        <time>2000-01-01T05:17:56.000Z</time>
      </trkpt>
      <trkpt lat="43.6195" lon="1.55125">
        <ele>168.5</ele>
        <time>2000-01-01T05:18:06.000Z</time>
      </trkpt>
      <trkpt lat="43.6196" lon="1.55121">
        <ele>163</ele>
        <time>2000-01-01T05:18:16.000Z</time>
      </trkpt>
      <trkpt lat="43.61968" lon="1.55125">
        <ele>171.7</ele>
        <time>2000-01-01T05:18:26.000Z</time>
      </trkpt>
      <trkpt lat="43.61979" lon="1.55129">
        <ele>165</ele>
        <time>2000-01-01T05:18:36.000Z</time>
      </trkpt>
      <trkpt lat="43.61987" lon="1.55138">
        <ele>171.8</ele>
        <time>2000-01-01T05:18:46.000Z</time>
      </trkpt>
      <trkpt lat="43.61996" lon="1.55146">
        <ele>167</ele>
        <time>2000-01-01T05:18:56.000Z</time>
      </trkpt>
      <trkpt lat="43.61999" lon="1.5516">
        <ele>173.6</ele>
        <time>2000-01-01T05:19:06.000Z</time>
      </trkpt>
      <trkpt lat="43.61998" lon="1.55172">
        <ele>168</ele>
        <time>2000-01-01T05:19:16.000Z</time>
      </trkpt>
      <trkpt lat="43.61997" lon="1.55185">
        <ele>175.4</ele>
        <time>2000-01-01T05:19:26.000Z</time>
      </trkpt>
      <trkpt lat="43.62003" lon="1.55196">
        <ele>177.6</ele>
        <time>2000-01-01T05:19:36.000Z</time>
      </trkpt>
      <trkpt lat="43.62011" lon="1.552">
        <ele>168</ele>
        <time>2000-01-01T05:19:46.000Z</time>
      </trkpt>
      <trkpt lat="43.62017" lon="1.55207">
        <ele>180.4</ele>
        <time>2000-01-01T05:19:56.000Z</time>
      </trkpt>
      <trkpt lat="43.62026" lon="1.55211">
        <ele>182.1</ele>
        <time>2000-01-01T05:20:06.000Z</time>
      </trkpt>
      <trkpt lat="43.62033" lon="1.55214">
        <ele>168</ele>
        <time>2000-01-01T05:20:16.000Z</time>
      </trkpt>
      <trkpt lat="43.62042" lon="1.55215">
        <ele>185.3</ele>
        <time>2000-01-01T05:20:26.000Z</time>
      </trkpt>
      <trkpt lat="43.6205" lon="1.55221">
        <ele>186.8</ele>
        <time>2000-01-01T05:20:36.000Z</time>
      </trkpt>
      <trkpt lat="43.6206" lon="1.55221">
        <ele>172</ele>
        <time>2000-01-01T05:20:46.000Z</time>
      </trkpt>
      <trkpt lat="43.62069" lon="1.55222">
        <ele>190.9</ele>
        <time>2000-01-01T05:20:56.000Z</time>
      </trkpt>
      <trkpt lat="43.62077" lon="1.55225">
        <ele>192.2</ele>
        <time>2000-01-01T05:21:06.000Z</time>
      </trkpt>
      <trkpt lat="43.62086" lon="1.55229">
        <ele>178</ele>
        <time>2000-01-01T05:21:16.000Z</time>
      </trkpt>
      <trkpt lat="43.62094" lon="1.55232">
        <ele>194.3</ele>
        <time>2000-01-01T05:21:26.000Z</time>
      </trkpt>
      <trkpt lat="43.62103" lon="1.55236">
        <ele>195.1</ele>
        <time>2000-01-01T05:21:36.000Z</time>
      </trkpt>
      <trkpt lat="43.62111" lon="1.55238">
        <ele>184</ele>
        <time>2000-01-01T05:21:46.000Z</time>
      </trkpt>
      <trkpt lat="43.6212" lon="1.55244">
        <ele>196</ele>
        <time>2000-01-01T05:21:56.000Z</time>
      </trkpt>
      <trkpt lat="43.6213" lon="1.55248">
        <ele>189</ele>
        <time>2000-01-01T05:22:06.000Z</time>
      </trkpt>
      <trkpt lat="43.62138" lon="1.55251">
        <ele>197.8</ele>
        <time>2000-01-01T05:22:16.000Z</time>
      </trkpt>
      <trkpt lat="43.62147" lon="1.55254">
        <ele>199.7</ele>
        <time>2000-01-01T05:22:26.000Z</time>
      </trkpt>
      <trkpt lat="43.62155" lon="1.55257">
        <ele>194</ele>
        <time>2000-01-01T05:22:36.000Z</time>
      </trkpt>
      <trkpt lat="43.62165" lon="1.5526">
        <ele>203.5</ele>
        <time>2000-01-01T05:22:46.000Z</time>
      </trkpt>
      <trkpt lat="43.62173" lon="1.55266">
        <ele>205.1</ele>
        <time>2000-01-01T05:22:56.000Z</time>
      </trkpt>
      <trkpt lat="43.62181" lon="1.55271">
        <ele>199</ele>
        <time>2000-01-01T05:23:06.000Z</time>
      </trkpt>
      <trkpt lat="43.6219" lon="1.55273">
        <ele>209.2</ele>
        <time>2000-01-01T05:23:16.000Z</time>
      </trkpt>
      <trkpt lat="43.62199" lon="1.55276">
        <ele>211.5</ele>
        <time>2000-01-01T05:23:26.000Z</time>
      </trkpt>
      <trkpt lat="43.62207" lon="1.55278">
        <ele>201</ele>
        <time>2000-01-01T05:23:36.000Z</time>
      </trkpt>
      <trkpt lat="43.62215" lon="1.55283">
        <ele>216.1</ele>
        <time>2000-01-01T05:23:46.000Z</time>
      </trkpt>
      <trkpt lat="43.62222" lon="1.55289">
        <ele>218.3</ele>
        <time>2000-01-01T05:23:56.000Z</time>
      </trkpt>
      <trkpt lat="43.6223" lon="1.55286">
        <ele>201</ele>
        <time>2000-01-01T05:24:06.000Z</time>
      </trkpt>
      <trkpt lat="43.62236" lon="1.55278">
        <ele>220</ele>
        <time>2000-01-01T05:24:16.000Z</time>
      </trkpt>
      <trkpt lat="43.62243" lon="1.55286">
        <ele>221.3</ele>
        <time>2000-01-01T05:24:26.000Z</time>
      </trkpt>
      <trkpt lat="43.62245" lon="1.55299">
        <ele>204</ele>
        <time>2000-01-01T05:24:36.000Z</time>
      </trkpt>
      <trkpt lat="43.62248" lon="1.5531">
        <ele>222.9</ele>
        <time>2000-01-01T05:24:46.000Z</time>
      </trkpt>
      <trkpt lat="43.62251" lon="1.55321">
        <ele>223.7</ele>
        <time>2000-01-01T05:24:56.000Z</time>
      </trkpt>
      <trkpt lat="43.62252" lon="1.55335">
        <ele>207</ele>
        <time>2000-01-01T05:25:06.000Z</time>
      </trkpt>
      <trkpt lat="43.62252" lon="1.55349">
        <ele>224.9</ele>
        <time>2000-01-01T05:25:16.000Z</time>
      </trkpt>
      <trkpt lat="43.62254" lon="1.55363">
        <ele>208</ele>
        <time>2000-01-01T05:25:26.000Z</time>
      </trkpt>
      <trkpt lat="43.62255" lon="1.55377">
        <ele>226.3</ele>
        <time>2000-01-01T05:25:36.000Z</time>
      </trkpt>
      <trkpt lat="43.62255" lon="1.5539">
        <ele>209</ele>
        <time>2000-01-01T05:25:46.000Z</time>
      </trkpt>
      <trkpt lat="43.62255" lon="1.55403">
        <ele>227.7</ele>
        <time>2000-01-01T05:25:56.000Z</time>
      </trkpt>
      <trkpt lat="43.62256" lon="1.55416">
        <ele>228.8</ele>
        <time>2000-01-01T05:26:06.000Z</time>
      </trkpt>
      <trkpt lat="43.62256" lon="1.5543">
        <ele>210</ele>
        <time>2000-01-01T05:26:16.000Z</time>
      </trkpt>
      <trkpt lat="43.62257" lon="1.55441">
        <ele>230.1</ele>
        <time>2000-01-01T05:26:26.000Z</time>
      </trkpt>
      <trkpt lat="43.62257" lon="1.55455">
        <ele>230.6</ele>
        <time>2000-01-01T05:26:36.000Z</time>
      </trkpt>
      <trkpt lat="43.62255" lon="1.55467">
        <ele>211</ele>
        <time>2000-01-01T05:26:46.000Z</time>
      </trkpt>
      <trkpt lat="43.62256" lon="1.55479">
        <ele>231.5</ele>
        <time>2000-01-01T05:26:56.000Z</time>
      </trkpt>
      <trkpt lat="43.62256" lon="1.55491">
        <ele>232.1</ele>
        <time>2000-01-01T05:27:06.000Z</time>
      </trkpt>
      <trkpt lat="43.62258" lon="1.55504">
        <ele>214</ele>
        <time>2000-01-01T05:27:16.000Z</time>
      </trkpt>
      <trkpt lat="43.62259" lon="1.55516">
        <ele>233.4</ele>
        <time>2000-01-01T05:27:26.000Z</time>
      </trkpt>
      <trkpt lat="43.62261" lon="1.55531">
        <ele>233.7</ele>
        <time>2000-01-01T05:27:36.000Z</time>
      </trkpt>
      <trkpt lat="43.62264" lon="1.55542">
        <ele>215</ele>
        <time>2000-01-01T05:27:46.000Z</time>
      </trkpt>
      <trkpt lat="43.62268" lon="1.55555">
        <ele>233.7</ele>
        <time>2000-01-01T05:27:56.000Z</time>
      </trkpt>
      <trkpt lat="43.62272" lon="1.55566">
        <ele>233.8</ele>
        <time>2000-01-01T05:28:06.000Z</time>
      </trkpt>
      <trkpt lat="43.62275" lon="1.55578">
        <ele>220</ele>
        <time>2000-01-01T05:28:16.000Z</time>
      </trkpt>
      <trkpt lat="43.62274" lon="1.55591">
        <ele>233.9</ele>
        <time>2000-01-01T05:28:26.000Z</time>
      </trkpt>
      <trkpt lat="43.62274" lon="1.55602">
        <ele>233.9</ele>
        <time>2000-01-01T05:28:36.000Z</time>
      </trkpt>
      <trkpt lat="43.62274" lon="1.55615">
        <ele>220</ele>
        <time>2000-01-01T05:28:46.000Z</time>
      </trkpt>
      <trkpt lat="43.62271" lon="1.55627">
        <ele>233.2</ele>
        <time>2000-01-01T05:28:56.000Z</time>
      </trkpt>
      <trkpt lat="43.62266" lon="1.55637">
        <ele>232.6</ele>
        <time>2000-01-01T05:29:06.000Z</time>
      </trkpt>
      <trkpt lat="43.62261" lon="1.55646">
        <ele>219</ele>
        <time>2000-01-01T05:29:16.000Z</time>
      </trkpt>
      <trkpt lat="43.6226" lon="1.55658">
        <ele>231.4</ele>
        <time>2000-01-01T05:29:26.000Z</time>
      </trkpt>
      <trkpt lat="43.62254" lon="1.55667">
        <ele>231</ele>
        <time>2000-01-01T05:29:36.000Z</time>
      </trkpt>
      <trkpt lat="43.62252" lon="1.5568">
        <ele>217</ele>
        <time>2000-01-01T05:29:46.000Z</time>
      </trkpt>
      <trkpt lat="43.62253" lon="1.55693">
        <ele>229.1</ele>
        <time>2000-01-01T05:29:56.000Z</time>
      </trkpt>
      <trkpt lat="43.62251" lon="1.55705">
        <ele>228.6</ele>
        <time>2000-01-01T05:30:06.000Z</time>
      </trkpt>
      <trkpt lat="43.62244" lon="1.55713">
        <ele>217</ele>
        <time>2000-01-01T05:30:16.000Z</time>
      </trkpt>
      <trkpt lat="43.62241" lon="1.55724">
        <ele>227.3</ele>
        <time>2000-01-01T05:30:26.000Z</time>
      </trkpt>
      <trkpt lat="43.62238" lon="1.55735">
        <ele>226.9</ele>
        <time>2000-01-01T05:30:36.000Z</time>
      </trkpt>
      <trkpt lat="43.62238" lon="1.55747">
        <ele>217</ele>
        <time>2000-01-01T05:30:46.000Z</time>
      </trkpt>
      <trkpt lat="43.62236" lon="1.55759">
        <ele>226.2</ele>
        <time>2000-01-01T05:30:56.000Z</time>
      </trkpt>
      <trkpt lat="43.62233" lon="1.5577">
        <ele>225.7</ele>
        <time>2000-01-01T05:31:06.000Z</time>
      </trkpt>
      <trkpt lat="43.62228" lon="1.55781">
        <ele>215.5</ele>
        <time>2000-01-01T05:31:16.000Z</time>
      </trkpt>
      <trkpt lat="43.62225" lon="1.55796">
        <ele>224.4</ele>
        <time>2000-01-01T05:31:26.000Z</time>
      </trkpt>
      <trkpt lat="43.62225" lon="1.55807">
        <ele>214</ele>
        <time>2000-01-01T05:31:36.000Z</time>
      </trkpt>
      <trkpt lat="43.62219" lon="1.55817">
        <ele>223</ele>
        <time>2000-01-01T05:31:46.000Z</time>
      </trkpt>
      <trkpt lat="43.62217" lon="1.55828">
        <ele>222.3</ele>
        <time>2000-01-01T05:31:56.000Z</time>
      </trkpt>
      <trkpt lat="43.62212" lon="1.5584">
        <ele>214</ele>
        <time>2000-01-01T05:32:06.000Z</time>
      </trkpt>
      <trkpt lat="43.62206" lon="1.5585">
        <ele>220.8</ele>
        <time>2000-01-01T05:32:16.000Z</time>
      </trkpt>
      <trkpt lat="43.62199" lon="1.55859">
        <ele>220.4</ele>
        <time>2000-01-01T05:32:26.000Z</time>
      </trkpt>
      <trkpt lat="43.62193" lon="1.55869">
        <ele>213</ele>
        <time>2000-01-01T05:32:36.000Z</time>
      </trkpt>
      <trkpt lat="43.62189" lon="1.55881">
        <ele>220</ele>
        <time>2000-01-01T05:32:46.000Z</time>
      </trkpt>
      <trkpt lat="43.62189" lon="1.55895">
        <ele>220.5</ele>
        <time>2000-01-01T05:32:56.000Z</time>
      </trkpt>
      <trkpt lat="43.62184" lon="1.55905">
        <ele>209</ele>
        <time>2000-01-01T05:33:06.000Z</time>
      </trkpt>
      <trkpt lat="43.62176" lon="1.55907">
        <ele>219.4</ele>
        <time>2000-01-01T05:33:16.000Z</time>
      </trkpt>
      <trkpt lat="43.62168" lon="1.55916">
        <ele>219.1</ele>
        <time>2000-01-01T05:33:26.000Z</time>
      </trkpt>
      <trkpt lat="43.62164" lon="1.55926">
        <ele>208</ele>
        <time>2000-01-01T05:33:36.000Z</time>
      </trkpt>
      <trkpt lat="43.62164" lon="1.55941">
        <ele>219.7</ele>
        <time>2000-01-01T05:33:46.000Z</time>
      </trkpt>
      <trkpt lat="43.62155" lon="1.55942">
        <ele>219</ele>
        <time>2000-01-01T05:33:56.000Z</time>
      </trkpt>
      <trkpt lat="43.62148" lon="1.55931">
        <ele>205</ele>
        <time>2000-01-01T05:34:06.000Z</time>
      </trkpt>
      <trkpt lat="43.62137" lon="1.55926">
        <ele>216.5</ele>
        <time>2000-01-01T05:34:16.000Z</time>
      </trkpt>
      <trkpt lat="43.6213" lon="1.55919">
        <ele>203</ele>
        <time>2000-01-01T05:34:26.000Z</time>
      </trkpt>
      <trkpt lat="43.62121" lon="1.55916">
        <ele>214.7</ele>
        <time>2000-01-01T05:34:36.000Z</time>
      </trkpt>
      <trkpt lat="43.62111" lon="1.5591">
        <ele>203</ele>
        <time>2000-01-01T05:34:46.000Z</time>
      </trkpt>
      <trkpt lat="43.62102" lon="1.55907">
        <ele>212.2</ele>
        <time>2000-01-01T05:34:56.000Z</time>
      </trkpt>
      <trkpt lat="43.62094" lon="1.55899">
        <ele>210.5</ele>
        <time>2000-01-01T05:35:06.000Z</time>
      </trkpt>
      <trkpt lat="43.62088" lon="1.55889">
        <ele>201</ele>
        <time>2000-01-01T05:35:16.000Z</time>
      </trkpt>
      <trkpt lat="43.62082" lon="1.55878">
        <ele>207.1</ele>
        <time>2000-01-01T05:35:26.000Z</time>
      </trkpt>
      <trkpt lat="43.62076" lon="1.55868">
        <ele>205.8</ele>
        <time>2000-01-01T05:35:36.000Z</time>
      </trkpt>
      <trkpt lat="43.62072" lon="1.55857">
        <ele>199</ele>
        <time>2000-01-01T05:35:46.000Z</time>
      </trkpt>
      <trkpt lat="43.62066" lon="1.55848">
        <ele>202.5</ele>
        <time>2000-01-01T05:35:56.000Z</time>
      </trkpt>
      <trkpt lat="43.6206" lon="1.55838">
        <ele>200.9</ele>
        <time>2000-01-01T05:36:06.000Z</time>
      </trkpt>
      <trkpt lat="43.62053" lon="1.55828">
        <ele>199</ele>
        <time>2000-01-01T05:36:16.000Z</time>
      </trkpt>
      <trkpt lat="43.62046" lon="1.55819">
        <ele>198.1</ele>
        <time>2000-01-01T05:36:26.000Z</time>
      </trkpt>
      <trkpt lat="43.62039" lon="1.55811">
        <ele>196.7</ele>
        <time>2000-01-01T05:36:36.000Z</time>
      </trkpt>
      <trkpt lat="43.62034" lon="1.558">
        <ele>195</ele>
        <time>2000-01-01T05:36:46.000Z</time>
      </trkpt>
      <trkpt lat="43.62028" lon="1.5579">
        <ele>192.2</ele>
        <time>2000-01-01T05:36:56.000Z</time>
      </trkpt>
      <trkpt lat="43.62017" lon="1.55782">
        <ele>192</ele>
        <time>2000-01-01T05:37:06.000Z</time>
      </trkpt>
      <trkpt lat="43.6201" lon="1.55773">
        <ele>189.1</ele>
        <time>2000-01-01T05:37:16.000Z</time>
      </trkpt>
      <trkpt lat="43.62001" lon="1.55765">
        <ele>192</ele>
        <time>2000-01-01T05:37:26.000Z</time>
      </trkpt>
      <trkpt lat="43.61992" lon="1.55766">
        <ele>187.3</ele>
        <time>2000-01-01T05:37:36.000Z</time>
      </trkpt>
      <trkpt lat="43.61983" lon="1.55757">
        <ele>188</ele>
        <time>2000-01-01T05:37:46.000Z</time>
      </trkpt>
      <trkpt lat="43.61973" lon="1.55754">
        <ele>183.7</ele>
        <time>2000-01-01T05:37:56.000Z</time>
      </trkpt>
      <trkpt lat="43.61965" lon="1.5575">
        <ele>182.5</ele>
        <time>2000-01-01T05:38:06.000Z</time>
      </trkpt>
      <trkpt lat="43.61957" lon="1.55745">
        <ele>184</ele>
        <time>2000-01-01T05:38:16.000Z</time>
      </trkpt>
      <trkpt lat="43.61947" lon="1.55743">
        <ele>181.5</ele>
        <time>2000-01-01T05:38:26.000Z</time>
      </trkpt>
      <trkpt lat="43.61939" lon="1.55743">
        <ele>180.9</ele>
        <time>2000-01-01T05:38:36.000Z</time>
      </trkpt>
      <trkpt lat="43.6193" lon="1.55736">
        <ele>179</ele>
        <time>2000-01-01T05:38:46.000Z</time>
      </trkpt>
      <trkpt lat="43.6192" lon="1.55729">
        <ele>178.9</ele>
        <time>2000-01-01T05:38:56.000Z</time>
      </trkpt>
      <trkpt lat="43.61909" lon="1.55729">
        <ele>175</ele>
        <time>2000-01-01T05:39:06.000Z</time>
      </trkpt>
      <trkpt lat="43.61901" lon="1.55727">
        <ele>177.2</ele>
        <time>2000-01-01T05:39:16.000Z</time>
      </trkpt>
      <trkpt lat="43.6189" lon="1.55723">
        <ele>175</ele>
        <time>2000-01-01T05:39:26.000Z</time>
      </trkpt>
      <trkpt lat="43.61882" lon="1.55715">
        <ele>175.5</ele>
        <time>2000-01-01T05:39:36.000Z</time>
      </trkpt>
      <trkpt lat="43.61874" lon="1.55704">
        <ele>171</ele>
        <time>2000-01-01T05:39:46.000Z</time>
      </trkpt>
      <trkpt lat="43.61866" lon="1.55697">
        <ele>174.4</ele>
        <time>2000-01-01T05:39:56.000Z</time>
      </trkpt>
      <trkpt lat="43.61856" lon="1.55684">
        <ele>167</ele>
        <time>2000-01-01T05:40:06.000Z</time>
      </trkpt>
      <trkpt lat="43.61848" lon="1.55675">
        <ele>173.1</ele>
        <time>2000-01-01T05:40:16.000Z</time>
      </trkpt>
      <trkpt lat="43.6184" lon="1.55665">
        <ele>167</ele>
        <time>2000-01-01T05:40:26.000Z</time>
      </trkpt>
      <trkpt lat="43.61832" lon="1.55655">
        <ele>172.1</ele>
        <time>2000-01-01T05:40:36.000Z</time>
      </trkpt>
      <trkpt lat="43.61826" lon="1.55644">
        <ele>164</ele>
        <time>2000-01-01T05:40:46.000Z</time>
      </trkpt>
      <trkpt lat="43.6182" lon="1.55636">
        <ele>173</ele>
        <time>2000-01-01T05:40:56.000Z</time>
      </trkpt>
      <trkpt lat="43.61814" lon="1.55625">
        <ele>173.4</ele>
        <time>2000-01-01T05:41:06.000Z</time>
      </trkpt>
      <trkpt lat="43.61807" lon="1.55615">
        <ele>164</ele>
        <time>2000-01-01T05:41:16.000Z</time>
      </trkpt>
      <trkpt lat="43.618" lon="1.55608">
        <ele>174.9</ele>
        <time>2000-01-01T05:41:26.000Z</time>
      </trkpt>
      <trkpt lat="43.61793" lon="1.55602">
        <ele>175.8</ele>
        <time>2000-01-01T05:41:36.000Z</time>
      </trkpt>
      <trkpt lat="43.61785" lon="1.55595">
        <ele>165</ele>
        <time>2000-01-01T05:41:46.000Z</time>
      </trkpt>
      <trkpt lat="43.61776" lon="1.55589">
        <ele>177.4</ele>
        <time>2000-01-01T05:41:56.000Z</time>
      </trkpt>
      <trkpt lat="43.61768" lon="1.55584">
        <ele>178.1</ele>
        <time>2000-01-01T05:42:06.000Z</time>
      </trkpt>
      <trkpt lat="43.6176" lon="1.55578">
        <ele>166</ele>
        <time>2000-01-01T05:42:16.000Z</time>
      </trkpt>
      <trkpt lat="43.61752" lon="1.55572">
        <ele>180.2</ele>
        <time>2000-01-01T05:42:26.000Z</time>
      </trkpt>
      <trkpt lat="43.61744" lon="1.55565">
        <ele>181.4</ele>
        <time>2000-01-01T05:42:36.000Z</time>
      </trkpt>
      <trkpt lat="43.61737" lon="1.5556">
        <ele>170</ele>
        <time>2000-01-01T05:42:46.000Z</time>
      </trkpt>
      <trkpt lat="43.6173" lon="1.55552">
        <ele>183.3</ele>
        <time>2000-01-01T05:42:56.000Z</time>
      </trkpt>
      <trkpt lat="43.6166" lon="1.55476">
        <ele>170</ele>
        <time>2000-01-01T05:43:06.000Z</time>
      </trkpt>
      <trkpt lat="43.61652" lon="1.55473">
        <ele>185.5</ele>
        <time>2000-01-01T05:43:16.000Z</time>
      </trkpt>
      <trkpt lat="43.61645" lon="1.55466">
        <ele>184.8</ele>
        <time>2000-01-01T05:43:26.000Z</time>
      </trkpt>
      <trkpt lat="43.61636" lon="1.55457">
        <ele>170</ele>
        <time>2000-01-01T05:43:36.000Z</time>
      </trkpt>
      <trkpt lat="43.61631" lon="1.55448">
        <ele>183.5</ele>
        <time>2000-01-01T05:43:46.000Z</time>
      </trkpt>
      <trkpt lat="43.61623" lon="1.55438">
        <ele>183.2</ele>
        <time>2000-01-01T05:43:56.000Z</time>
      </trkpt>
      <trkpt lat="43.61616" lon="1.5543">
        <ele>170</ele>
        <time>2000-01-01T05:44:06.000Z</time>
      </trkpt>
      <trkpt lat="43.61607" lon="1.5542">
        <ele>182.5</ele>
        <time>2000-01-01T05:44:16.000Z</time>
      </trkpt>
      <trkpt lat="43.61599" lon="1.55415">
        <ele>169</ele>
        <time>2000-01-01T05:44:26.000Z</time>
      </trkpt>
      <trkpt lat="43.61591" lon="1.55411">
        <ele>183.4</ele>
        <time>2000-01-01T05:44:36.000Z</time>
      </trkpt>
      <trkpt lat="43.61582" lon="1.55408">
        <ele>184.1</ele>
        <time>2000-01-01T05:44:46.000Z</time>
      </trkpt>
      <trkpt lat="43.61573" lon="1.55405">
        <ele>169</ele>
        <time>2000-01-01T05:44:56.000Z</time>
      </trkpt>
      <trkpt lat="43.61565" lon="1.55401">
        <ele>186</ele>
        <time>2000-01-01T05:45:06.000Z</time>
      </trkpt>
      <trkpt lat="43.61556" lon="1.55398">
        <ele>187</ele>
        <time>2000-01-01T05:45:16.000Z</time>
      </trkpt>
      <trkpt lat="43.61548" lon="1.55394">
        <ele>170</ele>
        <time>2000-01-01T05:45:26.000Z</time>
      </trkpt>
      <trkpt lat="43.6154" lon="1.5539">
        <ele>189.2</ele>
        <time>2000-01-01T05:45:36.000Z</time>
      </trkpt>
      <trkpt lat="43.6153" lon="1.55386">
        <ele>190.7</ele>
        <time>2000-01-01T05:45:46.000Z</time>
      </trkpt>
      <trkpt lat="43.61522" lon="1.5538">
        <ele>173</ele>
        <time>2000-01-01T05:45:56.000Z</time>
      </trkpt>
      <trkpt lat="43.61527" lon="1.55368">
        <ele>191.1</ele>
        <time>2000-01-01T05:46:06.000Z</time>
      </trkpt>
      <trkpt lat="43.61534" lon="1.55358">
        <ele>176</ele>
        <time>2000-01-01T05:46:16.000Z</time>
      </trkpt>
      <trkpt lat="43.61542" lon="1.55352">
        <ele>189.8</ele>
        <time>2000-01-01T05:46:26.000Z</time>
      </trkpt>
      <trkpt lat="43.61549" lon="1.55345">
        <ele>189</ele>
        <time>2000-01-01T05:46:36.000Z</time>
      </trkpt>
      <trkpt lat="43.61557" lon="1.55341">
        <ele>177</ele>
        <time>2000-01-01T05:46:46.000Z</time>
      </trkpt>
      <trkpt lat="43.61567" lon="1.55333">
        <ele>186.8</ele>
        <time>2000-01-01T05:46:56.000Z</time>
      </trkpt>
      <trkpt lat="43.61573" lon="1.55322">
        <ele>176</ele>
        <time>2000-01-01T05:47:06.000Z</time>
      </trkpt>
      <trkpt lat="43.61578" lon="1.55311">
        <ele>185.6</ele>
        <time>2000-01-01T05:47:16.000Z</time>
      </trkpt>
      <trkpt lat="43.6158" lon="1.55299">
        <ele>185.4</ele>
        <time>2000-01-01T05:47:26.000Z</time>
      </trkpt>
      <trkpt lat="43.61584" lon="1.55287">
        <ele>177.5</ele>
        <time>2000-01-01T05:47:36.000Z</time>
      </trkpt>
      <trkpt lat="43.61589" lon="1.55275">
        <ele>184.5</ele>
        <time>2000-01-01T05:47:46.000Z</time>
      </trkpt>
      <trkpt lat="43.61594" lon="1.55264">
        <ele>184.2</ele>
        <time>2000-01-01T05:47:56.000Z</time>
      </trkpt>
      <trkpt lat="43.61598" lon="1.55253">
        <ele>177.2</ele>
        <time>2000-01-01T05:48:06.000Z</time>
      </trkpt>
      <trkpt lat="43.616" lon="1.55241">
        <ele>183.7</ele>
        <time>2000-01-01T05:48:16.000Z</time>
      </trkpt>
      <trkpt lat="43.61606" lon="1.5523">
        <ele>182.9</ele>
        <time>2000-01-01T05:48:26.000Z</time>
      </trkpt>
      <trkpt lat="43.6161" lon="1.55218">
        <ele>177.6</ele>
        <time>2000-01-01T05:48:36.000Z</time>
      </trkpt>
      <trkpt lat="43.61617" lon="1.55206">
        <ele>181.9</ele>
        <time>2000-01-01T05:48:46.000Z</time>
      </trkpt>
      <trkpt lat="43.61617" lon="1.55194">
        <ele>182.4</ele>
        <time>2000-01-01T05:48:56.000Z</time>
      </trkpt>
      <trkpt lat="43.61616" lon="1.55183">
        <ele>178</ele>
        <time>2000-01-01T05:49:06.000Z</time>
      </trkpt>
      <trkpt lat="43.61619" lon="1.55171">
        <ele>183</ele>
        <time>2000-01-01T05:49:16.000Z</time>
      </trkpt>
      <trkpt lat="43.61623" lon="1.55157">
        <ele>182.7</ele>
        <time>2000-01-01T05:49:26.000Z</time>
      </trkpt>
      <trkpt lat="43.61629" lon="1.5515">
        <ele>178</ele>
        <time>2000-01-01T05:49:36.000Z</time>
      </trkpt>
      <trkpt lat="43.61633" lon="1.5514">
        <ele>181.6</ele>
        <time>2000-01-01T05:49:46.000Z</time>
      </trkpt>
      <trkpt lat="43.61636" lon="1.55126">
        <ele>181.3</ele>
        <time>2000-01-01T05:49:56.000Z</time>
      </trkpt>
      <trkpt lat="43.6164" lon="1.55115">
        <ele>175</ele>
        <time>2000-01-01T05:50:06.000Z</time>
      </trkpt>
      <trkpt lat="43.61647" lon="1.55105">
        <ele>180.7</ele>
        <time>2000-01-01T05:50:16.000Z</time>
      </trkpt>
      <trkpt lat="43.6165" lon="1.55094">
        <ele>180.6</ele>
        <time>2000-01-01T05:50:26.000Z</time>
      </trkpt>
      <trkpt lat="43.61656" lon="1.55084">
        <ele>175</ele>
        <time>2000-01-01T05:50:36.000Z</time>
      </trkpt>
      <trkpt lat="43.61661" lon="1.55073">
        <ele>179.9</ele>
        <time>2000-01-01T05:50:46.000Z</time>
      </trkpt>
      <trkpt lat="43.61664" lon="1.5506">
        <ele>179.3</ele>
        <time>2000-01-01T05:50:56.000Z</time>
      </trkpt>
      <trkpt lat="43.61665" lon="1.55046">
        <ele>172</ele>
        <time>2000-01-01T05:51:06.000Z</time>
      </trkpt>
      <trkpt lat="43.61671" lon="1.55032">
        <ele>178.8</ele>
        <time>2000-01-01T05:51:16.000Z</time>
      </trkpt>
      <trkpt lat="43.61675" lon="1.5502">
        <ele>172</ele>
        <time>2000-01-01T05:51:26.000Z</time>
      </trkpt>
      <trkpt lat="43.61681" lon="1.55008">
        <ele>178.1</ele>
        <time>2000-01-01T05:51:36.000Z</time>
      </trkpt>
      <trkpt lat="43.61685" lon="1.54998">
        <ele>177.7</ele>
        <time>2000-01-01T05:51:46.000Z</time>
      </trkpt>
      <trkpt lat="43.61689" lon="1.54986">
        <ele>172</ele>
        <time>2000-01-01T05:51:56.000Z</time>
      </trkpt>
      <trkpt lat="43.61692" lon="1.54974">
        <ele>177.2</ele>
        <time>2000-01-01T05:52:06.000Z</time>
      </trkpt>
      <trkpt lat="43.61697" lon="1.54965">
        <ele>176.9</ele>
        <time>2000-01-01T05:52:16.000Z</time>
      </trkpt>
      <trkpt lat="43.61701" lon="1.54955">
        <ele>168</ele>
        <time>2000-01-01T05:52:26.000Z</time>
      </trkpt>
      <trkpt lat="43.61705" lon="1.54945">
        <ele>176.6</ele>
        <time>2000-01-01T05:52:36.000Z</time>
      </trkpt>
      <trkpt lat="43.61709" lon="1.54932">
        <ele>176</ele>
        <time>2000-01-01T05:52:46.000Z</time>
      </trkpt>
      <trkpt lat="43.61714" lon="1.5492">
        <ele>165</ele>
        <time>2000-01-01T05:52:56.000Z</time>
      </trkpt>
      <trkpt lat="43.6172" lon="1.5491">
        <ele>174.9</ele>
        <time>2000-01-01T05:53:06.000Z</time>
      </trkpt>
      <trkpt lat="43.61724" lon="1.54898">
        <ele>174.3</ele>
        <time>2000-01-01T05:53:16.000Z</time>
      </trkpt>
      <trkpt lat="43.61727" lon="1.54884">
        <ele>162</ele>
        <time>2000-01-01T05:53:26.000Z</time>
      </trkpt>
      <trkpt lat="43.6173" lon="1.54873">
        <ele>173.7</ele>
        <time>2000-01-01T05:53:36.000Z</time>
      </trkpt>
      <trkpt lat="43.61735" lon="1.54863">
        <ele>173.1</ele>
        <time>2000-01-01T05:53:46.000Z</time>
      </trkpt>
      <trkpt lat="43.61739" lon="1.54853">
        <ele>160</ele>
        <time>2000-01-01T05:53:56.000Z</time>
      </trkpt>
      <trkpt lat="43.61743" lon="1.54838">
        <ele>171.9</ele>
        <time>2000-01-01T05:54:06.000Z</time>
      </trkpt>
      <trkpt lat="43.61749" lon="1.54827">
        <ele>158</ele>
        <time>2000-01-01T05:54:16.000Z</time>
      </trkpt>
      <trkpt lat="43.61753" lon="1.54816">
        <ele>170.2</ele>
        <time>2000-01-01T05:54:26.000Z</time>
      </trkpt>
      <trkpt lat="43.61756" lon="1.54802">
        <ele>169.4</ele>
        <time>2000-01-01T05:54:36.000Z</time>
      </trkpt>
      <trkpt lat="43.61758" lon="1.54791">
        <ele>156</ele>
        <time>2000-01-01T05:54:46.000Z</time>
      </trkpt>
      <trkpt lat="43.61758" lon="1.54776">
        <ele>168.3</ele>
        <time>2000-01-01T05:54:56.000Z</time>
      </trkpt>
      <trkpt lat="43.61756" lon="1.54762">
        <ele>153</ele>
        <time>2000-01-01T05:55:06.000Z</time>
      </trkpt>
      <trkpt lat="43.61756" lon="1.54751">
        <ele>166.8</ele>
        <time>2000-01-01T05:55:16.000Z</time>
      </trkpt>
      <trkpt lat="43.61754" lon="1.54737">
        <ele>166</ele>
        <time>2000-01-01T05:55:26.000Z</time>
      </trkpt>
      <trkpt lat="43.61753" lon="1.54726">
        <ele>153</ele>
        <time>2000-01-01T05:55:36.000Z</time>
      </trkpt>
      <trkpt lat="43.61755" lon="1.54713">
        <ele>164.6</ele>
        <time>2000-01-01T05:55:46.000Z</time>
      </trkpt>
      <trkpt lat="43.61754" lon="1.54701">
        <ele>164.1</ele>
        <time>2000-01-01T05:55:56.000Z</time>
      </trkpt>
      <trkpt lat="43.61755" lon="1.54686">
        <ele>152</ele>
        <time>2000-01-01T05:56:06.000Z</time>
      </trkpt>
      <trkpt lat="43.61755" lon="1.5467">
        <ele>162.9</ele>
        <time>2000-01-01T05:56:16.000Z</time>
      </trkpt>
      <trkpt lat="43.61756" lon="1.54659">
        <ele>151</ele>
        <time>2000-01-01T05:56:26.000Z</time>
      </trkpt>
      <trkpt lat="43.61756" lon="1.54647">
        <ele>162.1</ele>
        <time>2000-01-01T05:56:36.000Z</time>
      </trkpt>
      <trkpt lat="43.61755" lon="1.54636">
        <ele>161.7</ele>
        <time>2000-01-01T05:56:46.000Z</time>
      </trkpt>
      <trkpt lat="43.61755" lon="1.54621">
        <ele>151</ele>
        <time>2000-01-01T05:56:56.000Z</time>
      </trkpt>
      <trkpt lat="43.61755" lon="1.54606">
        <ele>160.8</ele>
        <time>2000-01-01T05:57:06.000Z</time>
      </trkpt>
      <trkpt lat="43.61755" lon="1.54594">
        <ele>150</ele>
        <time>2000-01-01T05:57:16.000Z</time>
      </trkpt>
      <trkpt lat="43.61759" lon="1.5458">
        <ele>159.6</ele>
        <time>2000-01-01T05:57:26.000Z</time>
      </trkpt>
      <trkpt lat="43.61759" lon="1.54567">
        <ele>149</ele>
        <time>2000-01-01T05:57:36.000Z</time>
      </trkpt>
      <trkpt lat="43.61756" lon="1.54556">
        <ele>158.8</ele>
        <time>2000-01-01T05:57:46.000Z</time>
      </trkpt>
      <trkpt lat="43.61754" lon="1.54543">
        <ele>158.4</ele>
        <time>2000-01-01T05:57:56.000Z</time>
      </trkpt>
      <trkpt lat="43.61753" lon="1.54532">
        <ele>148</ele>
        <time>2000-01-01T05:58:06.000Z</time>
      </trkpt>
      <trkpt lat="43.61756" lon="1.54519">
        <ele>157.5</ele>
        <time>2000-01-01T05:58:16.000Z</time>
      </trkpt>
      <trkpt lat="43.61756" lon="1.54507">
        <ele>157</ele>
        <time>2000-01-01T05:58:26.000Z</time>
      </trkpt>
      <trkpt lat="43.61756" lon="1.54496">
        <ele>147</ele>
        <time>2000-01-01T05:58:36.000Z</time>
      </trkpt>
      <trkpt lat="43.61758" lon="1.54484">
        <ele>156.3</ele>
        <time>2000-01-01T05:58:46.000Z</time>
      </trkpt>
      <trkpt lat="43.61757" lon="1.5447">
        <ele>155.9</ele>
        <time>2000-01-01T05:58:56.000Z</time>
      </trkpt>
      <trkpt lat="43.61755" lon="1.54458">
        <ele>147</ele>
        <time>2000-01-01T05:59:06.000Z</time>
      </trkpt>
      <trkpt lat="43.61756" lon="1.54445">
        <ele>155.2</ele>
        <time>2000-01-01T05:59:16.000Z</time>
      </trkpt>
      <trkpt lat="43.6176" lon="1.54433">
        <ele>155.4</ele>
        <time>2000-01-01T05:59:26.000Z</time>
      </trkpt>
      <trkpt lat="43.61765" lon="1.54424">
        <ele>147.5</ele>
        <time>2000-01-01T05:59:36.000Z</time>
      </trkpt>
      <trkpt lat="43.61765" lon="1.5441">
        <ele>155.3</ele>
        <time>2000-01-01T05:59:46.000Z</time>
      </trkpt>
      <trkpt lat="43.61762" lon="1.54399">
        <ele>154.8</ele>
        <time>2000-01-01T05:59:56.000Z</time>
      </trkpt>
      <trkpt lat="43.61762" lon="1.54387">
        <ele>145.7</ele>
        <time>2000-01-01T06:00:06.000Z</time>
      </trkpt>
      <trkpt lat="43.61763" lon="1.54374">
        <ele>154.5</ele>
        <time>2000-01-01T06:00:16.000Z</time>
      </trkpt>
      <trkpt lat="43.61767" lon="1.54363">
        <ele>154.6</ele>
        <time>2000-01-01T06:00:26.000Z</time>
      </trkpt>
      <trkpt lat="43.61766" lon="1.54352">
        <ele>146.3</ele>
        <time>2000-01-01T06:00:36.000Z</time>
      </trkpt>
      <trkpt lat="43.61766" lon="1.5434">
        <ele>155.5</ele>
        <time>2000-01-01T06:00:46.000Z</time>
      </trkpt>
      <trkpt lat="43.61764" lon="1.54329">
        <ele>155.5</ele>
        <time>2000-01-01T06:00:56.000Z</time>
      </trkpt>
      <trkpt lat="43.6176" lon="1.54315">
        <ele>144.1</ele>
        <time>2000-01-01T06:01:06.000Z</time>
      </trkpt>
      <trkpt lat="43.61753" lon="1.54306">
        <ele>154.3</ele>
        <time>2000-01-01T06:01:16.000Z</time>
      </trkpt>
      <trkpt lat="43.61747" lon="1.54296">
        <ele>153.9</ele>
        <time>2000-01-01T06:01:26.000Z</time>
      </trkpt>
      <trkpt lat="43.61737" lon="1.54291">
        <ele>142</ele>
        <time>2000-01-01T06:01:36.000Z</time>
      </trkpt>
      <trkpt lat="43.61729" lon="1.5429">
        <ele>153.2</ele>
        <time>2000-01-01T06:01:46.000Z</time>
      </trkpt>
      <trkpt lat="43.6172" lon="1.54287">
        <ele>153</ele>
        <time>2000-01-01T06:01:56.000Z</time>
      </trkpt>
      <trkpt lat="43.61712" lon="1.54282">
        <ele>142</ele>
        <time>2000-01-01T06:02:06.000Z</time>
      </trkpt>
      <trkpt lat="43.61703" lon="1.54278">
        <ele>153</ele>
        <time>2000-01-01T06:02:16.000Z</time>
      </trkpt>
      <trkpt lat="43.61697" lon="1.54271">
        <ele>152.8</ele>
        <time>2000-01-01T06:02:26.000Z</time>
      </trkpt>
      <trkpt lat="43.61688" lon="1.54262">
        <ele>141</ele>
        <time>2000-01-01T06:02:36.000Z</time>
      </trkpt>
      <trkpt lat="43.61679" lon="1.54251">
        <ele>152.6</ele>
        <time>2000-01-01T06:02:46.000Z</time>
      </trkpt>
      <trkpt lat="43.61672" lon="1.54243">
        <ele>141</ele>
        <time>2000-01-01T06:02:56.000Z</time>
      </trkpt>
      <trkpt lat="43.61666" lon="1.54234">
        <ele>152.4</ele>
        <time>2000-01-01T06:03:06.000Z</time>
      </trkpt>
      <trkpt lat="43.61659" lon="1.54224">
        <ele>151.8</ele>
        <time>2000-01-01T06:03:16.000Z</time>
      </trkpt>
      <trkpt lat="43.61652" lon="1.54214">
        <ele>141</ele>
        <time>2000-01-01T06:03:26.000Z</time>
      </trkpt>
      <trkpt lat="43.61646" lon="1.54204">
        <ele>152.2</ele>
        <time>2000-01-01T06:03:36.000Z</time>
      </trkpt>
      <trkpt lat="43.61637" lon="1.54198">
        <ele>142</ele>
        <time>2000-01-01T06:03:46.000Z</time>
      </trkpt>
      <trkpt lat="43.61635" lon="1.54187">
        <ele>152.8</ele>
        <time>2000-01-01T06:03:56.000Z</time>
      </trkpt>
      <trkpt lat="43.61644" lon="1.54187">
        <ele>152.6</ele>
        <time>2000-01-01T06:04:06.000Z</time>
      </trkpt>
      <trkpt lat="43.61655" lon="1.54183">
        <ele>142</ele>
        <time>2000-01-01T06:04:16.000Z</time>
      </trkpt>
      <trkpt lat="43.61663" lon="1.54174">
        <ele>152</ele>
        <time>2000-01-01T06:04:26.000Z</time>
      </trkpt>
      <trkpt lat="43.61672" lon="1.54167">
        <ele>142</ele>
        <time>2000-01-01T06:04:36.000Z</time>
      </trkpt>
      <trkpt lat="43.6168" lon="1.54161">
        <ele>151.6</ele>
        <time>2000-01-01T06:04:46.000Z</time>
      </trkpt>
      <trkpt lat="43.61689" lon="1.54155">
        <ele>151.5</ele>
        <time>2000-01-01T06:04:56.000Z</time>
      </trkpt>
      <trkpt lat="43.61698" lon="1.54149">
        <ele>141</ele>
        <time>2000-01-01T06:05:06.000Z</time>
      </trkpt>
      <trkpt lat="43.61705" lon="1.54142">
        <ele>151.6</ele>
        <time>2000-01-01T06:05:16.000Z</time>
      </trkpt>
      <trkpt lat="43.61712" lon="1.54135">
        <ele>151.5</ele>
        <time>2000-01-01T06:05:26.000Z</time>
      </trkpt>
      <trkpt lat="43.61721" lon="1.54126">
        <ele>138</ele>
        <time>2000-01-01T06:05:36.000Z</time>
      </trkpt>
      <trkpt lat="43.61728" lon="1.5412">
        <ele>151.6</ele>
        <time>2000-01-01T06:05:46.000Z</time>
      </trkpt>
      <trkpt lat="43.61735" lon="1.54112">
        <ele>151.5</ele>
        <time>2000-01-01T06:05:56.000Z</time>
      </trkpt>
      <trkpt lat="43.61742" lon="1.54106">
        <ele>136</ele>
        <time>2000-01-01T06:06:06.000Z</time>
      </trkpt>
      <trkpt lat="43.6175" lon="1.541">
        <ele>151</ele>
        <time>2000-01-01T06:06:16.000Z</time>
      </trkpt>
      <trkpt lat="43.61757" lon="1.54093">
        <ele>151.1</ele>
        <time>2000-01-01T06:06:26.000Z</time>
      </trkpt>
      <trkpt lat="43.61763" lon="1.54085">
        <ele>133</ele>
        <time>2000-01-01T06:06:36.000Z</time>
      </trkpt>
      <trkpt lat="43.61772" lon="1.54076">
        <ele>151.1</ele>
        <time>2000-01-01T06:06:46.000Z</time>
      </trkpt>
      <trkpt lat="43.61779" lon="1.54067">
        <ele>131</ele>
        <time>2000-01-01T06:06:56.000Z</time>
      </trkpt>
      <trkpt lat="43.61786" lon="1.54059">
        <ele>151</ele>
        <time>2000-01-01T06:07:06.000Z</time>
      </trkpt>
      <trkpt lat="43.61794" lon="1.54052">
        <ele>151</ele>
        <time>2000-01-01T06:07:16.000Z</time>
      </trkpt>
      <trkpt lat="43.61803" lon="1.54044">
        <ele>130</ele>
        <time>2000-01-01T06:07:26.000Z</time>
      </trkpt>
      <trkpt lat="43.6181" lon="1.54037">
        <ele>151.1</ele>
        <time>2000-01-01T06:07:36.000Z</time>
      </trkpt>
      <trkpt lat="43.61816" lon="1.54029">
        <ele>151</ele>
        <time>2000-01-01T06:07:46.000Z</time>
      </trkpt>
      <trkpt lat="43.61825" lon="1.54022">
        <ele>130</ele>
        <time>2000-01-01T06:07:56.000Z</time>
      </trkpt>
      <trkpt lat="43.61832" lon="1.54017">
        <ele>151</ele>
        <time>2000-01-01T06:08:06.000Z</time>
      </trkpt>
      <trkpt lat="43.61839" lon="1.5401">
        <ele>151.2</ele>
        <time>2000-01-01T06:08:16.000Z</time>
      </trkpt>
      <trkpt lat="43.61846" lon="1.54002">
        <ele>130</ele>
        <time>2000-01-01T06:08:26.000Z</time>
      </trkpt>
      <trkpt lat="43.61854" lon="1.53994">
        <ele>151.6</ele>
        <time>2000-01-01T06:08:36.000Z</time>
      </trkpt>
      <trkpt lat="43.61863" lon="1.53987">
        <ele>129</ele>
        <time>2000-01-01T06:08:46.000Z</time>
      </trkpt>
      <trkpt lat="43.61872" lon="1.53978">
        <ele>151.2</ele>
        <time>2000-01-01T06:08:56.000Z</time>
      </trkpt>
      <trkpt lat="43.61881" lon="1.5397">
        <ele>129</ele>
        <time>2000-01-01T06:09:06.000Z</time>
      </trkpt>
      <trkpt lat="43.61887" lon="1.53963">
        <ele>151</ele>
        <time>2000-01-01T06:09:16.000Z</time>
      </trkpt>
      <trkpt lat="43.61896" lon="1.53956">
        <ele>151</ele>
        <time>2000-01-01T06:09:26.000Z</time>
      </trkpt>
      <trkpt lat="43.61903" lon="1.53947">
        <ele>129</ele>
        <time>2000-01-01T06:09:36.000Z</time>
      </trkpt>
      <trkpt lat="43.6191" lon="1.53939">
        <ele>151</ele>
        <time>2000-01-01T06:09:46.000Z</time>
      </trkpt>
      <trkpt lat="43.6192" lon="1.53933">
        <ele>151</ele>
        <time>2000-01-01T06:09:56.000Z</time>
      </trkpt>
      <trkpt lat="43.61927" lon="1.53928">
        <ele>129</ele>
        <time>2000-01-01T06:10:06.000Z</time>
      </trkpt>
      <trkpt lat="43.61935" lon="1.53921">
        <ele>151</ele>
        <time>2000-01-01T06:10:16.000Z</time>
      </trkpt>
      <trkpt lat="43.61944" lon="1.53914">
        <ele>151</ele>
        <time>2000-01-01T06:10:26.000Z</time>
      </trkpt>
      <trkpt lat="43.61952" lon="1.53908">
        <ele>130</ele>
        <time>2000-01-01T06:10:36.000Z</time>
      </trkpt>
      <trkpt lat="43.61959" lon="1.53899">
        <ele>151</ele>
        <time>2000-01-01T06:10:46.000Z</time>
      </trkpt>
      <trkpt lat="43.61967" lon="1.53893">
        <ele>151</ele>
        <time>2000-01-01T06:10:56.000Z</time>
      </trkpt>
      <trkpt lat="43.61975" lon="1.53887">
        <ele>131</ele>
        <time>2000-01-01T06:11:06.000Z</time>
      </trkpt>
      <trkpt lat="43.61983" lon="1.53878">
        <ele>151</ele>
        <time>2000-01-01T06:11:16.000Z</time>
      </trkpt>
      <trkpt lat="43.61992" lon="1.5387">
        <ele>133</ele>
        <time>2000-01-01T06:11:26.000Z</time>
      </trkpt>
      <trkpt lat="43.61999" lon="1.53864">
        <ele>151</ele>
        <time>2000-01-01T06:11:36.000Z</time>
      </trkpt>
      <trkpt lat="43.62006" lon="1.53855">
        <ele>151</ele>
        <time>2000-01-01T06:11:46.000Z</time>
      </trkpt>
      <trkpt lat="43.62014" lon="1.53848">
        <ele>134</ele>
        <time>2000-01-01T06:11:56.000Z</time>
      </trkpt>
      <trkpt lat="43.62021" lon="1.53839">
        <ele>151</ele>
        <time>2000-01-01T06:12:06.000Z</time>
      </trkpt>
      <trkpt lat="43.62029" lon="1.53832">
        <ele>151</ele>
        <time>2000-01-01T06:12:16.000Z</time>
      </trkpt>
      <trkpt lat="43.62035" lon="1.53823">
        <ele>136</ele>
        <time>2000-01-01T06:12:26.000Z</time>
      </trkpt>
      <trkpt lat="43.62043" lon="1.53815">
        <ele>151.5</ele>
        <time>2000-01-01T06:12:36.000Z</time>
      </trkpt>
      <trkpt lat="43.62044" lon="1.53802">
        <ele>151.5</ele>
        <time>2000-01-01T06:12:46.000Z</time>
      </trkpt>
      <trkpt lat="43.62043" lon="1.53791">
        <ele>137</ele>
        <time>2000-01-01T06:12:56.000Z</time>
      </trkpt>
      <trkpt lat="43.62045" lon="1.53778">
        <ele>151</ele>
        <time>2000-01-01T06:13:06.000Z</time>
      </trkpt>
      <trkpt lat="43.62049" lon="1.53767">
        <ele>151</ele>
        <time>2000-01-01T06:13:16.000Z</time>
      </trkpt>
      <trkpt lat="43.62051" lon="1.53754">
        <ele>139</ele>
        <time>2000-01-01T06:13:26.000Z</time>
      </trkpt>
      <trkpt lat="43.62055" lon="1.53743">
        <ele>151</ele>
        <time>2000-01-01T06:13:36.000Z</time>
      </trkpt>
      <trkpt lat="43.62061" lon="1.53734">
        <ele>151</ele>
        <time>2000-01-01T06:13:46.000Z</time>
      </trkpt>
      <trkpt lat="43.62065" lon="1.53721">
        <ele>139</ele>
        <time>2000-01-01T06:13:56.000Z</time>
      </trkpt>
      <trkpt lat="43.6207" lon="1.5371">
        <ele>151</ele>
        <time>2000-01-01T06:14:06.000Z</time>
      </trkpt>
      <trkpt lat="43.62074" lon="1.53697">
        <ele>139</ele>
        <time>2000-01-01T06:14:16.000Z</time>
      </trkpt>
      <trkpt lat="43.62077" lon="1.53684">
        <ele>151</ele>
        <time>2000-01-01T06:14:26.000Z</time>
      </trkpt>
      <trkpt lat="43.62081" lon="1.53674">
        <ele>151</ele>
        <time>2000-01-01T06:14:36.000Z</time>
      </trkpt>
      <trkpt lat="43.62087" lon="1.53665">
        <ele>139</ele>
        <time>2000-01-01T06:14:46.000Z</time>
      </trkpt>
      <trkpt lat="43.62087" lon="1.53652">
        <ele>151</ele>
        <time>2000-01-01T06:14:56.000Z</time>
      </trkpt>
      <trkpt lat="43.62095" lon="1.53641">
        <ele>138</ele>
        <time>2000-01-01T06:15:06.000Z</time>
      </trkpt>
      <trkpt lat="43.62103" lon="1.53635">
        <ele>151</ele>
        <time>2000-01-01T06:15:16.000Z</time>
      </trkpt>
      <trkpt lat="43.62112" lon="1.53626">
        <ele>138</ele>
        <time>2000-01-01T06:15:26.000Z</time>
      </trkpt>
      <trkpt lat="43.62119" lon="1.53619">
        <ele>151</ele>
        <time>2000-01-01T06:15:36.000Z</time>
      </trkpt>
      <trkpt lat="43.62126" lon="1.53609">
        <ele>151</ele>
        <time>2000-01-01T06:15:46.000Z</time>
      </trkpt>
      <trkpt lat="43.62129" lon="1.53597">
        <ele>138</ele>
        <time>2000-01-01T06:15:56.000Z</time>
      </trkpt>
      <trkpt lat="43.62133" lon="1.53587">
        <ele>151</ele>
        <time>2000-01-01T06:16:06.000Z</time>
      </trkpt>
      <trkpt lat="43.6214" lon="1.53576">
        <ele>151</ele>
        <time>2000-01-01T06:16:16.000Z</time>
      </trkpt>
      <trkpt lat="43.62142" lon="1.53565">
        <ele>136</ele>
        <time>2000-01-01T06:16:26.000Z</time>
      </trkpt>
      <trkpt lat="43.62141" lon="1.53553">
        <ele>151</ele>
        <time>2000-01-01T06:16:36.000Z</time>
      </trkpt>
      <trkpt lat="43.62142" lon="1.53539">
        <ele>151</ele>
        <time>2000-01-01T06:16:46.000Z</time>
      </trkpt>
      <trkpt lat="43.62139" lon="1.53528">
        <ele>136</ele>
        <time>2000-01-01T06:16:56.000Z</time>
      </trkpt>
      <trkpt lat="43.62146" lon="1.53517">
        <ele>151</ele>
        <time>2000-01-01T06:17:06.000Z</time>
      </trkpt>
      <trkpt lat="43.62155" lon="1.53511">
        <ele>136</ele>
        <time>2000-01-01T06:17:16.000Z</time>
      </trkpt>
      <trkpt lat="43.62164" lon="1.53505">
        <ele>151</ele>
        <time>2000-01-01T06:17:26.000Z</time>
      </trkpt>
      <trkpt lat="43.62169" lon="1.53494">
        <ele>136</ele>
        <time>2000-01-01T06:17:36.000Z</time>
      </trkpt>
      <trkpt lat="43.62176" lon="1.53486">
        <ele>150.8</ele>
        <time>2000-01-01T06:17:46.000Z</time>
      </trkpt>
      <trkpt lat="43.62184" lon="1.53478">
        <ele>150.5</ele>
        <time>2000-01-01T06:17:56.000Z</time>
      </trkpt>
      <trkpt lat="43.62189" lon="1.53467">
        <ele>136</ele>
        <time>2000-01-01T06:18:06.000Z</time>
      </trkpt>
      <trkpt lat="43.62193" lon="1.53455">
        <ele>150.1</ele>
        <time>2000-01-01T06:18:16.000Z</time>
      </trkpt>
      <trkpt lat="43.62199" lon="1.53445">
        <ele>150.2</ele>
        <time>2000-01-01T06:18:26.000Z</time>
      </trkpt>
      <trkpt lat="43.62206" lon="1.53433">
        <ele>137</ele>
        <time>2000-01-01T06:18:36.000Z</time>
      </trkpt>
      <trkpt lat="43.62214" lon="1.53424">
        <ele>150.9</ele>
        <time>2000-01-01T06:18:46.000Z</time>
      </trkpt>
      <trkpt lat="43.6222" lon="1.53416">
        <ele>151</ele>
        <time>2000-01-01T06:18:56.000Z</time>
      </trkpt>
      <trkpt lat="43.62224" lon="1.53404">
        <ele>137</ele>
        <time>2000-01-01T06:19:06.000Z</time>
      </trkpt>
      <trkpt lat="43.62223" lon="1.5339">
        <ele>151</ele>
        <time>2000-01-01T06:19:16.000Z</time>
      </trkpt>
      <trkpt lat="43.62222" lon="1.53378">
        <ele>151</ele>
        <time>2000-01-01T06:19:26.000Z</time>
      </trkpt>
      <trkpt lat="43.62223" lon="1.53365">
        <ele>138</ele>
        <time>2000-01-01T06:19:36.000Z</time>
      </trkpt>
      <trkpt lat="43.62232" lon="1.53364">
        <ele>151</ele>
        <time>2000-01-01T06:19:46.000Z</time>
      </trkpt>
      <trkpt lat="43.62238" lon="1.53371">
        <ele>151</ele>
        <time>2000-01-01T06:19:56.000Z</time>
      </trkpt>
      <trkpt lat="43.62248" lon="1.5337">
        <ele>138</ele>
        <time>2000-01-01T06:20:06.000Z</time>
      </trkpt>
      <trkpt lat="43.62259" lon="1.53369">
        <ele>151</ele>
        <time>2000-01-01T06:20:16.000Z</time>
      </trkpt>
      <trkpt lat="43.62267" lon="1.53369">
        <ele>151</ele>
        <time>2000-01-01T06:20:26.000Z</time>
      </trkpt>
      <trkpt lat="43.62276" lon="1.53366">
        <ele>138</ele>
        <time>2000-01-01T06:20:36.000Z</time>
      </trkpt>
      <trkpt lat="43.62281" lon="1.53356">
        <ele>151</ele>
        <time>2000-01-01T06:20:46.000Z</time>
      </trkpt>
      <trkpt lat="43.62279" lon="1.53345">
        <ele>151</ele>
        <time>2000-01-01T06:20:56.000Z</time>
      </trkpt>
      <trkpt lat="43.62277" lon="1.53333">
        <ele>137</ele>
        <time>2000-01-01T06:21:06.000Z</time>
      </trkpt>
      <trkpt lat="43.62273" lon="1.53323">
        <ele>151.3</ele>
        <time>2000-01-01T06:21:16.000Z</time>
      </trkpt>
      <trkpt lat="43.6227" lon="1.5331">
        <ele>151.6</ele>
        <time>2000-01-01T06:21:26.000Z</time>
      </trkpt>
      <trkpt lat="43.62268" lon="1.53297">
        <ele>137</ele>
        <time>2000-01-01T06:21:36.000Z</time>
      </trkpt>
      <trkpt lat="43.62265" lon="1.53285">
        <ele>151.9</ele>
        <time>2000-01-01T06:21:46.000Z</time>
      </trkpt>
      <trkpt lat="43.62263" lon="1.53275">
        <ele>152.1</ele>
        <time>2000-01-01T06:21:56.000Z</time>
      </trkpt>
      <trkpt lat="43.6226" lon="1.53262">
        <ele>138</ele>
        <time>2000-01-01T06:22:06.000Z</time>
      </trkpt>
      <trkpt lat="43.62256" lon="1.53249">
        <ele>153.6</ele>
        <time>2000-01-01T06:22:16.000Z</time>
      </trkpt>
      <trkpt lat="43.62253" lon="1.53237">
        <ele>153.8</ele>
        <time>2000-01-01T06:22:26.000Z</time>
      </trkpt>
      <trkpt lat="43.62246" lon="1.53228">
        <ele>140</ele>
        <time>2000-01-01T06:22:36.000Z</time>
      </trkpt>
      <trkpt lat="43.62241" lon="1.53217">
        <ele>154.6</ele>
        <time>2000-01-01T06:22:46.000Z</time>
      </trkpt>
      <trkpt lat="43.62235" lon="1.53206">
        <ele>155.4</ele>
        <time>2000-01-01T06:22:56.000Z</time>
      </trkpt>
      <trkpt lat="43.6223" lon="1.53196">
        <ele>141</ele>
        <time>2000-01-01T06:23:06.000Z</time>
      </trkpt>
      <trkpt lat="43.62223" lon="1.53185">
        <ele>157.3</ele>
        <time>2000-01-01T06:23:16.000Z</time>
      </trkpt>
      <trkpt lat="43.62218" lon="1.53176">
        <ele>158</ele>
        <time>2000-01-01T06:23:26.000Z</time>
      </trkpt>
      <trkpt lat="43.62211" lon="1.53166">
        <ele>143</ele>
        <time>2000-01-01T06:23:36.000Z</time>
      </trkpt>
      <trkpt lat="43.62206" lon="1.53156">
        <ele>160.3</ele>
        <time>2000-01-01T06:23:46.000Z</time>
      </trkpt>
      <trkpt lat="43.62201" lon="1.53147">
        <ele>161.7</ele>
        <time>2000-01-01T06:23:56.000Z</time>
      </trkpt>
      <trkpt lat="43.62196" lon="1.53138">
        <ele>145</ele>
        <time>2000-01-01T06:24:06.000Z</time>
      </trkpt>
      <trkpt lat="43.62189" lon="1.5313">
        <ele>163.9</ele>
        <time>2000-01-01T06:24:16.000Z</time>
      </trkpt>
      <trkpt lat="43.62184" lon="1.53121">
        <ele>164.8</ele>
        <time>2000-01-01T06:24:26.000Z</time>
      </trkpt>
      <trkpt lat="43.62177" lon="1.53114">
        <ele>149</ele>
        <time>2000-01-01T06:24:36.000Z</time>
      </trkpt>
      <trkpt lat="43.62168" lon="1.53107">
        <ele>167</ele>
        <time>2000-01-01T06:24:46.000Z</time>
      </trkpt>
      <trkpt lat="43.62159" lon="1.53103">
        <ele>151</ele>
        <time>2000-01-01T06:24:56.000Z</time>
      </trkpt>
      <trkpt lat="43.6215" lon="1.531">
        <ele>168.8</ele>
        <time>2000-01-01T06:25:06.000Z</time>
      </trkpt>
      <trkpt lat="43.6214" lon="1.53104">
        <ele>151</ele>
        <time>2000-01-01T06:25:16.000Z</time>
      </trkpt>
      <trkpt lat="43.62131" lon="1.53101">
        <ele>170.5</ele>
        <time>2000-01-01T06:25:26.000Z</time>
      </trkpt>
      <trkpt lat="43.62122" lon="1.531">
        <ele>171.4</ele>
        <time>2000-01-01T06:25:36.000Z</time>
      </trkpt>
      <trkpt lat="43.62113" lon="1.53098">
        <ele>152</ele>
        <time>2000-01-01T06:25:46.000Z</time>
      </trkpt>
      <trkpt lat="43.62105" lon="1.53095">
        <ele>173.5</ele>
        <time>2000-01-01T06:25:56.000Z</time>
      </trkpt>
      <trkpt lat="43.62097" lon="1.53093">
        <ele>174.7</ele>
        <time>2000-01-01T06:26:06.000Z</time>
      </trkpt>
      <trkpt lat="43.62088" lon="1.53091">
        <ele>154</ele>
        <time>2000-01-01T06:26:16.000Z</time>
      </trkpt>
      <trkpt lat="43.62079" lon="1.53091">
        <ele>177.3</ele>
        <time>2000-01-01T06:26:26.000Z</time>
      </trkpt>
      <trkpt lat="43.6207" lon="1.53089">
        <ele>178.7</ele>
        <time>2000-01-01T06:26:36.000Z</time>
      </trkpt>
      <trkpt lat="43.62061" lon="1.53088">
        <ele>157</ele>
        <time>2000-01-01T06:26:46.000Z</time>
      </trkpt>
      <trkpt lat="43.62053" lon="1.53086">
        <ele>181.3</ele>
        <time>2000-01-01T06:26:56.000Z</time>
      </trkpt>
      <trkpt lat="43.62045" lon="1.53083">
        <ele>182.6</ele>
        <time>2000-01-01T06:27:06.000Z</time>
      </trkpt>
      <trkpt lat="43.62036" lon="1.53084">
        <ele>161</ele>
        <time>2000-01-01T06:27:16.000Z</time>
      </trkpt>
      <trkpt lat="43.62028" lon="1.53081">
        <ele>185.2</ele>
        <time>2000-01-01T06:27:26.000Z</time>
      </trkpt>
      <trkpt lat="43.62019" lon="1.53077">
        <ele>187.1</ele>
        <time>2000-01-01T06:27:36.000Z</time>
      </trkpt>
      <trkpt lat="43.62011" lon="1.53072">
        <ele>166</ele>
        <time>2000-01-01T06:27:46.000Z</time>
      </trkpt>
      <trkpt lat="43.62004" lon="1.53063">
        <ele>190.2</ele>
        <time>2000-01-01T06:27:56.000Z</time>
      </trkpt>
      <trkpt lat="43.61995" lon="1.53059">
        <ele>191.8</ele>
        <time>2000-01-01T06:28:06.000Z</time>
      </trkpt>
      <trkpt lat="43.61987" lon="1.53054">
        <ele>173</ele>
        <time>2000-01-01T06:28:16.000Z</time>
      </trkpt>
      <trkpt lat="43.6198" lon="1.53049">
        <ele>195</ele>
        <time>2000-01-01T06:28:26.000Z</time>
      </trkpt>
      <trkpt lat="43.61973" lon="1.53043">
        <ele>196.3</ele>
        <time>2000-01-01T06:28:36.000Z</time>
      </trkpt>
      <trkpt lat="43.61966" lon="1.53037">
        <ele>174</ele>
        <time>2000-01-01T06:28:46.000Z</time>
      </trkpt>
      <trkpt lat="43.61959" lon="1.5303">
        <ele>198.8</ele>
        <time>2000-01-01T06:28:56.000Z</time>
      </trkpt>
      <trkpt lat="43.61951" lon="1.53023">
        <ele>200.2</ele>
        <time>2000-01-01T06:29:06.000Z</time>
      </trkpt>
      <trkpt lat="43.61942" lon="1.53019">
        <ele>183</ele>
        <time>2000-01-01T06:29:16.000Z</time>
      </trkpt>
      <trkpt lat="43.61934" lon="1.53012">
        <ele>203.3</ele>
        <time>2000-01-01T06:29:26.000Z</time>
      </trkpt>
      <trkpt lat="43.61927" lon="1.53007">
        <ele>204.7</ele>
        <time>2000-01-01T06:29:36.000Z</time>
      </trkpt>
      <trkpt lat="43.61918" lon="1.53002">
        <ele>188</ele>
        <time>2000-01-01T06:29:46.000Z</time>
      </trkpt>
      <trkpt lat="43.6191" lon="1.52996">
        <ele>207.6</ele>
        <time>2000-01-01T06:29:56.000Z</time>
      </trkpt>
      <trkpt lat="43.61904" lon="1.52989">
        <ele>208.3</ele>
        <time>2000-01-01T06:30:06.000Z</time>
      </trkpt>
      <trkpt lat="43.61908" lon="1.52976">
        <ele>189</ele>
        <time>2000-01-01T06:30:16.000Z</time>
      </trkpt>
      <trkpt lat="43.61911" lon="1.52964">
        <ele>208.6</ele>
        <time>2000-01-01T06:30:26.000Z</time>
      </trkpt>
      <trkpt lat="43.61915" lon="1.52951">
        <ele>208.8</ele>
        <time>2000-01-01T06:30:36.000Z</time>
      </trkpt>
      <trkpt lat="43.61917" lon="1.52939">
        <ele>189</ele>
        <time>2000-01-01T06:30:46.000Z</time>
      </trkpt>
      <trkpt lat="43.61921" lon="1.52927">
        <ele>208.9</ele>
        <time>2000-01-01T06:30:56.000Z</time>
      </trkpt>
      <trkpt lat="43.61923" lon="1.52916">
        <ele>209.1</ele>
        <time>2000-01-01T06:31:06.000Z</time>
      </trkpt>
      <trkpt lat="43.61927" lon="1.52906">
        <ele>189</ele>
        <time>2000-01-01T06:31:16.000Z</time>
      </trkpt>
      <trkpt lat="43.61928" lon="1.52894">
        <ele>208.7</ele>
        <time>2000-01-01T06:31:26.000Z</time>
      </trkpt>
      <trkpt lat="43.61933" lon="1.52883">
        <ele>208.4</ele>
        <time>2000-01-01T06:31:36.000Z</time>
      </trkpt>
      <trkpt lat="43.61937" lon="1.52872">
        <ele>190</ele>
        <time>2000-01-01T06:31:46.000Z</time>
      </trkpt>
      <trkpt lat="43.61941" lon="1.52862">
        <ele>208.2</ele>
        <time>2000-01-01T06:31:56.000Z</time>
      </trkpt>
      <trkpt lat="43.61943" lon="1.52847">
        <ele>209.1</ele>
        <time>2000-01-01T06:32:06.000Z</time>
      </trkpt>
      <trkpt lat="43.61947" lon="1.52833">
        <ele>192</ele>
        <time>2000-01-01T06:32:16.000Z</time>
      </trkpt>
      <trkpt lat="43.61949" lon="1.5282">
        <ele>209.9</ele>
        <time>2000-01-01T06:32:26.000Z</time>
      </trkpt>
      <trkpt lat="43.61953" lon="1.52807">
        <ele>192</ele>
        <time>2000-01-01T06:32:36.000Z</time>
      </trkpt>
      <trkpt lat="43.61957" lon="1.52794">
        <ele>209.6</ele>
        <time>2000-01-01T06:32:46.000Z</time>
      </trkpt>
      <trkpt lat="43.61959" lon="1.52782">
        <ele>209.4</ele>
        <time>2000-01-01T06:32:56.000Z</time>
      </trkpt>
      <trkpt lat="43.61963" lon="1.5277">
        <ele>192</ele>
        <time>2000-01-01T06:33:06.000Z</time>
      </trkpt>
      <trkpt lat="43.61964" lon="1.52757">
        <ele>209.9</ele>
        <time>2000-01-01T06:33:16.000Z</time>
      </trkpt>
      <trkpt lat="43.61969" lon="1.52744">
        <ele>192</ele>
        <time>2000-01-01T06:33:26.000Z</time>
      </trkpt>
      <trkpt lat="43.61972" lon="1.52732">
        <ele>210.7</ele>
        <time>2000-01-01T06:33:36.000Z</time>
      </trkpt>
      <trkpt lat="43.61976" lon="1.52718">
        <ele>192</ele>
        <time>2000-01-01T06:33:46.000Z</time>
      </trkpt>
      <trkpt lat="43.61979" lon="1.52707">
        <ele>210.2</ele>
        <time>2000-01-01T06:33:56.000Z</time>
      </trkpt>
      <trkpt lat="43.61982" lon="1.52695">
        <ele>209.9</ele>
        <time>2000-01-01T06:34:06.000Z</time>
      </trkpt>
      <trkpt lat="43.61983" lon="1.52682">
        <ele>192</ele>
        <time>2000-01-01T06:34:16.000Z</time>
      </trkpt>
      <trkpt lat="43.61986" lon="1.52671">
        <ele>209.5</ele>
        <time>2000-01-01T06:34:26.000Z</time>
      </trkpt>
      <trkpt lat="43.61988" lon="1.52658">
        <ele>209.5</ele>
        <time>2000-01-01T06:34:36.000Z</time>
      </trkpt>
      <trkpt lat="43.61993" lon="1.52649">
        <ele>192</ele>
        <time>2000-01-01T06:34:46.000Z</time>
      </trkpt>
      <trkpt lat="43.61996" lon="1.52635">
        <ele>209.4</ele>
        <time>2000-01-01T06:34:56.000Z</time>
      </trkpt>
      <trkpt lat="43.61999" lon="1.52624">
        <ele>209.6</ele>
        <time>2000-01-01T06:35:06.000Z</time>
      </trkpt>
      <trkpt lat="43.62003" lon="1.5261">
        <ele>192</ele>
        <time>2000-01-01T06:35:16.000Z</time>
      </trkpt>
      <trkpt lat="43.62008" lon="1.52601">
        <ele>209</ele>
        <time>2000-01-01T06:35:26.000Z</time>
      </trkpt>
      <trkpt lat="43.62012" lon="1.5259">
        <ele>208.6</ele>
        <time>2000-01-01T06:35:36.000Z</time>
      </trkpt>
      <trkpt lat="43.62016" lon="1.52579">
        <ele>191</ele>
        <time>2000-01-01T06:35:46.000Z</time>
      </trkpt>
      <trkpt lat="43.62019" lon="1.52568">
        <ele>208.3</ele>
        <time>2000-01-01T06:35:56.000Z</time>
      </trkpt>
      <trkpt lat="43.6202" lon="1.52557">
        <ele>208.5</ele>
        <time>2000-01-01T06:36:06.000Z</time>
      </trkpt>
      <trkpt lat="43.62022" lon="1.52543">
        <ele>189</ele>
        <time>2000-01-01T06:36:16.000Z</time>
      </trkpt>
      <trkpt lat="43.62026" lon="1.5253">
        <ele>208.1</ele>
        <time>2000-01-01T06:36:26.000Z</time>
      </trkpt>
      <trkpt lat="43.62027" lon="1.52516">
        <ele>189</ele>
        <time>2000-01-01T06:36:36.000Z</time>
      </trkpt>
      <trkpt lat="43.62031" lon="1.52503">
        <ele>208.6</ele>
        <time>2000-01-01T06:36:46.000Z</time>
      </trkpt>
      <trkpt lat="43.62029" lon="1.5249">
        <ele>208.9</ele>
        <time>2000-01-01T06:36:56.000Z</time>
      </trkpt>
      <trkpt lat="43.62028" lon="1.52477">
        <ele>189</ele>
        <time>2000-01-01T06:37:06.000Z</time>
      </trkpt>
      <trkpt lat="43.62021" lon="1.52468">
        <ele>209.2</ele>
        <time>2000-01-01T06:37:16.000Z</time>
      </trkpt>
      <trkpt lat="43.62014" lon="1.52462">
        <ele>209.5</ele>
        <time>2000-01-01T06:37:26.000Z</time>
      </trkpt>
      <trkpt lat="43.62006" lon="1.52457">
        <ele>188</ele>
        <time>2000-01-01T06:37:36.000Z</time>
      </trkpt>
      <trkpt lat="43.61998" lon="1.52451">
        <ele>210</ele>
        <time>2000-01-01T06:37:46.000Z</time>
      </trkpt>
      <trkpt lat="43.6199" lon="1.52446">
        <ele>210</ele>
        <time>2000-01-01T06:37:56.000Z</time>
      </trkpt>
      <trkpt lat="43.61981" lon="1.5244">
        <ele>188</ele>
        <time>2000-01-01T06:38:06.000Z</time>
      </trkpt>
      <trkpt lat="43.61973" lon="1.52435">
        <ele>210</ele>
        <time>2000-01-01T06:38:16.000Z</time>
      </trkpt>
      <trkpt lat="43.61964" lon="1.52429">
        <ele>209.8</ele>
        <time>2000-01-01T06:38:26.000Z</time>
      </trkpt>
      <trkpt lat="43.61957" lon="1.52426">
        <ele>189</ele>
        <time>2000-01-01T06:38:36.000Z</time>
      </trkpt>
      <trkpt lat="43.61947" lon="1.5242">
        <ele>209.2</ele>
        <time>2000-01-01T06:38:46.000Z</time>
      </trkpt>
      <trkpt lat="43.61937" lon="1.52417">
        <ele>190</ele>
        <time>2000-01-01T06:38:56.000Z</time>
      </trkpt>
      <trkpt lat="43.61929" lon="1.52412">
        <ele>208.4</ele>
        <time>2000-01-01T06:39:06.000Z</time>
      </trkpt>
      <trkpt lat="43.6192" lon="1.52409">
        <ele>208.1</ele>
        <time>2000-01-01T06:39:16.000Z</time>
      </trkpt>
      <trkpt lat="43.6191" lon="1.52405">
        <ele>190</ele>
        <time>2000-01-01T06:39:26.000Z</time>
      </trkpt>
      <trkpt lat="43.61901" lon="1.52404">
        <ele>206.6</ele>
        <time>2000-01-01T06:39:36.000Z</time>
      </trkpt>
      <trkpt lat="43.6189" lon="1.52402">
        <ele>190</ele>
        <time>2000-01-01T06:39:46.000Z</time>
      </trkpt>
      <trkpt lat="43.61881" lon="1.52399">
        <ele>205</ele>
        <time>2000-01-01T06:39:56.000Z</time>
      </trkpt>
      <trkpt lat="43.61873" lon="1.52396">
        <ele>204.5</ele>
        <time>2000-01-01T06:40:06.000Z</time>
      </trkpt>
      <trkpt lat="43.61864" lon="1.52394">
        <ele>190</ele>
        <time>2000-01-01T06:40:16.000Z</time>
      </trkpt>
      <trkpt lat="43.61855" lon="1.52392">
        <ele>204</ele>
        <time>2000-01-01T06:40:26.000Z</time>
      </trkpt>
      <trkpt lat="43.61846" lon="1.52389">
        <ele>204.5</ele>
        <time>2000-01-01T06:40:36.000Z</time>
      </trkpt>
      <trkpt lat="43.61836" lon="1.52387">
        <ele>189</ele>
        <time>2000-01-01T06:40:46.000Z</time>
      </trkpt>
      <trkpt lat="43.61827" lon="1.52386">
        <ele>205.3</ele>
        <time>2000-01-01T06:40:56.000Z</time>
      </trkpt>
      <trkpt lat="43.61819" lon="1.52384">
        <ele>205.6</ele>
        <time>2000-01-01T06:41:06.000Z</time>
      </trkpt>
      <trkpt lat="43.6181" lon="1.52381">
        <ele>189</ele>
        <time>2000-01-01T06:41:16.000Z</time>
      </trkpt>
      <trkpt lat="43.61801" lon="1.52378">
        <ele>206.7</ele>
        <time>2000-01-01T06:41:26.000Z</time>
      </trkpt>
      <trkpt lat="43.61793" lon="1.52374">
        <ele>207.4</ele>
        <time>2000-01-01T06:41:36.000Z</time>
      </trkpt>
      <trkpt lat="43.61784" lon="1.52372">
        <ele>190</ele>
        <time>2000-01-01T06:41:46.000Z</time>
      </trkpt>
      <trkpt lat="43.61775" lon="1.5237">
        <ele>208.8</ele>
        <time>2000-01-01T06:41:56.000Z</time>
      </trkpt>
      <trkpt lat="43.61766" lon="1.52366">
        <ele>209.2</ele>
        <time>2000-01-01T06:42:06.000Z</time>
      </trkpt>
      <trkpt lat="43.61757" lon="1.52362">
        <ele>194</ele>
        <time>2000-01-01T06:42:16.000Z</time>
      </trkpt>
      <trkpt lat="43.61748" lon="1.52359">
        <ele>210.1</ele>
        <time>2000-01-01T06:42:26.000Z</time>
      </trkpt>
      <trkpt lat="43.6174" lon="1.52356">
        <ele>210.7</ele>
        <time>2000-01-01T06:42:36.000Z</time>
      </trkpt>
      <trkpt lat="43.61732" lon="1.52354">
        <ele>197</ele>
        <time>2000-01-01T06:42:46.000Z</time>
      </trkpt>
      <trkpt lat="43.61723" lon="1.52351">
        <ele>211.9</ele>
        <time>2000-01-01T06:42:56.000Z</time>
      </trkpt>
      <trkpt lat="43.61714" lon="1.52349">
        <ele>212.4</ele>
        <time>2000-01-01T06:43:06.000Z</time>
      </trkpt>
      <trkpt lat="43.61705" lon="1.52346">
        <ele>199</ele>
        <time>2000-01-01T06:43:16.000Z</time>
      </trkpt>
      <trkpt lat="43.61697" lon="1.52343">
        <ele>213.5</ele>
        <time>2000-01-01T06:43:26.000Z</time>
      </trkpt>
      <trkpt lat="43.61687" lon="1.52339">
        <ele>214.1</ele>
        <time>2000-01-01T06:43:36.000Z</time>
      </trkpt>
      <trkpt lat="43.61679" lon="1.52337">
        <ele>201</ele>
        <time>2000-01-01T06:43:46.000Z</time>
      </trkpt>
      <trkpt lat="43.6167" lon="1.52335">
        <ele>214.9</ele>
        <time>2000-01-01T06:43:56.000Z</time>
      </trkpt>
      <trkpt lat="43.61661" lon="1.5233">
        <ele>215.7</ele>
        <time>2000-01-01T06:44:06.000Z</time>
      </trkpt>
      <trkpt lat="43.61653" lon="1.52326">
        <ele>202</ele>
        <time>2000-01-01T06:44:16.000Z</time>
      </trkpt>
      <trkpt lat="43.61644" lon="1.52322">
        <ele>217.5</ele>
        <time>2000-01-01T06:44:26.000Z</time>
      </trkpt>
      <trkpt lat="43.61635" lon="1.52319">
        <ele>218.1</ele>
        <time>2000-01-01T06:44:36.000Z</time>
      </trkpt>
      <trkpt lat="43.61627" lon="1.52315">
        <ele>202</ele>
        <time>2000-01-01T06:44:46.000Z</time>
      </trkpt>
      <trkpt lat="43.61619" lon="1.5231">
        <ele>218.7</ele>
        <time>2000-01-01T06:44:56.000Z</time>
      </trkpt>
      <trkpt lat="43.61612" lon="1.52302">
        <ele>219</ele>
        <time>2000-01-01T06:45:06.000Z</time>
      </trkpt>
      <trkpt lat="43.61603" lon="1.52299">
        <ele>203</ele>
        <time>2000-01-01T06:45:16.000Z</time>
      </trkpt>
      <trkpt lat="43.61593" lon="1.52297">
        <ele>219.7</ele>
        <time>2000-01-01T06:45:26.000Z</time>
      </trkpt>
      <trkpt lat="43.61585" lon="1.52288">
        <ele>203</ele>
        <time>2000-01-01T06:45:36.000Z</time>
      </trkpt>
      <trkpt lat="43.61579" lon="1.52281">
        <ele>219.9</ele>
        <time>2000-01-01T06:45:46.000Z</time>
      </trkpt>
      <trkpt lat="43.6157" lon="1.52279">
        <ele>219.5</ele>
        <time>2000-01-01T06:45:56.000Z</time>
      </trkpt>
      <trkpt lat="43.61562" lon="1.52271">
        <ele>203</ele>
        <time>2000-01-01T06:46:06.000Z</time>
      </trkpt>
      <trkpt lat="43.61551" lon="1.52266">
        <ele>218.4</ele>
        <time>2000-01-01T06:46:16.000Z</time>
      </trkpt>
      <trkpt lat="43.61541" lon="1.5226">
        <ele>202</ele>
        <time>2000-01-01T06:46:26.000Z</time>
      </trkpt>
      <trkpt lat="43.61535" lon="1.52252">
        <ele>217.3</ele>
        <time>2000-01-01T06:46:36.000Z</time>
      </trkpt>
      <trkpt lat="43.61527" lon="1.52248">
        <ele>216.8</ele>
        <time>2000-01-01T06:46:46.000Z</time>
      </trkpt>
      <trkpt lat="43.61519" lon="1.52244">
        <ele>200</ele>
        <time>2000-01-01T06:46:56.000Z</time>
      </trkpt>
      <trkpt lat="43.6151" lon="1.52241">
        <ele>215.3</ele>
        <time>2000-01-01T06:47:06.000Z</time>
      </trkpt>
      <trkpt lat="43.615" lon="1.52236">
        <ele>200</ele>
        <time>2000-01-01T06:47:16.000Z</time>
      </trkpt>
      <trkpt lat="43.61489" lon="1.52234">
        <ele>213.6</ele>
        <time>2000-01-01T06:47:26.000Z</time>
      </trkpt>
      <trkpt lat="43.61482" lon="1.52229">
        <ele>212.9</ele>
        <time>2000-01-01T06:47:36.000Z</time>
      </trkpt>
      <trkpt lat="43.61473" lon="1.52228">
        <ele>199</ele>
        <time>2000-01-01T06:47:46.000Z</time>
      </trkpt>
      <trkpt lat="43.61463" lon="1.52229">
        <ele>211.9</ele>
        <time>2000-01-01T06:47:56.000Z</time>
      </trkpt>
      <trkpt lat="43.61455" lon="1.52227">
        <ele>211.6</ele>
        <time>2000-01-01T06:48:06.000Z</time>
      </trkpt>
      <trkpt lat="43.61446" lon="1.52225">
        <ele>197</ele>
        <time>2000-01-01T06:48:16.000Z</time>
      </trkpt>
      <trkpt lat="43.61438" lon="1.52222">
        <ele>211</ele>
        <time>2000-01-01T06:48:26.000Z</time>
      </trkpt>
      <trkpt lat="43.6143" lon="1.52219">
        <ele>210.9</ele>
        <time>2000-01-01T06:48:36.000Z</time>
      </trkpt>
      <trkpt lat="43.61419" lon="1.52217">
        <ele>196</ele>
        <time>2000-01-01T06:48:46.000Z</time>
      </trkpt>
      <trkpt lat="43.6141" lon="1.52214">
        <ele>210.5</ele>
        <time>2000-01-01T06:48:56.000Z</time>
      </trkpt>
      <trkpt lat="43.614" lon="1.5221">
        <ele>210.2</ele>
        <time>2000-01-01T06:49:06.000Z</time>
      </trkpt>
      <trkpt lat="43.614" lon="1.52198">
        <ele>195</ele>
        <time>2000-01-01T06:49:16.000Z</time>
      </trkpt>
      <trkpt lat="43.61407" lon="1.52191">
        <ele>210</ele>
        <time>2000-01-01T06:49:26.000Z</time>
      </trkpt>
      <trkpt lat="43.61411" lon="1.52179">
        <ele>210</ele>
        <time>2000-01-01T06:49:36.000Z</time>
      </trkpt>
      <trkpt lat="43.61417" lon="1.52168">
        <ele>195</ele>
        <time>2000-01-01T06:49:46.000Z</time>
      </trkpt>
      <trkpt lat="43.61421" lon="1.52155">
        <ele>209.6</ele>
        <time>2000-01-01T06:49:56.000Z</time>
      </trkpt>
      <trkpt lat="43.61428" lon="1.52143">
        <ele>195</ele>
        <time>2000-01-01T06:50:06.000Z</time>
      </trkpt>
      <trkpt lat="43.61432" lon="1.52134">
        <ele>209</ele>
        <time>2000-01-01T06:50:16.000Z</time>
      </trkpt>
      <trkpt lat="43.61441" lon="1.52129">
        <ele>209</ele>
        <time>2000-01-01T06:50:26.000Z</time>
      </trkpt>
      <trkpt lat="43.61446" lon="1.52119">
        <ele>195</ele>
        <time>2000-01-01T06:50:36.000Z</time>
      </trkpt>
      <trkpt lat="43.61449" lon="1.52108">
        <ele>208.7</ele>
        <time>2000-01-01T06:50:46.000Z</time>
      </trkpt>
      <trkpt lat="43.61451" lon="1.52094">
        <ele>208.3</ele>
        <time>2000-01-01T06:50:56.000Z</time>
      </trkpt>
      <trkpt lat="43.61452" lon="1.52083">
        <ele>195</ele>
        <time>2000-01-01T06:51:06.000Z</time>
      </trkpt>
      <trkpt lat="43.61458" lon="1.52072">
        <ele>207.6</ele>
        <time>2000-01-01T06:51:16.000Z</time>
      </trkpt>
      <trkpt lat="43.61464" lon="1.5206">
        <ele>195</ele>
        <time>2000-01-01T06:51:26.000Z</time>
      </trkpt>
      <trkpt lat="43.61469" lon="1.5205">
        <ele>206.8</ele>
        <time>2000-01-01T06:51:36.000Z</time>
      </trkpt>
      <trkpt lat="43.61475" lon="1.5204">
        <ele>206.5</ele>
        <time>2000-01-01T06:51:46.000Z</time>
      </trkpt>
      <trkpt lat="43.61482" lon="1.52029">
        <ele>195</ele>
        <time>2000-01-01T06:51:56.000Z</time>
      </trkpt>
      <trkpt lat="43.61486" lon="1.52018">
        <ele>206</ele>
        <time>2000-01-01T06:52:06.000Z</time>
      </trkpt>
      <trkpt lat="43.61492" lon="1.52006">
        <ele>195</ele>
        <time>2000-01-01T06:52:16.000Z</time>
      </trkpt>
      <trkpt lat="43.61496" lon="1.51991">
        <ele>204.7</ele>
        <time>2000-01-01T06:52:26.000Z</time>
      </trkpt>
      <trkpt lat="43.615" lon="1.51976">
        <ele>195</ele>
        <time>2000-01-01T06:52:36.000Z</time>
      </trkpt>
      <trkpt lat="43.61499" lon="1.51961">
        <ele>203.6</ele>
        <time>2000-01-01T06:52:46.000Z</time>
      </trkpt>
      <trkpt lat="43.61502" lon="1.51949">
        <ele>195</ele>
        <time>2000-01-01T06:52:56.000Z</time>
      </trkpt>
      <trkpt lat="43.61504" lon="1.51937">
        <ele>203.2</ele>
        <time>2000-01-01T06:53:06.000Z</time>
      </trkpt>
      <trkpt lat="43.6151" lon="1.51928">
        <ele>203.5</ele>
        <time>2000-01-01T06:53:16.000Z</time>
      </trkpt>
      <trkpt lat="43.61514" lon="1.51914">
        <ele>195</ele>
        <time>2000-01-01T06:53:26.000Z</time>
      </trkpt>
      <trkpt lat="43.61515" lon="1.51898">
        <ele>202.9</ele>
        <time>2000-01-01T06:53:36.000Z</time>
      </trkpt>
      <trkpt lat="43.61515" lon="1.51885">
        <ele>195</ele>
        <time>2000-01-01T06:53:46.000Z</time>
      </trkpt>
      <trkpt lat="43.61515" lon="1.51867">
        <ele>201.3</ele>
        <time>2000-01-01T06:53:56.000Z</time>
      </trkpt>
      <trkpt lat="43.61516" lon="1.51853">
        <ele>195</ele>
        <time>2000-01-01T06:54:06.000Z</time>
      </trkpt>
      <trkpt lat="43.61517" lon="1.51841">
        <ele>199.6</ele>
        <time>2000-01-01T06:54:16.000Z</time>
      </trkpt>
      <trkpt lat="43.61523" lon="1.51834">
        <ele>199</ele>
        <time>2000-01-01T06:54:26.000Z</time>
      </trkpt>
      <trkpt lat="43.61527" lon="1.51823">
        <ele>194</ele>
        <time>2000-01-01T06:54:36.000Z</time>
      </trkpt>
      <trkpt lat="43.61531" lon="1.51812">
        <ele>198.7</ele>
        <time>2000-01-01T06:54:46.000Z</time>
      </trkpt>
      <trkpt lat="43.61532" lon="1.51798">
        <ele>198.1</ele>
        <time>2000-01-01T06:54:56.000Z</time>
      </trkpt>
      <trkpt lat="43.6153" lon="1.51786">
        <ele>194.5</ele>
        <time>2000-01-01T06:55:06.000Z</time>
      </trkpt>
      <trkpt lat="43.6153" lon="1.51769">
        <ele>196</ele>
        <time>2000-01-01T06:55:16.000Z</time>
      </trkpt>
      <trkpt lat="43.61532" lon="1.51757">
        <ele>195</ele>
        <time>2000-01-01T06:55:26.000Z</time>
      </trkpt>
      <trkpt lat="43.61531" lon="1.51743">
        <ele>195</ele>
        <time>2000-01-01T06:55:36.000Z</time>
      </trkpt>
      <trkpt lat="43.61528" lon="1.51729">
        <ele>196</ele>
        <time>2000-01-01T06:55:46.000Z</time>
      </trkpt>
      <trkpt lat="43.61526" lon="1.51717">
        <ele>193.1</ele>
        <time>2000-01-01T06:55:56.000Z</time>
      </trkpt>
      <trkpt lat="43.61525" lon="1.51704">
        <ele>193.1</ele>
        <time>2000-01-01T06:56:06.000Z</time>
      </trkpt>
      <trkpt lat="43.61525" lon="1.5169">
        <ele>197</ele>
        <time>2000-01-01T06:56:16.000Z</time>
      </trkpt>
      <trkpt lat="43.61523" lon="1.51677">
        <ele>192.4</ele>
        <time>2000-01-01T06:56:26.000Z</time>
      </trkpt>
      <trkpt lat="43.61521" lon="1.51663">
        <ele>197</ele>
        <time>2000-01-01T06:56:36.000Z</time>
      </trkpt>
      <trkpt lat="43.61516" lon="1.51652">
        <ele>191.9</ele>
        <time>2000-01-01T06:56:46.000Z</time>
      </trkpt>
      <trkpt lat="43.61511" lon="1.51638">
        <ele>196</ele>
        <time>2000-01-01T06:56:56.000Z</time>
      </trkpt>
      <trkpt lat="43.61507" lon="1.51626">
        <ele>190.6</ele>
        <time>2000-01-01T06:57:06.000Z</time>
      </trkpt>
      <trkpt lat="43.61504" lon="1.51611">
        <ele>195</ele>
        <time>2000-01-01T06:57:16.000Z</time>
      </trkpt>
      <trkpt lat="43.615" lon="1.516">
        <ele>189</ele>
        <time>2000-01-01T06:57:26.000Z</time>
      </trkpt>
      <trkpt lat="43.61497" lon="1.5159">
        <ele>188.8</ele>
        <time>2000-01-01T06:57:36.000Z</time>
      </trkpt>
      <trkpt lat="43.61491" lon="1.51579">
        <ele>195</ele>
        <time>2000-01-01T06:57:46.000Z</time>
      </trkpt>
      <trkpt lat="43.61485" lon="1.5157">
        <ele>187.8</ele>
        <time>2000-01-01T06:57:56.000Z</time>
      </trkpt>
      <trkpt lat="43.61477" lon="1.51563">
        <ele>186.3</ele>
        <time>2000-01-01T06:58:06.000Z</time>
      </trkpt>
      <trkpt lat="43.6147" lon="1.51556">
        <ele>194</ele>
        <time>2000-01-01T06:58:16.000Z</time>
      </trkpt>
      <trkpt lat="43.61463" lon="1.51548">
        <ele>184.9</ele>
        <time>2000-01-01T06:58:26.000Z</time>
      </trkpt>
      <trkpt lat="43.61455" lon="1.51541">
        <ele>184.4</ele>
        <time>2000-01-01T06:58:36.000Z</time>
      </trkpt>
      <trkpt lat="43.61447" lon="1.51533">
        <ele>193</ele>
        <time>2000-01-01T06:58:46.000Z</time>
      </trkpt>
      <trkpt lat="43.61436" lon="1.51529">
        <ele>182.4</ele>
        <time>2000-01-01T06:58:56.000Z</time>
      </trkpt>
      <trkpt lat="43.61429" lon="1.51524">
        <ele>187</ele>
        <time>2000-01-01T06:59:06.000Z</time>
      </trkpt>
      <trkpt lat="43.61419" lon="1.51517">
        <ele>181.3</ele>
        <time>2000-01-01T06:59:16.000Z</time>
      </trkpt>
      <trkpt lat="43.61413" lon="1.51509">
        <ele>180.6</ele>
        <time>2000-01-01T06:59:26.000Z</time>
      </trkpt>
      <trkpt lat="43.61405" lon="1.51502">
        <ele>182</ele>
        <time>2000-01-01T06:59:36.000Z</time>
      </trkpt>
      <trkpt lat="43.61398" lon="1.51492">
        <ele>179.2</ele>
        <time>2000-01-01T06:59:46.000Z</time>
      </trkpt>
      <trkpt lat="43.61393" lon="1.51482">
        <ele>178.6</ele>
        <time>2000-01-01T06:59:56.000Z</time>
      </trkpt>
      <trkpt lat="43.61391" lon="1.51467">
        <ele>181</ele>
        <time>2000-01-01T07:00:06.000Z</time>
      </trkpt>
      <trkpt lat="43.61392" lon="1.51454">
        <ele>178.6</ele>
        <time>2000-01-01T07:00:16.000Z</time>
      </trkpt>
      <trkpt lat="43.61392" lon="1.51442">
        <ele>178.7</ele>
        <time>2000-01-01T07:00:26.000Z</time>
      </trkpt>
      <trkpt lat="43.61391" lon="1.5143">
        <ele>177</ele>
        <time>2000-01-01T07:00:36.000Z</time>
      </trkpt>
      <trkpt lat="43.6139" lon="1.51416">
        <ele>178.2</ele>
        <time>2000-01-01T07:00:46.000Z</time>
      </trkpt>
      <trkpt lat="43.61387" lon="1.51401">
        <ele>174</ele>
        <time>2000-01-01T07:00:56.000Z</time>
      </trkpt>
      <trkpt lat="43.61387" lon="1.51386">
        <ele>176.7</ele>
        <time>2000-01-01T07:01:06.000Z</time>
      </trkpt>
      <trkpt lat="43.61387" lon="1.51375">
        <ele>176</ele>
        <time>2000-01-01T07:01:16.000Z</time>
      </trkpt>
      <trkpt lat="43.61386" lon="1.51361">
        <ele>173</ele>
        <time>2000-01-01T07:01:26.000Z</time>
      </trkpt>
      <trkpt lat="43.61386" lon="1.51348">
        <ele>175</ele>
        <time>2000-01-01T07:01:36.000Z</time>
      </trkpt>
      <trkpt lat="43.61385" lon="1.51333">
        <ele>171</ele>
        <time>2000-01-01T07:01:46.000Z</time>
      </trkpt>
      <trkpt lat="43.61385" lon="1.51319">
        <ele>175</ele>
        <time>2000-01-01T07:01:56.000Z</time>
      </trkpt>
      <trkpt lat="43.61384" lon="1.51306">
        <ele>170</ele>
        <time>2000-01-01T07:02:06.000Z</time>
      </trkpt>
      <trkpt lat="43.61383" lon="1.51294">
        <ele>175.3</ele>
        <time>2000-01-01T07:02:16.000Z</time>
      </trkpt>
      <trkpt lat="43.61381" lon="1.51282">
        <ele>175.6</ele>
        <time>2000-01-01T07:02:26.000Z</time>
      </trkpt>
      <trkpt lat="43.61379" lon="1.51268">
        <ele>169</ele>
        <time>2000-01-01T07:02:36.000Z</time>
      </trkpt>
      <trkpt lat="43.61379" lon="1.51256">
        <ele>175.6</ele>
        <time>2000-01-01T07:02:46.000Z</time>
      </trkpt>
      <trkpt lat="43.61378" lon="1.51244">
        <ele>175.5</ele>
        <time>2000-01-01T07:02:56.000Z</time>
      </trkpt>
      <trkpt lat="43.61376" lon="1.5123">
        <ele>169</ele>
        <time>2000-01-01T07:03:06.000Z</time>
      </trkpt>
      <trkpt lat="43.61373" lon="1.51216">
        <ele>174.7</ele>
        <time>2000-01-01T07:03:16.000Z</time>
      </trkpt>
      <trkpt lat="43.61371" lon="1.51203">
        <ele>169</ele>
        <time>2000-01-01T07:03:26.000Z</time>
      </trkpt>
      <trkpt lat="43.61368" lon="1.5119">
        <ele>173.7</ele>
        <time>2000-01-01T07:03:36.000Z</time>
      </trkpt>
      <trkpt lat="43.61368" lon="1.51176">
        <ele>167</ele>
        <time>2000-01-01T07:03:46.000Z</time>
      </trkpt>
      <trkpt lat="43.61365" lon="1.51165">
        <ele>172.7</ele>
        <time>2000-01-01T07:03:56.000Z</time>
      </trkpt>
      <trkpt lat="43.61362" lon="1.51151">
        <ele>167</ele>
        <time>2000-01-01T07:04:06.000Z</time>
      </trkpt>
      <trkpt lat="43.61361" lon="1.51137">
        <ele>172.1</ele>
        <time>2000-01-01T07:04:16.000Z</time>
      </trkpt>
      <trkpt lat="43.61353" lon="1.5113">
        <ele>172.4</ele>
        <time>2000-01-01T07:04:26.000Z</time>
      </trkpt>
      <trkpt lat="43.61345" lon="1.51119">
        <ele>166</ele>
        <time>2000-01-01T07:04:36.000Z</time>
      </trkpt>
      <trkpt lat="43.61337" lon="1.51107">
        <ele>172.1</ele>
        <time>2000-01-01T07:04:46.000Z</time>
      </trkpt>
      <trkpt lat="43.61332" lon="1.51097">
        <ele>165</ele>
        <time>2000-01-01T07:04:56.000Z</time>
      </trkpt>
      <trkpt lat="43.61328" lon="1.51084">
        <ele>172.2</ele>
        <time>2000-01-01T07:05:06.000Z</time>
      </trkpt>
      <trkpt lat="43.61324" lon="1.51074">
        <ele>172.1</ele>
        <time>2000-01-01T07:05:16.000Z</time>
      </trkpt>
      <trkpt lat="43.6132" lon="1.51061">
        <ele>164</ele>
        <time>2000-01-01T07:05:26.000Z</time>
      </trkpt>
      <trkpt lat="43.61316" lon="1.5105">
        <ele>172.2</ele>
        <time>2000-01-01T07:05:36.000Z</time>
      </trkpt>
      <trkpt lat="43.6131" lon="1.5104">
        <ele>172.7</ele>
        <time>2000-01-01T07:05:46.000Z</time>
      </trkpt>
      <trkpt lat="43.61303" lon="1.5103">
        <ele>163</ele>
        <time>2000-01-01T07:05:56.000Z</time>
      </trkpt>
      <trkpt lat="43.61299" lon="1.51019">
        <ele>172.7</ele>
        <time>2000-01-01T07:06:06.000Z</time>
      </trkpt>
      <trkpt lat="43.61293" lon="1.5101">
        <ele>172.5</ele>
        <time>2000-01-01T07:06:16.000Z</time>
      </trkpt>
      <trkpt lat="43.61287" lon="1.51">
        <ele>161</ele>
        <time>2000-01-01T07:06:26.000Z</time>
      </trkpt>
      <trkpt lat="43.61283" lon="1.5099">
        <ele>172.3</ele>
        <time>2000-01-01T07:06:36.000Z</time>
      </trkpt>
      <trkpt lat="43.61281" lon="1.50976">
        <ele>172</ele>
        <time>2000-01-01T07:06:46.000Z</time>
      </trkpt>
      <trkpt lat="43.61284" lon="1.50965">
        <ele>159</ele>
        <time>2000-01-01T07:06:56.000Z</time>
      </trkpt>
      <trkpt lat="43.61287" lon="1.50952">
        <ele>171.7</ele>
        <time>2000-01-01T07:07:06.000Z</time>
      </trkpt>
      <trkpt lat="43.61291" lon="1.5094">
        <ele>171.4</ele>
        <time>2000-01-01T07:07:16.000Z</time>
      </trkpt>
      <trkpt lat="43.61298" lon="1.50931">
        <ele>157</ele>
        <time>2000-01-01T07:07:26.000Z</time>
      </trkpt>
      <trkpt lat="43.61304" lon="1.50923">
        <ele>171</ele>
        <time>2000-01-01T07:07:36.000Z</time>
      </trkpt>
      <trkpt lat="43.61311" lon="1.50912">
        <ele>155</ele>
        <time>2000-01-01T07:07:46.000Z</time>
      </trkpt>
      <trkpt lat="43.61319" lon="1.50904">
        <ele>170.8</ele>
        <time>2000-01-01T07:07:56.000Z</time>
      </trkpt>
      <trkpt lat="43.61327" lon="1.50895">
        <ele>156</ele>
        <time>2000-01-01T07:08:06.000Z</time>
      </trkpt>
      <trkpt lat="43.61334" lon="1.50886">
        <ele>171.3</ele>
        <time>2000-01-01T07:08:16.000Z</time>
      </trkpt>
      <trkpt lat="43.61341" lon="1.50878">
        <ele>172.2</ele>
        <time>2000-01-01T07:08:26.000Z</time>
      </trkpt>
      <trkpt lat="43.61349" lon="1.50868">
        <ele>157</ele>
        <time>2000-01-01T07:08:36.000Z</time>
      </trkpt>
      <trkpt lat="43.61355" lon="1.5086">
        <ele>173.9</ele>
        <time>2000-01-01T07:08:46.000Z</time>
      </trkpt>
      <trkpt lat="43.61362" lon="1.50851">
        <ele>175.1</ele>
        <time>2000-01-01T07:08:56.000Z</time>
      </trkpt>
      <trkpt lat="43.6137" lon="1.50843">
        <ele>161</ele>
        <time>2000-01-01T07:09:06.000Z</time>
      </trkpt>
      <trkpt lat="43.61377" lon="1.50837">
        <ele>176.8</ele>
        <time>2000-01-01T07:09:16.000Z</time>
      </trkpt>
      <trkpt lat="43.61386" lon="1.50834">
        <ele>177</ele>
        <time>2000-01-01T07:09:26.000Z</time>
      </trkpt>
      <trkpt lat="43.61394" lon="1.50832">
        <ele>163</ele>
        <time>2000-01-01T07:09:36.000Z</time>
      </trkpt>
      <trkpt lat="43.61404" lon="1.50831">
        <ele>178.2</ele>
        <time>2000-01-01T07:09:46.000Z</time>
      </trkpt>
      <trkpt lat="43.61412" lon="1.50831">
        <ele>178.8</ele>
        <time>2000-01-01T07:09:56.000Z</time>
      </trkpt>
      <trkpt lat="43.6142" lon="1.50834">
        <ele>166</ele>
        <time>2000-01-01T07:10:06.000Z</time>
      </trkpt>
      <trkpt lat="43.61429" lon="1.50838">
        <ele>180.3</ele>
        <time>2000-01-01T07:10:16.000Z</time>
      </trkpt>
      <trkpt lat="43.61437" lon="1.50842">
        <ele>181</ele>
        <time>2000-01-01T07:10:26.000Z</time>
      </trkpt>
      <trkpt lat="43.61448" lon="1.50845">
        <ele>169</ele>
        <time>2000-01-01T07:10:36.000Z</time>
      </trkpt>
      <trkpt lat="43.61456" lon="1.50848">
        <ele>182.1</ele>
        <time>2000-01-01T07:10:46.000Z</time>
      </trkpt>
      <trkpt lat="43.61465" lon="1.50852">
        <ele>182.6</ele>
        <time>2000-01-01T07:10:56.000Z</time>
      </trkpt>
      <trkpt lat="43.61473" lon="1.50856">
        <ele>171</ele>
        <time>2000-01-01T07:11:06.000Z</time>
      </trkpt>
      <trkpt lat="43.61482" lon="1.50859">
        <ele>183.4</ele>
        <time>2000-01-01T07:11:16.000Z</time>
      </trkpt>
      <trkpt lat="43.6149" lon="1.50862">
        <ele>183.6</ele>
        <time>2000-01-01T07:11:26.000Z</time>
      </trkpt>
      <trkpt lat="43.61501" lon="1.50865">
        <ele>172</ele>
        <time>2000-01-01T07:11:36.000Z</time>
      </trkpt>
      <trkpt lat="43.6151" lon="1.50868">
        <ele>184.1</ele>
        <time>2000-01-01T07:11:46.000Z</time>
      </trkpt>
      <trkpt lat="43.61518" lon="1.5087">
        <ele>184.2</ele>
        <time>2000-01-01T07:11:56.000Z</time>
      </trkpt>
      <trkpt lat="43.61527" lon="1.50874">
        <ele>173</ele>
        <time>2000-01-01T07:12:06.000Z</time>
      </trkpt>
      <trkpt lat="43.61535" lon="1.50878">
        <ele>184.6</ele>
        <time>2000-01-01T07:12:16.000Z</time>
      </trkpt>
      <trkpt lat="43.61544" lon="1.5088">
        <ele>184.7</ele>
        <time>2000-01-01T07:12:26.000Z</time>
      </trkpt>
      <trkpt lat="43.61551" lon="1.50884">
        <ele>174</ele>
        <time>2000-01-01T07:12:36.000Z</time>
      </trkpt>
      <trkpt lat="43.6156" lon="1.5089">
        <ele>185</ele>
        <time>2000-01-01T07:12:46.000Z</time>
      </trkpt>
      <trkpt lat="43.61568" lon="1.50893">
        <ele>185.1</ele>
        <time>2000-01-01T07:12:56.000Z</time>
      </trkpt>
      <trkpt lat="43.61576" lon="1.50899">
        <ele>174</ele>
        <time>2000-01-01T07:13:06.000Z</time>
      </trkpt>
      <trkpt lat="43.61583" lon="1.50904">
        <ele>185.5</ele>
        <time>2000-01-01T07:13:16.000Z</time>
      </trkpt>
      <trkpt lat="43.61592" lon="1.5091">
        <ele>185.5</ele>
        <time>2000-01-01T07:13:26.000Z</time>
      </trkpt>
      <trkpt lat="43.61598" lon="1.50919">
        <ele>174</ele>
        <time>2000-01-01T07:13:36.000Z</time>
      </trkpt>
      <trkpt lat="43.61607" lon="1.50925">
        <ele>185.4</ele>
        <time>2000-01-01T07:13:46.000Z</time>
      </trkpt>
      <trkpt lat="43.61614" lon="1.50929">
        <ele>185.4</ele>
        <time>2000-01-01T07:13:56.000Z</time>
      </trkpt>
      <trkpt lat="43.61622" lon="1.50938">
        <ele>174</ele>
        <time>2000-01-01T07:14:06.000Z</time>
      </trkpt>
      <trkpt lat="43.6163" lon="1.50944">
        <ele>185.3</ele>
        <time>2000-01-01T07:14:16.000Z</time>
      </trkpt>
      <trkpt lat="43.61637" lon="1.50955">
        <ele>185.4</ele>
        <time>2000-01-01T07:14:26.000Z</time>
      </trkpt>
      <trkpt lat="43.61644" lon="1.50961">
        <ele>174</ele>
        <time>2000-01-01T07:14:36.000Z</time>
      </trkpt>
      <trkpt lat="43.6165" lon="1.50969">
        <ele>185.5</ele>
        <time>2000-01-01T07:14:46.000Z</time>
      </trkpt>
      <trkpt lat="43.61658" lon="1.50974">
        <ele>185.4</ele>
        <time>2000-01-01T07:14:56.000Z</time>
      </trkpt>
      <trkpt lat="43.61666" lon="1.50969">
        <ele>175</ele>
        <time>2000-01-01T07:15:06.000Z</time>
      </trkpt>
      <trkpt lat="43.61669" lon="1.50957">
        <ele>184.5</ele>
        <time>2000-01-01T07:15:16.000Z</time>
      </trkpt>
      <trkpt lat="43.61671" lon="1.50946">
        <ele>184.2</ele>
        <time>2000-01-01T07:15:26.000Z</time>
      </trkpt>
      <trkpt lat="43.61673" lon="1.50935">
        <ele>175</ele>
        <time>2000-01-01T07:15:36.000Z</time>
      </trkpt>
      <trkpt lat="43.61677" lon="1.50922">
        <ele>183.3</ele>
        <time>2000-01-01T07:15:46.000Z</time>
      </trkpt>
      <trkpt lat="43.61679" lon="1.50909">
        <ele>182.9</ele>
        <time>2000-01-01T07:15:56.000Z</time>
      </trkpt>
      <trkpt lat="43.61682" lon="1.50897">
        <ele>175</ele>
        <time>2000-01-01T07:16:06.000Z</time>
      </trkpt>
      <trkpt lat="43.61683" lon="1.50884">
        <ele>182.4</ele>
        <time>2000-01-01T07:16:16.000Z</time>
      </trkpt>
      <trkpt lat="43.61686" lon="1.50874">
        <ele>182.3</ele>
        <time>2000-01-01T07:16:26.000Z</time>
      </trkpt>
      <trkpt lat="43.6169" lon="1.50859">
        <ele>174</ele>
        <time>2000-01-01T07:16:36.000Z</time>
      </trkpt>
      <trkpt lat="43.61695" lon="1.50843">
        <ele>181.4</ele>
        <time>2000-01-01T07:16:46.000Z</time>
      </trkpt>
      <trkpt lat="43.61698" lon="1.50829">
        <ele>172</ele>
        <time>2000-01-01T07:16:56.000Z</time>
      </trkpt>
      <trkpt lat="43.61699" lon="1.50815">
        <ele>179.7</ele>
        <time>2000-01-01T07:17:06.000Z</time>
      </trkpt>
      <trkpt lat="43.61704" lon="1.50804">
        <ele>171</ele>
        <time>2000-01-01T07:17:16.000Z</time>
      </trkpt>
      <trkpt lat="43.61706" lon="1.50791">
        <ele>178.2</ele>
        <time>2000-01-01T07:17:26.000Z</time>
      </trkpt>
      <trkpt lat="43.61709" lon="1.50778">
        <ele>177.5</ele>
        <time>2000-01-01T07:17:36.000Z</time>
      </trkpt>
      <trkpt lat="43.61714" lon="1.50766">
        <ele>170</ele>
        <time>2000-01-01T07:17:46.000Z</time>
      </trkpt>
      <trkpt lat="43.61718" lon="1.50753">
        <ele>177.1</ele>
        <time>2000-01-01T07:17:56.000Z</time>
      </trkpt>
      <trkpt lat="43.61723" lon="1.50739">
        <ele>169</ele>
        <time>2000-01-01T07:18:06.000Z</time>
      </trkpt>
      <trkpt lat="43.61727" lon="1.50727">
        <ele>176.4</ele>
        <time>2000-01-01T07:18:16.000Z</time>
      </trkpt>
      <trkpt lat="43.61728" lon="1.50715">
        <ele>175.7</ele>
        <time>2000-01-01T07:18:26.000Z</time>
      </trkpt>
      <trkpt lat="43.61732" lon="1.50705">
        <ele>168</ele>
        <time>2000-01-01T07:18:36.000Z</time>
      </trkpt>
      <trkpt lat="43.61737" lon="1.50691">
        <ele>174.4</ele>
        <time>2000-01-01T07:18:46.000Z</time>
      </trkpt>
      <trkpt lat="43.61739" lon="1.5068">
        <ele>166</ele>
        <time>2000-01-01T07:18:56.000Z</time>
      </trkpt>
      <trkpt lat="43.61733" lon="1.50671">
        <ele>173.5</ele>
        <time>2000-01-01T07:19:06.000Z</time>
      </trkpt>
      <trkpt lat="43.61725" lon="1.50662">
        <ele>173.2</ele>
        <time>2000-01-01T07:19:16.000Z</time>
      </trkpt>
      <trkpt lat="43.61719" lon="1.50655">
        <ele>166</ele>
        <time>2000-01-01T07:19:26.000Z</time>
      </trkpt>
      <trkpt lat="43.61713" lon="1.50646">
        <ele>173.5</ele>
        <time>2000-01-01T07:19:36.000Z</time>
      </trkpt>
      <trkpt lat="43.61708" lon="1.50636">
        <ele>173.6</ele>
        <time>2000-01-01T07:19:46.000Z</time>
      </trkpt>
      <trkpt lat="43.61706" lon="1.50624">
        <ele>166</ele>
        <time>2000-01-01T07:19:56.000Z</time>
      </trkpt>
      <trkpt lat="43.61705" lon="1.5061">
        <ele>173.8</ele>
        <time>2000-01-01T07:20:06.000Z</time>
      </trkpt>
      <trkpt lat="43.61703" lon="1.50597">
        <ele>166</ele>
        <time>2000-01-01T07:20:16.000Z</time>
      </trkpt>
      <trkpt lat="43.61702" lon="1.50585">
        <ele>173.1</ele>
        <time>2000-01-01T07:20:26.000Z</time>
      </trkpt>
      <trkpt lat="43.61699" lon="1.50573">
        <ele>172.3</ele>
        <time>2000-01-01T07:20:36.000Z</time>
      </trkpt>
      <trkpt lat="43.61697" lon="1.5056">
        <ele>166</ele>
        <time>2000-01-01T07:20:46.000Z</time>
      </trkpt>
      <trkpt lat="43.61695" lon="1.50549">
        <ele>170.9</ele>
        <time>2000-01-01T07:20:56.000Z</time>
      </trkpt>
      <trkpt lat="43.61694" lon="1.50538">
        <ele>170.4</ele>
        <time>2000-01-01T07:21:06.000Z</time>
      </trkpt>
      <trkpt lat="43.61692" lon="1.50526">
        <ele>166</ele>
        <time>2000-01-01T07:21:16.000Z</time>
      </trkpt>
      <trkpt lat="43.61691" lon="1.50514">
        <ele>170.1</ele>
        <time>2000-01-01T07:21:26.000Z</time>
      </trkpt>
      <trkpt lat="43.61688" lon="1.50501">
        <ele>170</ele>
        <time>2000-01-01T07:21:36.000Z</time>
      </trkpt>
      <trkpt lat="43.61684" lon="1.5049">
        <ele>167</ele>
        <time>2000-01-01T07:21:46.000Z</time>
      </trkpt>
      <trkpt lat="43.61682" lon="1.50477">
        <ele>170.5</ele>
        <time>2000-01-01T07:21:56.000Z</time>
      </trkpt>
      <trkpt lat="43.61679" lon="1.50466">
        <ele>170.4</ele>
        <time>2000-01-01T07:22:06.000Z</time>
      </trkpt>
      <trkpt lat="43.61675" lon="1.50454">
        <ele>166.5</ele>
        <time>2000-01-01T07:22:16.000Z</time>
      </trkpt>
      <trkpt lat="43.61672" lon="1.50444">
        <ele>169.6</ele>
        <time>2000-01-01T07:22:26.000Z</time>
      </trkpt>
      <trkpt lat="43.61668" lon="1.50432">
        <ele>169.2</ele>
        <time>2000-01-01T07:22:36.000Z</time>
      </trkpt>
      <trkpt lat="43.61663" lon="1.50421">
        <ele>166</ele>
        <time>2000-01-01T07:22:46.000Z</time>
      </trkpt>
      <trkpt lat="43.61658" lon="1.50408">
        <ele>169.2</ele>
        <time>2000-01-01T07:22:56.000Z</time>
      </trkpt>
      <trkpt lat="43.61651" lon="1.504">
        <ele>169.3</ele>
        <time>2000-01-01T07:23:06.000Z</time>
      </trkpt>
      <trkpt lat="43.61644" lon="1.50394">
        <ele>165</ele>
        <time>2000-01-01T07:23:16.000Z</time>
      </trkpt>
      <trkpt lat="43.61636" lon="1.50389">
        <ele>169.1</ele>
        <time>2000-01-01T07:23:26.000Z</time>
      </trkpt>
      <trkpt lat="43.61628" lon="1.50384">
        <ele>169.3</ele>
        <time>2000-01-01T07:23:36.000Z</time>
      </trkpt>
      <trkpt lat="43.6162" lon="1.5038">
        <ele>162</ele>
        <time>2000-01-01T07:23:46.000Z</time>
      </trkpt>
      <trkpt lat="43.61618" lon="1.50368">
        <ele>169.2</ele>
        <time>2000-01-01T07:23:56.000Z</time>
      </trkpt>
      <trkpt lat="43.61622" lon="1.50358">
        <ele>168.8</ele>
        <time>2000-01-01T07:24:06.000Z</time>
      </trkpt>
      <trkpt lat="43.61623" lon="1.50343">
        <ele>161</ele>
        <time>2000-01-01T07:24:16.000Z</time>
      </trkpt>
      <trkpt lat="43.61625" lon="1.50326">
        <ele>167.1</ele>
        <time>2000-01-01T07:24:26.000Z</time>
      </trkpt>
      <trkpt lat="43.61628" lon="1.50316">
        <ele>159</ele>
        <time>2000-01-01T07:24:36.000Z</time>
      </trkpt>
      <trkpt lat="43.61628" lon="1.503">
        <ele>165.7</ele>
        <time>2000-01-01T07:24:46.000Z</time>
      </trkpt>
      <trkpt lat="43.61626" lon="1.50289">
        <ele>158</ele>
        <time>2000-01-01T07:24:56.000Z</time>
      </trkpt>
      <trkpt lat="43.61626" lon="1.50277">
        <ele>164.5</ele>
        <time>2000-01-01T07:25:06.000Z</time>
      </trkpt>
      <trkpt lat="43.61624" lon="1.50263">
        <ele>164.4</ele>
        <time>2000-01-01T07:25:16.000Z</time>
      </trkpt>
      <trkpt lat="43.6162" lon="1.5025">
        <ele>157</ele>
        <time>2000-01-01T07:25:26.000Z</time>
      </trkpt>
      <trkpt lat="43.61618" lon="1.50236">
        <ele>163.6</ele>
        <time>2000-01-01T07:25:36.000Z</time>
      </trkpt>
      <trkpt lat="43.61619" lon="1.50225">
        <ele>163.6</ele>
        <time>2000-01-01T07:25:46.000Z</time>
      </trkpt>
      <trkpt lat="43.61617" lon="1.50213">
        <ele>157</ele>
        <time>2000-01-01T07:25:56.000Z</time>
      </trkpt>
      <trkpt lat="43.61615" lon="1.50201">
        <ele>163.3</ele>
        <time>2000-01-01T07:26:06.000Z</time>
      </trkpt>
      <trkpt lat="43.61613" lon="1.50188">
        <ele>162.9</ele>
        <time>2000-01-01T07:26:16.000Z</time>
      </trkpt>
      <trkpt lat="43.61609" lon="1.50175">
        <ele>156</ele>
        <time>2000-01-01T07:26:26.000Z</time>
      </trkpt>
      <trkpt lat="43.61607" lon="1.50162">
        <ele>162.1</ele>
        <time>2000-01-01T07:26:36.000Z</time>
      </trkpt>
      <trkpt lat="43.61605" lon="1.5015">
        <ele>162.5</ele>
        <time>2000-01-01T07:26:46.000Z</time>
      </trkpt>
      <trkpt lat="43.61603" lon="1.50138">
        <ele>154</ele>
        <time>2000-01-01T07:26:56.000Z</time>
      </trkpt>
      <trkpt lat="43.61602" lon="1.50126">
        <ele>162.2</ele>
        <time>2000-01-01T07:27:06.000Z</time>
      </trkpt>
      <trkpt lat="43.61598" lon="1.50113">
        <ele>161.6</ele>
        <time>2000-01-01T07:27:16.000Z</time>
      </trkpt>
      <trkpt lat="43.61597" lon="1.50099">
        <ele>154</ele>
        <time>2000-01-01T07:27:26.000Z</time>
      </trkpt>
      <trkpt lat="43.61595" lon="1.50088">
        <ele>161.1</ele>
        <time>2000-01-01T07:27:36.000Z</time>
      </trkpt>
      <trkpt lat="43.61594" lon="1.50074">
        <ele>160.8</ele>
        <time>2000-01-01T07:27:46.000Z</time>
      </trkpt>
      <trkpt lat="43.61593" lon="1.5006">
        <ele>152</ele>
        <time>2000-01-01T07:27:56.000Z</time>
      </trkpt>
      <trkpt lat="43.61594" lon="1.50046">
        <ele>160</ele>
        <time>2000-01-01T07:28:06.000Z</time>
      </trkpt>
      <trkpt lat="43.61592" lon="1.50031">
        <ele>150</ele>
        <time>2000-01-01T07:28:16.000Z</time>
      </trkpt>
      <trkpt lat="43.61591" lon="1.5002">
        <ele>159.2</ele>
        <time>2000-01-01T07:28:26.000Z</time>
      </trkpt>
      <trkpt lat="43.61588" lon="1.50006">
        <ele>159</ele>
        <time>2000-01-01T07:28:36.000Z</time>
      </trkpt>
      <trkpt lat="43.61585" lon="1.49993">
        <ele>149</ele>
        <time>2000-01-01T07:28:46.000Z</time>
      </trkpt>
      <trkpt lat="43.61584" lon="1.4998">
        <ele>158.3</ele>
        <time>2000-01-01T07:28:56.000Z</time>
      </trkpt>
      <trkpt lat="43.61582" lon="1.49968">
        <ele>157.8</ele>
        <time>2000-01-01T07:29:06.000Z</time>
      </trkpt>
      <trkpt lat="43.61581" lon="1.49953">
        <ele>149</ele>
        <time>2000-01-01T07:29:16.000Z</time>
      </trkpt>
      <trkpt lat="43.6158" lon="1.4994">
        <ele>156.8</ele>
        <time>2000-01-01T07:29:26.000Z</time>
      </trkpt>
      <trkpt lat="43.61578" lon="1.49927">
        <ele>156.4</ele>
        <time>2000-01-01T07:29:36.000Z</time>
      </trkpt>
      <trkpt lat="43.61577" lon="1.49916">
        <ele>147</ele>
        <time>2000-01-01T07:29:46.000Z</time>
      </trkpt>
      <trkpt lat="43.61576" lon="1.49904">
        <ele>156</ele>
        <time>2000-01-01T07:29:56.000Z</time>
      </trkpt>
      <trkpt lat="43.61574" lon="1.4989">
        <ele>156</ele>
        <time>2000-01-01T07:30:06.000Z</time>
      </trkpt>
      <trkpt lat="43.61573" lon="1.49879">
        <ele>146</ele>
        <time>2000-01-01T07:30:16.000Z</time>
      </trkpt>
      <trkpt lat="43.61571" lon="1.49866">
        <ele>155.2</ele>
        <time>2000-01-01T07:30:26.000Z</time>
      </trkpt>
      <trkpt lat="43.6157" lon="1.49853">
        <ele>155</ele>
        <time>2000-01-01T07:30:36.000Z</time>
      </trkpt>
      <trkpt lat="43.6157" lon="1.49839">
        <ele>145</ele>
        <time>2000-01-01T07:30:46.000Z</time>
      </trkpt>
      <trkpt lat="43.61569" lon="1.49828">
        <ele>155</ele>
        <time>2000-01-01T07:30:56.000Z</time>
      </trkpt>
      <trkpt lat="43.61568" lon="1.49814">
        <ele>155</ele>
        <time>2000-01-01T07:31:06.000Z</time>
      </trkpt>
      <trkpt lat="43.61567" lon="1.49801">
        <ele>143</ele>
        <time>2000-01-01T07:31:16.000Z</time>
      </trkpt>
      <trkpt lat="43.61565" lon="1.49788">
        <ele>154.2</ele>
        <time>2000-01-01T07:31:26.000Z</time>
      </trkpt>
      <trkpt lat="43.61564" lon="1.49776">
        <ele>153.6</ele>
        <time>2000-01-01T07:31:36.000Z</time>
      </trkpt>
      <trkpt lat="43.61563" lon="1.49764">
        <ele>142</ele>
        <time>2000-01-01T07:31:46.000Z</time>
      </trkpt>
      <trkpt lat="43.61567" lon="1.49752">
        <ele>152.5</ele>
        <time>2000-01-01T07:31:56.000Z</time>
      </trkpt>
      <trkpt lat="43.61569" lon="1.49741">
        <ele>152.3</ele>
        <time>2000-01-01T07:32:06.000Z</time>
      </trkpt>
      <trkpt lat="43.61571" lon="1.49728">
        <ele>142</ele>
        <time>2000-01-01T07:32:16.000Z</time>
      </trkpt>
      <trkpt lat="43.61571" lon="1.49715">
        <ele>152</ele>
        <time>2000-01-01T07:32:26.000Z</time>
      </trkpt>
      <trkpt lat="43.61572" lon="1.49701">
        <ele>141</ele>
        <time>2000-01-01T07:32:36.000Z</time>
      </trkpt>
      <trkpt lat="43.61571" lon="1.49687">
        <ele>151.9</ele>
        <time>2000-01-01T07:32:46.000Z</time>
      </trkpt>
      <trkpt lat="43.6157" lon="1.49676">
        <ele>151.7</ele>
        <time>2000-01-01T07:32:56.000Z</time>
      </trkpt>
      <trkpt lat="43.6157" lon="1.49664">
        <ele>141</ele>
        <time>2000-01-01T07:33:06.000Z</time>
      </trkpt>
      <trkpt lat="43.61569" lon="1.49651">
        <ele>150.7</ele>
        <time>2000-01-01T07:33:16.000Z</time>
      </trkpt>
      <trkpt lat="43.6157" lon="1.49635">
        <ele>141</ele>
        <time>2000-01-01T07:33:26.000Z</time>
      </trkpt>
      <trkpt lat="43.61569" lon="1.49621">
        <ele>149.7</ele>
        <time>2000-01-01T07:33:36.000Z</time>
      </trkpt>
      <trkpt lat="43.6157" lon="1.49609">
        <ele>149.4</ele>
        <time>2000-01-01T07:33:46.000Z</time>
      </trkpt>
      <trkpt lat="43.6157" lon="1.49592">
        <ele>141</ele>
        <time>2000-01-01T07:33:56.000Z</time>
      </trkpt>
      <trkpt lat="43.6157" lon="1.49579">
        <ele>148.4</ele>
        <time>2000-01-01T07:34:06.000Z</time>
      </trkpt>
      <trkpt lat="43.61571" lon="1.49567">
        <ele>148.2</ele>
        <time>2000-01-01T07:34:16.000Z</time>
      </trkpt>
      <trkpt lat="43.61574" lon="1.49556">
        <ele>139</ele>
        <time>2000-01-01T07:34:26.000Z</time>
      </trkpt>
      <trkpt lat="43.61576" lon="1.49543">
        <ele>147.7</ele>
        <time>2000-01-01T07:34:36.000Z</time>
      </trkpt>
      <trkpt lat="43.61576" lon="1.4953">
        <ele>147.3</ele>
        <time>2000-01-01T07:34:46.000Z</time>
      </trkpt>
      <trkpt lat="43.61578" lon="1.49517">
        <ele>138</ele>
        <time>2000-01-01T07:34:56.000Z</time>
      </trkpt>
      <trkpt lat="43.61581" lon="1.49504">
        <ele>147</ele>
        <time>2000-01-01T07:35:06.000Z</time>
      </trkpt>
      <trkpt lat="43.61582" lon="1.49491">
        <ele>146.7</ele>
        <time>2000-01-01T07:35:16.000Z</time>
      </trkpt>
      <trkpt lat="43.61583" lon="1.49478">
        <ele>137</ele>
        <time>2000-01-01T07:35:26.000Z</time>
      </trkpt>
      <trkpt lat="43.61581" lon="1.49467">
        <ele>146.1</ele>
        <time>2000-01-01T07:35:36.000Z</time>
      </trkpt>
      <trkpt lat="43.61578" lon="1.49455">
        <ele>146</ele>
        <time>2000-01-01T07:35:46.000Z</time>
      </trkpt>
      <trkpt lat="43.61575" lon="1.49443">
        <ele>135</ele>
        <time>2000-01-01T07:35:56.000Z</time>
      </trkpt>
      <trkpt lat="43.61572" lon="1.49432">
        <ele>145.3</ele>
        <time>2000-01-01T07:36:06.000Z</time>
      </trkpt>
      <trkpt lat="43.61568" lon="1.4942">
        <ele>145.1</ele>
        <time>2000-01-01T07:36:16.000Z</time>
      </trkpt>
      <trkpt lat="43.61566" lon="1.49408">
        <ele>133</ele>
        <time>2000-01-01T07:36:26.000Z</time>
      </trkpt>
      <trkpt lat="43.61563" lon="1.49396">
        <ele>145</ele>
        <time>2000-01-01T07:36:36.000Z</time>
      </trkpt>
      <trkpt lat="43.61559" lon="1.49382">
        <ele>132</ele>
        <time>2000-01-01T07:36:46.000Z</time>
      </trkpt>
      <trkpt lat="43.61559" lon="1.49371">
        <ele>144.4</ele>
        <time>2000-01-01T07:36:56.000Z</time>
      </trkpt>
      <trkpt lat="43.61557" lon="1.49359">
        <ele>144</ele>
        <time>2000-01-01T07:37:06.000Z</time>
      </trkpt>
      <trkpt lat="43.61553" lon="1.49346">
        <ele>130</ele>
        <time>2000-01-01T07:37:16.000Z</time>
      </trkpt>
      <trkpt lat="43.61548" lon="1.49335">
        <ele>144</ele>
        <time>2000-01-01T07:37:26.000Z</time>
      </trkpt>
      <trkpt lat="43.61545" lon="1.49324">
        <ele>143.9</ele>
        <time>2000-01-01T07:37:36.000Z</time>
      </trkpt>
      <trkpt lat="43.61543" lon="1.49313">
        <ele>127</ele>
        <time>2000-01-01T07:37:46.000Z</time>
      </trkpt>
      <trkpt lat="43.6154" lon="1.49302">
        <ele>143.4</ele>
        <time>2000-01-01T07:37:56.000Z</time>
      </trkpt>
      <trkpt lat="43.61538" lon="1.4929">
        <ele>143.2</ele>
        <time>2000-01-01T07:38:06.000Z</time>
      </trkpt>
      <trkpt lat="43.61536" lon="1.49279">
        <ele>127</ele>
        <time>2000-01-01T07:38:16.000Z</time>
      </trkpt>
      <trkpt lat="43.61531" lon="1.49267">
        <ele>142.6</ele>
        <time>2000-01-01T07:38:26.000Z</time>
      </trkpt>
      <trkpt lat="43.6153" lon="1.49254">
        <ele>142.1</ele>
        <time>2000-01-01T07:38:36.000Z</time>
      </trkpt>
      <trkpt lat="43.61528" lon="1.49242">
        <ele>127</ele>
        <time>2000-01-01T07:38:46.000Z</time>
      </trkpt>
      <trkpt lat="43.61526" lon="1.49229">
        <ele>142</ele>
        <time>2000-01-01T07:38:56.000Z</time>
      </trkpt>
      <trkpt lat="43.61524" lon="1.49217">
        <ele>141.8</ele>
        <time>2000-01-01T07:39:06.000Z</time>
      </trkpt>
      <trkpt lat="43.61523" lon="1.49204">
        <ele>126</ele>
        <time>2000-01-01T07:39:16.000Z</time>
      </trkpt>
      <trkpt lat="43.61519" lon="1.49188">
        <ele>141.2</ele>
        <time>2000-01-01T07:39:26.000Z</time>
      </trkpt>
      <trkpt lat="43.61517" lon="1.49177">
        <ele>124</ele>
        <time>2000-01-01T07:39:36.000Z</time>
      </trkpt>
      <trkpt lat="43.61515" lon="1.49165">
        <ele>141</ele>
        <time>2000-01-01T07:39:46.000Z</time>
      </trkpt>
      <trkpt lat="43.61512" lon="1.49155">
        <ele>141</ele>
        <time>2000-01-01T07:39:56.000Z</time>
      </trkpt>
      <trkpt lat="43.61509" lon="1.49141">
        <ele>123</ele>
        <time>2000-01-01T07:40:06.000Z</time>
      </trkpt>
      <trkpt lat="43.61506" lon="1.49131">
        <ele>141</ele>
        <time>2000-01-01T07:40:16.000Z</time>
      </trkpt>
      <trkpt lat="43.61502" lon="1.49119">
        <ele>141</ele>
        <time>2000-01-01T07:40:26.000Z</time>
      </trkpt>
      <trkpt lat="43.61497" lon="1.49106">
        <ele>123</ele>
        <time>2000-01-01T07:40:36.000Z</time>
      </trkpt>
      <trkpt lat="43.61492" lon="1.49094">
        <ele>141</ele>
        <time>2000-01-01T07:40:46.000Z</time>
      </trkpt>
      <trkpt lat="43.61488" lon="1.49083">
        <ele>123</ele>
        <time>2000-01-01T07:40:56.000Z</time>
      </trkpt>
      <trkpt lat="43.61484" lon="1.49072">
        <ele>140.8</ele>
        <time>2000-01-01T07:41:06.000Z</time>
      </trkpt>
      <trkpt lat="43.61479" lon="1.49058">
        <ele>123</ele>
        <time>2000-01-01T07:41:16.000Z</time>
      </trkpt>
      <trkpt lat="43.61473" lon="1.49046">
        <ele>140.6</ele>
        <time>2000-01-01T07:41:26.000Z</time>
      </trkpt>
      <trkpt lat="43.6147" lon="1.49036">
        <ele>140.3</ele>
        <time>2000-01-01T07:41:36.000Z</time>
      </trkpt>
      <trkpt lat="43.61464" lon="1.49026">
        <ele>125</ele>
        <time>2000-01-01T07:41:46.000Z</time>
      </trkpt>
      <trkpt lat="43.6146" lon="1.49015">
        <ele>139.5</ele>
        <time>2000-01-01T07:41:56.000Z</time>
      </trkpt>
      <trkpt lat="43.61456" lon="1.49003">
        <ele>139.3</ele>
        <time>2000-01-01T07:42:06.000Z</time>
      </trkpt>
      <trkpt lat="43.61451" lon="1.48993">
        <ele>126</ele>
        <time>2000-01-01T07:42:16.000Z</time>
      </trkpt>
      <trkpt lat="43.6145" lon="1.48981">
        <ele>139.7</ele>
        <time>2000-01-01T07:42:26.000Z</time>
      </trkpt>
      <trkpt lat="43.6145" lon="1.4897">
        <ele>139.8</ele>
        <time>2000-01-01T07:42:36.000Z</time>
      </trkpt>
      <trkpt lat="43.61444" lon="1.48958">
        <ele>127</ele>
        <time>2000-01-01T07:42:46.000Z</time>
      </trkpt>
      <trkpt lat="43.6144" lon="1.48946">
        <ele>139.8</ele>
        <time>2000-01-01T07:42:56.000Z</time>
      </trkpt>
      <trkpt lat="43.61435" lon="1.48937">
        <ele>139.6</ele>
        <time>2000-01-01T07:43:06.000Z</time>
      </trkpt>
      <trkpt lat="43.61431" lon="1.48926">
        <ele>127</ele>
        <time>2000-01-01T07:43:16.000Z</time>
      </trkpt>
      <trkpt lat="43.61426" lon="1.48914">
        <ele>139.6</ele>
        <time>2000-01-01T07:43:26.000Z</time>
      </trkpt>
      <trkpt lat="43.61422" lon="1.48902">
        <ele>139.4</ele>
        <time>2000-01-01T07:43:36.000Z</time>
      </trkpt>
      <trkpt lat="43.61419" lon="1.48891">
        <ele>128</ele>
        <time>2000-01-01T07:43:46.000Z</time>
      </trkpt>
      <trkpt lat="43.61413" lon="1.4888">
        <ele>139</ele>
        <time>2000-01-01T07:43:56.000Z</time>
      </trkpt>
      <trkpt lat="43.61405" lon="1.48871">
        <ele>129</ele>
        <time>2000-01-01T07:44:06.000Z</time>
      </trkpt>
      <trkpt lat="43.61399" lon="1.48862">
        <ele>139</ele>
        <time>2000-01-01T07:44:16.000Z</time>
      </trkpt>
      <trkpt lat="43.61393" lon="1.48855">
        <ele>139</ele>
        <time>2000-01-01T07:44:26.000Z</time>
      </trkpt>
      <trkpt lat="43.61383" lon="1.48849">
        <ele>129</ele>
        <time>2000-01-01T07:44:36.000Z</time>
      </trkpt>
      <trkpt lat="43.61375" lon="1.48846">
        <ele>139</ele>
        <time>2000-01-01T07:44:46.000Z</time>
      </trkpt>
      <trkpt lat="43.61367" lon="1.48844">
        <ele>139</ele>
        <time>2000-01-01T07:44:56.000Z</time>
      </trkpt>
      <trkpt lat="43.61357" lon="1.48844">
        <ele>128</ele>
        <time>2000-01-01T07:45:06.000Z</time>
      </trkpt>
      <trkpt lat="43.61348" lon="1.48847">
        <ele>139</ele>
        <time>2000-01-01T07:45:16.000Z</time>
      </trkpt>
      <trkpt lat="43.6134" lon="1.48851">
        <ele>139</ele>
        <time>2000-01-01T07:45:26.000Z</time>
      </trkpt>
      <trkpt lat="43.6133" lon="1.48854">
        <ele>126</ele>
        <time>2000-01-01T07:45:36.000Z</time>
      </trkpt>
      <trkpt lat="43.61322" lon="1.48857">
        <ele>139</ele>
        <time>2000-01-01T07:45:46.000Z</time>
      </trkpt>
      <trkpt lat="43.61313" lon="1.4886">
        <ele>139</ele>
        <time>2000-01-01T07:45:56.000Z</time>
      </trkpt>
      <trkpt lat="43.61306" lon="1.48864">
        <ele>126</ele>
        <time>2000-01-01T07:46:06.000Z</time>
      </trkpt>
      <trkpt lat="43.61295" lon="1.48869">
        <ele>138.3</ele>
        <time>2000-01-01T07:46:16.000Z</time>
      </trkpt>
      <trkpt lat="43.61285" lon="1.48871">
        <ele>125</ele>
        <time>2000-01-01T07:46:26.000Z</time>
      </trkpt>
      <trkpt lat="43.61275" lon="1.48875">
        <ele>137.6</ele>
        <time>2000-01-01T07:46:36.000Z</time>
      </trkpt>
      <trkpt lat="43.61265" lon="1.48879">
        <ele>124</ele>
        <time>2000-01-01T07:46:46.000Z</time>
      </trkpt>
      <trkpt lat="43.61254" lon="1.48883">
        <ele>138.2</ele>
        <time>2000-01-01T07:46:56.000Z</time>
      </trkpt>
      <trkpt lat="43.61247" lon="1.48887">
        <ele>138.1</ele>
        <time>2000-01-01T07:47:06.000Z</time>
      </trkpt>
      <trkpt lat="43.61236" lon="1.4889">
        <ele>123</ele>
        <time>2000-01-01T07:47:16.000Z</time>
      </trkpt>
      <trkpt lat="43.61227" lon="1.48894">
        <ele>138.2</ele>
        <time>2000-01-01T07:47:26.000Z</time>
      </trkpt>
      <trkpt lat="43.61218" lon="1.48897">
        <ele>138.2</ele>
        <time>2000-01-01T07:47:36.000Z</time>
      </trkpt>
      <trkpt lat="43.61208" lon="1.48902">
        <ele>122</ele>
        <time>2000-01-01T07:47:46.000Z</time>
      </trkpt>
      <trkpt lat="43.61199" lon="1.48905">
        <ele>138.1</ele>
        <time>2000-01-01T07:47:56.000Z</time>
      </trkpt>
      <trkpt lat="43.6119" lon="1.4891">
        <ele>138</ele>
        <time>2000-01-01T07:48:06.000Z</time>
      </trkpt>
      <trkpt lat="43.61182" lon="1.48912">
        <ele>122.5</ele>
        <time>2000-01-01T07:48:16.000Z</time>
      </trkpt>
      <trkpt lat="43.61171" lon="1.48915">
        <ele>138</ele>
        <time>2000-01-01T07:48:26.000Z</time>
      </trkpt>
      <trkpt lat="43.61163" lon="1.48916">
        <ele>123</ele>
        <time>2000-01-01T07:48:36.000Z</time>
      </trkpt>
      <trkpt lat="43.61154" lon="1.48914">
        <ele>138</ele>
        <time>2000-01-01T07:48:46.000Z</time>
      </trkpt>
      <trkpt lat="43.61147" lon="1.48903">
        <ele>123</ele>
        <time>2000-01-01T07:48:56.000Z</time>
      </trkpt>
      <trkpt lat="43.61142" lon="1.48889">
        <ele>138</ele>
        <time>2000-01-01T07:49:06.000Z</time>
      </trkpt>
      <trkpt lat="43.61139" lon="1.48877">
        <ele>121</ele>
        <time>2000-01-01T07:49:16.000Z</time>
      </trkpt>
      <trkpt lat="43.61134" lon="1.48864">
        <ele>138</ele>
        <time>2000-01-01T07:49:26.000Z</time>
      </trkpt>
      <trkpt lat="43.61131" lon="1.48852">
        <ele>137.8</ele>
        <time>2000-01-01T07:49:36.000Z</time>
      </trkpt>
      <trkpt lat="43.6115" lon="1.4882">
        <ele>121</ele>
        <time>2000-01-01T07:49:46.000Z</time>
      </trkpt>
      <trkpt lat="43.61126" lon="1.48863">
        <ele>138</ele>
        <time>2000-01-01T07:49:56.000Z</time>
      </trkpt>
    </trkseg>
  </trk>
</gpx>